<?xml version="1.0" encoding="UTF-8" standalone="no" ?>
<gpx xmlns="http://www.topografix.com/GPX/1/1" xmlns:xsi="http://www.w3.org/2001/XMLSchema-instance" xsi:schemaLocation="http://www.topografix.com/GPX/1/1 http://www.topografix.com/GPX/1/1/gpx.xsd" version="1.1" creator="VisuGPX - https://www.visugpx.com">
  <metadata>
    <name>Trail de La Tribu 2012</name>
    <desc><![CDATA[Trail de fin d\'année de La Tribu 64]]></desc>
  </metadata>
  <trk>
    <name><![CDATA[Trail de La Tribu 2012]]></name>
    <trkseg>
      <trkpt lat="43.23695" lon="-0.24911">
        <ele>232.80000305176</ele>
        <time>2012-12-29T08:30:33.000Z</time>
      </trkpt>
      <trkpt lat="43.23695" lon="-0.24911">
        <ele>232.80000305176</ele>
        <time>2012-12-29T08:30:34.000Z</time>
      </trkpt>
      <trkpt lat="43.23698" lon="-0.24905">
        <ele>234.19999694824</ele>
        <time>2012-12-29T08:47:06.000Z</time>
      </trkpt>
      <trkpt lat="43.23699" lon="-0.24901">
        <ele>234.19999694824</ele>
        <time>2012-12-29T08:47:08.000Z</time>
      </trkpt>
      <trkpt lat="43.23703" lon="-0.24885">
        <ele>234.19999694824</ele>
        <time>2012-12-29T08:47:13.000Z</time>
      </trkpt>
      <trkpt lat="43.23704" lon="-0.24881">
        <ele>234.19999694824</ele>
        <time>2012-12-29T08:47:14.000Z</time>
      </trkpt>
      <trkpt lat="43.23711" lon="-0.24862">
        <ele>234.19999694824</ele>
        <time>2012-12-29T08:47:20.000Z</time>
      </trkpt>
      <trkpt lat="43.23718" lon="-0.2484">
        <ele>234.19999694824</ele>
        <time>2012-12-29T08:47:27.000Z</time>
      </trkpt>
      <trkpt lat="43.23727" lon="-0.24823">
        <ele>234.19999694824</ele>
        <time>2012-12-29T08:47:33.000Z</time>
      </trkpt>
      <trkpt lat="43.23743" lon="-0.24803">
        <ele>234.19999694824</ele>
        <time>2012-12-29T08:47:41.000Z</time>
      </trkpt>
      <trkpt lat="43.23751" lon="-0.2479">
        <ele>234.19999694824</ele>
        <time>2012-12-29T08:47:46.000Z</time>
      </trkpt>
      <trkpt lat="43.23761" lon="-0.24772">
        <ele>234.19999694824</ele>
        <time>2012-12-29T08:47:53.000Z</time>
      </trkpt>
      <trkpt lat="43.2377" lon="-0.24757">
        <ele>234.19999694824</ele>
        <time>2012-12-29T08:47:59.000Z</time>
      </trkpt>
      <trkpt lat="43.23783" lon="-0.24742">
        <ele>234.19999694824</ele>
        <time>2012-12-29T08:48:05.000Z</time>
      </trkpt>
      <trkpt lat="43.23794" lon="-0.24727">
        <ele>234.19999694824</ele>
        <time>2012-12-29T08:48:11.000Z</time>
      </trkpt>
      <trkpt lat="43.23806" lon="-0.2471">
        <ele>234.19999694824</ele>
        <time>2012-12-29T08:48:18.000Z</time>
      </trkpt>
      <trkpt lat="43.2381" lon="-0.24705">
        <ele>234</ele>
        <time>2012-12-29T08:48:20.000Z</time>
      </trkpt>
      <trkpt lat="43.23812" lon="-0.24703">
        <ele>233.60000610352</ele>
        <time>2012-12-29T08:48:21.000Z</time>
      </trkpt>
      <trkpt lat="43.23814" lon="-0.24701">
        <ele>233</ele>
        <time>2012-12-29T08:48:22.000Z</time>
      </trkpt>
      <trkpt lat="43.23816" lon="-0.24698">
        <ele>232.80000305176</ele>
        <time>2012-12-29T08:48:23.000Z</time>
      </trkpt>
      <trkpt lat="43.23818" lon="-0.24696">
        <ele>232.19999694824</ele>
        <time>2012-12-29T08:48:24.000Z</time>
      </trkpt>
      <trkpt lat="43.23828" lon="-0.24688">
        <ele>232.19999694824</ele>
        <time>2012-12-29T08:48:29.000Z</time>
      </trkpt>
      <trkpt lat="43.23841" lon="-0.24678">
        <ele>232.19999694824</ele>
        <time>2012-12-29T08:48:35.000Z</time>
      </trkpt>
      <trkpt lat="43.23858" lon="-0.24665">
        <ele>232.19999694824</ele>
        <time>2012-12-29T08:48:43.000Z</time>
      </trkpt>
      <trkpt lat="43.23868" lon="-0.24656">
        <ele>232.19999694824</ele>
        <time>2012-12-29T08:48:47.000Z</time>
      </trkpt>
      <trkpt lat="43.23878" lon="-0.24646">
        <ele>232.19999694824</ele>
        <time>2012-12-29T08:48:52.000Z</time>
      </trkpt>
      <trkpt lat="43.23892" lon="-0.24632">
        <ele>232.19999694824</ele>
        <time>2012-12-29T08:48:59.000Z</time>
      </trkpt>
      <trkpt lat="43.23903" lon="-0.24622">
        <ele>232.19999694824</ele>
        <time>2012-12-29T08:49:04.000Z</time>
      </trkpt>
      <trkpt lat="43.2392" lon="-0.24611">
        <ele>232.19999694824</ele>
        <time>2012-12-29T08:49:11.000Z</time>
      </trkpt>
      <trkpt lat="43.23935" lon="-0.24603">
        <ele>232.19999694824</ele>
        <time>2012-12-29T08:49:17.000Z</time>
      </trkpt>
      <trkpt lat="43.23954" lon="-0.24593">
        <ele>232.19999694824</ele>
        <time>2012-12-29T08:49:25.000Z</time>
      </trkpt>
      <trkpt lat="43.23968" lon="-0.24584">
        <ele>232.19999694824</ele>
        <time>2012-12-29T08:49:31.000Z</time>
      </trkpt>
      <trkpt lat="43.23983" lon="-0.2457">
        <ele>232.19999694824</ele>
        <time>2012-12-29T08:49:38.000Z</time>
      </trkpt>
      <trkpt lat="43.23996" lon="-0.24553">
        <ele>232.19999694824</ele>
        <time>2012-12-29T08:49:45.000Z</time>
      </trkpt>
      <trkpt lat="43.24008" lon="-0.24538">
        <ele>232.19999694824</ele>
        <time>2012-12-29T08:49:51.000Z</time>
      </trkpt>
      <trkpt lat="43.24023" lon="-0.24517">
        <ele>232.19999694824</ele>
        <time>2012-12-29T08:49:59.000Z</time>
      </trkpt>
      <trkpt lat="43.24038" lon="-0.24504">
        <ele>232.19999694824</ele>
        <time>2012-12-29T08:50:06.000Z</time>
      </trkpt>
      <trkpt lat="43.24053" lon="-0.24495">
        <ele>232.19999694824</ele>
        <time>2012-12-29T08:50:13.000Z</time>
      </trkpt>
      <trkpt lat="43.24067" lon="-0.24486">
        <ele>232.19999694824</ele>
        <time>2012-12-29T08:50:19.000Z</time>
      </trkpt>
      <trkpt lat="43.24073" lon="-0.24481">
        <ele>233</ele>
        <time>2012-12-29T08:50:22.000Z</time>
      </trkpt>
      <trkpt lat="43.24075" lon="-0.2448">
        <ele>233.80000305176</ele>
        <time>2012-12-29T08:50:23.000Z</time>
      </trkpt>
      <trkpt lat="43.24077" lon="-0.24479">
        <ele>234.60000610352</ele>
        <time>2012-12-29T08:50:24.000Z</time>
      </trkpt>
      <trkpt lat="43.2408" lon="-0.24477">
        <ele>235</ele>
        <time>2012-12-29T08:50:25.000Z</time>
      </trkpt>
      <trkpt lat="43.24082" lon="-0.24476">
        <ele>236</ele>
        <time>2012-12-29T08:50:26.000Z</time>
      </trkpt>
      <trkpt lat="43.24095" lon="-0.24468">
        <ele>236</ele>
        <time>2012-12-29T08:50:31.000Z</time>
      </trkpt>
      <trkpt lat="43.2411" lon="-0.24458">
        <ele>236</ele>
        <time>2012-12-29T08:50:37.000Z</time>
      </trkpt>
      <trkpt lat="43.24123" lon="-0.24442">
        <ele>236</ele>
        <time>2012-12-29T08:50:44.000Z</time>
      </trkpt>
      <trkpt lat="43.24136" lon="-0.24426">
        <ele>236</ele>
        <time>2012-12-29T08:50:51.000Z</time>
      </trkpt>
      <trkpt lat="43.24145" lon="-0.24412">
        <ele>236</ele>
        <time>2012-12-29T08:50:56.000Z</time>
      </trkpt>
      <trkpt lat="43.24151" lon="-0.24405">
        <ele>236.60000610352</ele>
        <time>2012-12-29T08:50:59.000Z</time>
      </trkpt>
      <trkpt lat="43.24153" lon="-0.24403">
        <ele>237</ele>
        <time>2012-12-29T08:51:00.000Z</time>
      </trkpt>
      <trkpt lat="43.24154" lon="-0.24401">
        <ele>237.19999694824</ele>
        <time>2012-12-29T08:51:01.000Z</time>
      </trkpt>
      <trkpt lat="43.24156" lon="-0.24399">
        <ele>238</ele>
        <time>2012-12-29T08:51:02.000Z</time>
      </trkpt>
      <trkpt lat="43.24158" lon="-0.24397">
        <ele>238.19999694824</ele>
        <time>2012-12-29T08:51:03.000Z</time>
      </trkpt>
      <trkpt lat="43.24163" lon="-0.2439">
        <ele>238.19999694824</ele>
        <time>2012-12-29T08:51:06.000Z</time>
      </trkpt>
      <trkpt lat="43.24176" lon="-0.24383">
        <ele>239</ele>
        <time>2012-12-29T08:51:13.000Z</time>
      </trkpt>
      <trkpt lat="43.24178" lon="-0.24382">
        <ele>239.19999694824</ele>
        <time>2012-12-29T08:51:14.000Z</time>
      </trkpt>
      <trkpt lat="43.2418" lon="-0.24381">
        <ele>239.80000305176</ele>
        <time>2012-12-29T08:51:15.000Z</time>
      </trkpt>
      <trkpt lat="43.24183" lon="-0.24379">
        <ele>240</ele>
        <time>2012-12-29T08:51:16.000Z</time>
      </trkpt>
      <trkpt lat="43.24185" lon="-0.24378">
        <ele>240.80000305176</ele>
        <time>2012-12-29T08:51:17.000Z</time>
      </trkpt>
      <trkpt lat="43.24191" lon="-0.24374">
        <ele>240.80000305176</ele>
        <time>2012-12-29T08:51:20.000Z</time>
      </trkpt>
      <trkpt lat="43.24192" lon="-0.24373">
        <ele>241</ele>
        <time>2012-12-29T08:51:21.000Z</time>
      </trkpt>
      <trkpt lat="43.24194" lon="-0.24371">
        <ele>241.60000610352</ele>
        <time>2012-12-29T08:51:22.000Z</time>
      </trkpt>
      <trkpt lat="43.24195" lon="-0.2437">
        <ele>242</ele>
        <time>2012-12-29T08:51:23.000Z</time>
      </trkpt>
      <trkpt lat="43.24197" lon="-0.24369">
        <ele>242.19999694824</ele>
        <time>2012-12-29T08:51:24.000Z</time>
      </trkpt>
      <trkpt lat="43.24198" lon="-0.24368">
        <ele>242.80000305176</ele>
        <time>2012-12-29T08:51:25.000Z</time>
      </trkpt>
      <trkpt lat="43.24199" lon="-0.24367">
        <ele>242.80000305176</ele>
        <time>2012-12-29T08:51:26.000Z</time>
      </trkpt>
      <trkpt lat="43.24204" lon="-0.24364">
        <ele>243</ele>
        <time>2012-12-29T08:51:29.000Z</time>
      </trkpt>
      <trkpt lat="43.24204" lon="-0.24364">
        <ele>243.60000610352</ele>
        <time>2012-12-29T08:51:30.000Z</time>
      </trkpt>
      <trkpt lat="43.24205" lon="-0.24363">
        <ele>244</ele>
        <time>2012-12-29T08:51:31.000Z</time>
      </trkpt>
      <trkpt lat="43.24206" lon="-0.24363">
        <ele>244.60000610352</ele>
        <time>2012-12-29T08:51:32.000Z</time>
      </trkpt>
      <trkpt lat="43.24208" lon="-0.2436">
        <ele>245</ele>
        <time>2012-12-29T08:51:34.000Z</time>
      </trkpt>
      <trkpt lat="43.2421" lon="-0.24359">
        <ele>245</ele>
        <time>2012-12-29T08:51:35.000Z</time>
      </trkpt>
      <trkpt lat="43.2422" lon="-0.24353">
        <ele>245.60000610352</ele>
        <time>2012-12-29T08:51:39.000Z</time>
      </trkpt>
      <trkpt lat="43.24222" lon="-0.24352">
        <ele>246</ele>
        <time>2012-12-29T08:51:40.000Z</time>
      </trkpt>
      <trkpt lat="43.24225" lon="-0.24351">
        <ele>246.19999694824</ele>
        <time>2012-12-29T08:51:41.000Z</time>
      </trkpt>
      <trkpt lat="43.24227" lon="-0.24351">
        <ele>246.80000305176</ele>
        <time>2012-12-29T08:51:42.000Z</time>
      </trkpt>
      <trkpt lat="43.2423" lon="-0.24351">
        <ele>247.19999694824</ele>
        <time>2012-12-29T08:51:43.000Z</time>
      </trkpt>
      <trkpt lat="43.24234" lon="-0.2435">
        <ele>247.19999694824</ele>
        <time>2012-12-29T08:51:45.000Z</time>
      </trkpt>
      <trkpt lat="43.24239" lon="-0.24349">
        <ele>247.80000305176</ele>
        <time>2012-12-29T08:51:47.000Z</time>
      </trkpt>
      <trkpt lat="43.24241" lon="-0.24349">
        <ele>248.19999694824</ele>
        <time>2012-12-29T08:51:48.000Z</time>
      </trkpt>
      <trkpt lat="43.24244" lon="-0.24348">
        <ele>248.80000305176</ele>
        <time>2012-12-29T08:51:49.000Z</time>
      </trkpt>
      <trkpt lat="43.24246" lon="-0.24348">
        <ele>249.19999694824</ele>
        <time>2012-12-29T08:51:50.000Z</time>
      </trkpt>
      <trkpt lat="43.24248" lon="-0.24347">
        <ele>250</ele>
        <time>2012-12-29T08:51:51.000Z</time>
      </trkpt>
      <trkpt lat="43.2425" lon="-0.24346">
        <ele>250</ele>
        <time>2012-12-29T08:51:52.000Z</time>
      </trkpt>
      <trkpt lat="43.24258" lon="-0.24341">
        <ele>250</ele>
        <time>2012-12-29T08:51:57.000Z</time>
      </trkpt>
      <trkpt lat="43.2426" lon="-0.24341">
        <ele>250.19999694824</ele>
        <time>2012-12-29T08:51:58.000Z</time>
      </trkpt>
      <trkpt lat="43.24262" lon="-0.2434">
        <ele>250.80000305176</ele>
        <time>2012-12-29T08:51:59.000Z</time>
      </trkpt>
      <trkpt lat="43.24265" lon="-0.24339">
        <ele>251</ele>
        <time>2012-12-29T08:52:00.000Z</time>
      </trkpt>
      <trkpt lat="43.24267" lon="-0.24339">
        <ele>251.60000610352</ele>
        <time>2012-12-29T08:52:01.000Z</time>
      </trkpt>
      <trkpt lat="43.24269" lon="-0.24339">
        <ele>252</ele>
        <time>2012-12-29T08:52:02.000Z</time>
      </trkpt>
      <trkpt lat="43.24274" lon="-0.2434">
        <ele>252</ele>
        <time>2012-12-29T08:52:04.000Z</time>
      </trkpt>
      <trkpt lat="43.24276" lon="-0.24341">
        <ele>252</ele>
        <time>2012-12-29T08:52:05.000Z</time>
      </trkpt>
      <trkpt lat="43.24281" lon="-0.24346">
        <ele>252</ele>
        <time>2012-12-29T08:52:08.000Z</time>
      </trkpt>
      <trkpt lat="43.24284" lon="-0.24353">
        <ele>252</ele>
        <time>2012-12-29T08:52:12.000Z</time>
      </trkpt>
      <trkpt lat="43.24292" lon="-0.24364">
        <ele>252</ele>
        <time>2012-12-29T08:52:18.000Z</time>
      </trkpt>
      <trkpt lat="43.24299" lon="-0.24373">
        <ele>252</ele>
        <time>2012-12-29T08:52:22.000Z</time>
      </trkpt>
      <trkpt lat="43.24302" lon="-0.24378">
        <ele>252.19999694824</ele>
        <time>2012-12-29T08:52:24.000Z</time>
      </trkpt>
      <trkpt lat="43.24304" lon="-0.2438">
        <ele>252.80000305176</ele>
        <time>2012-12-29T08:52:25.000Z</time>
      </trkpt>
      <trkpt lat="43.24305" lon="-0.24382">
        <ele>253</ele>
        <time>2012-12-29T08:52:26.000Z</time>
      </trkpt>
      <trkpt lat="43.24307" lon="-0.24385">
        <ele>253.80000305176</ele>
        <time>2012-12-29T08:52:27.000Z</time>
      </trkpt>
      <trkpt lat="43.24308" lon="-0.24387">
        <ele>254</ele>
        <time>2012-12-29T08:52:28.000Z</time>
      </trkpt>
      <trkpt lat="43.24311" lon="-0.24394">
        <ele>254</ele>
        <time>2012-12-29T08:52:31.000Z</time>
      </trkpt>
      <trkpt lat="43.24315" lon="-0.24397">
        <ele>254.60000610352</ele>
        <time>2012-12-29T08:52:33.000Z</time>
      </trkpt>
      <trkpt lat="43.24317" lon="-0.24399">
        <ele>255</ele>
        <time>2012-12-29T08:52:34.000Z</time>
      </trkpt>
      <trkpt lat="43.24319" lon="-0.244">
        <ele>255.19999694824</ele>
        <time>2012-12-29T08:52:35.000Z</time>
      </trkpt>
      <trkpt lat="43.24322" lon="-0.24402">
        <ele>255.80000305176</ele>
        <time>2012-12-29T08:52:36.000Z</time>
      </trkpt>
      <trkpt lat="43.24324" lon="-0.24403">
        <ele>256.20001220703</ele>
        <time>2012-12-29T08:52:37.000Z</time>
      </trkpt>
      <trkpt lat="43.24328" lon="-0.24405">
        <ele>256.20001220703</ele>
        <time>2012-12-29T08:52:38.000Z</time>
      </trkpt>
      <trkpt lat="43.24338" lon="-0.24411">
        <ele>256.20001220703</ele>
        <time>2012-12-29T08:52:43.000Z</time>
      </trkpt>
      <trkpt lat="43.24339" lon="-0.24411">
        <ele>256.60000610352</ele>
        <time>2012-12-29T08:52:44.000Z</time>
      </trkpt>
      <trkpt lat="43.2434" lon="-0.24411">
        <ele>257</ele>
        <time>2012-12-29T08:52:45.000Z</time>
      </trkpt>
      <trkpt lat="43.24341" lon="-0.24411">
        <ele>257.20001220703</ele>
        <time>2012-12-29T08:52:46.000Z</time>
      </trkpt>
      <trkpt lat="43.24343" lon="-0.24411">
        <ele>257.60000610352</ele>
        <time>2012-12-29T08:52:47.000Z</time>
      </trkpt>
      <trkpt lat="43.24344" lon="-0.2441">
        <ele>258.20001220703</ele>
        <time>2012-12-29T08:52:48.000Z</time>
      </trkpt>
      <trkpt lat="43.24346" lon="-0.2441">
        <ele>258.60000610352</ele>
        <time>2012-12-29T08:52:49.000Z</time>
      </trkpt>
      <trkpt lat="43.24348" lon="-0.2441">
        <ele>259.20001220703</ele>
        <time>2012-12-29T08:52:50.000Z</time>
      </trkpt>
      <trkpt lat="43.24351" lon="-0.2441">
        <ele>259.60000610352</ele>
        <time>2012-12-29T08:52:51.000Z</time>
      </trkpt>
      <trkpt lat="43.24353" lon="-0.2441">
        <ele>260.20001220703</ele>
        <time>2012-12-29T08:52:52.000Z</time>
      </trkpt>
      <trkpt lat="43.24356" lon="-0.2441">
        <ele>260.60000610352</ele>
        <time>2012-12-29T08:52:53.000Z</time>
      </trkpt>
      <trkpt lat="43.24359" lon="-0.2441">
        <ele>260.60000610352</ele>
        <time>2012-12-29T08:52:55.000Z</time>
      </trkpt>
      <trkpt lat="43.24361" lon="-0.24411">
        <ele>260.60000610352</ele>
        <time>2012-12-29T08:52:56.000Z</time>
      </trkpt>
      <trkpt lat="43.24364" lon="-0.24412">
        <ele>261.20001220703</ele>
        <time>2012-12-29T08:52:58.000Z</time>
      </trkpt>
      <trkpt lat="43.24365" lon="-0.24412">
        <ele>261.60000610352</ele>
        <time>2012-12-29T08:52:59.000Z</time>
      </trkpt>
      <trkpt lat="43.24368" lon="-0.24413">
        <ele>262.20001220703</ele>
        <time>2012-12-29T08:53:00.000Z</time>
      </trkpt>
      <trkpt lat="43.2437" lon="-0.24414">
        <ele>262.60000610352</ele>
        <time>2012-12-29T08:53:01.000Z</time>
      </trkpt>
      <trkpt lat="43.24372" lon="-0.24414">
        <ele>263.20001220703</ele>
        <time>2012-12-29T08:53:02.000Z</time>
      </trkpt>
      <trkpt lat="43.24374" lon="-0.24415">
        <ele>263.20001220703</ele>
        <time>2012-12-29T08:53:03.000Z</time>
      </trkpt>
      <trkpt lat="43.24376" lon="-0.24416">
        <ele>263.20001220703</ele>
        <time>2012-12-29T08:53:04.000Z</time>
      </trkpt>
      <trkpt lat="43.24381" lon="-0.24419">
        <ele>263.20001220703</ele>
        <time>2012-12-29T08:53:07.000Z</time>
      </trkpt>
      <trkpt lat="43.24386" lon="-0.24423">
        <ele>263.60000610352</ele>
        <time>2012-12-29T08:53:10.000Z</time>
      </trkpt>
      <trkpt lat="43.24387" lon="-0.24424">
        <ele>264.20001220703</ele>
        <time>2012-12-29T08:53:11.000Z</time>
      </trkpt>
      <trkpt lat="43.24388" lon="-0.24423">
        <ele>264.60000610352</ele>
        <time>2012-12-29T08:53:12.000Z</time>
      </trkpt>
      <trkpt lat="43.24389" lon="-0.24424">
        <ele>265.20001220703</ele>
        <time>2012-12-29T08:53:13.000Z</time>
      </trkpt>
      <trkpt lat="43.2439" lon="-0.24424">
        <ele>265.60000610352</ele>
        <time>2012-12-29T08:53:14.000Z</time>
      </trkpt>
      <trkpt lat="43.2439" lon="-0.24423">
        <ele>265.60000610352</ele>
        <time>2012-12-29T08:53:15.000Z</time>
      </trkpt>
      <trkpt lat="43.24393" lon="-0.24421">
        <ele>265.60000610352</ele>
        <time>2012-12-29T08:53:18.000Z</time>
      </trkpt>
      <trkpt lat="43.24395" lon="-0.24418">
        <ele>265.60000610352</ele>
        <time>2012-12-29T08:53:20.000Z</time>
      </trkpt>
      <trkpt lat="43.24398" lon="-0.24412">
        <ele>266</ele>
        <time>2012-12-29T08:53:23.000Z</time>
      </trkpt>
      <trkpt lat="43.24399" lon="-0.24409">
        <ele>266.60000610352</ele>
        <time>2012-12-29T08:53:24.000Z</time>
      </trkpt>
      <trkpt lat="43.24399" lon="-0.24407">
        <ele>267</ele>
        <time>2012-12-29T08:53:25.000Z</time>
      </trkpt>
      <trkpt lat="43.244" lon="-0.24405">
        <ele>267.60000610352</ele>
        <time>2012-12-29T08:53:26.000Z</time>
      </trkpt>
      <trkpt lat="43.24401" lon="-0.24403">
        <ele>268</ele>
        <time>2012-12-29T08:53:27.000Z</time>
      </trkpt>
      <trkpt lat="43.24403" lon="-0.24396">
        <ele>268</ele>
        <time>2012-12-29T08:53:30.000Z</time>
      </trkpt>
      <trkpt lat="43.24404" lon="-0.24394">
        <ele>268.20001220703</ele>
        <time>2012-12-29T08:53:31.000Z</time>
      </trkpt>
      <trkpt lat="43.24405" lon="-0.24392">
        <ele>269</ele>
        <time>2012-12-29T08:53:32.000Z</time>
      </trkpt>
      <trkpt lat="43.24405" lon="-0.2439">
        <ele>269.20001220703</ele>
        <time>2012-12-29T08:53:33.000Z</time>
      </trkpt>
      <trkpt lat="43.24406" lon="-0.24388">
        <ele>269.60000610352</ele>
        <time>2012-12-29T08:53:34.000Z</time>
      </trkpt>
      <trkpt lat="43.24407" lon="-0.24385">
        <ele>270.20001220703</ele>
        <time>2012-12-29T08:53:35.000Z</time>
      </trkpt>
      <trkpt lat="43.24411" lon="-0.24378">
        <ele>270.20001220703</ele>
        <time>2012-12-29T08:53:38.000Z</time>
      </trkpt>
      <trkpt lat="43.24412" lon="-0.24376">
        <ele>270.60000610352</ele>
        <time>2012-12-29T08:53:39.000Z</time>
      </trkpt>
      <trkpt lat="43.24413" lon="-0.24374">
        <ele>271.20001220703</ele>
        <time>2012-12-29T08:53:40.000Z</time>
      </trkpt>
      <trkpt lat="43.24416" lon="-0.2437">
        <ele>271.60000610352</ele>
        <time>2012-12-29T08:53:42.000Z</time>
      </trkpt>
      <trkpt lat="43.24418" lon="-0.24368">
        <ele>272.20001220703</ele>
        <time>2012-12-29T08:53:43.000Z</time>
      </trkpt>
      <trkpt lat="43.24421" lon="-0.24362">
        <ele>272.20001220703</ele>
        <time>2012-12-29T08:53:45.000Z</time>
      </trkpt>
      <trkpt lat="43.24422" lon="-0.24356">
        <ele>272.20001220703</ele>
        <time>2012-12-29T08:53:47.000Z</time>
      </trkpt>
      <trkpt lat="43.24422" lon="-0.24349">
        <ele>272.60000610352</ele>
        <time>2012-12-29T08:53:50.000Z</time>
      </trkpt>
      <trkpt lat="43.24422" lon="-0.24346">
        <ele>273.60000610352</ele>
        <time>2012-12-29T08:53:51.000Z</time>
      </trkpt>
      <trkpt lat="43.24422" lon="-0.24344">
        <ele>273.60000610352</ele>
        <time>2012-12-29T08:53:52.000Z</time>
      </trkpt>
      <trkpt lat="43.24422" lon="-0.24342">
        <ele>274</ele>
        <time>2012-12-29T08:53:53.000Z</time>
      </trkpt>
      <trkpt lat="43.24422" lon="-0.2434">
        <ele>274.20001220703</ele>
        <time>2012-12-29T08:53:54.000Z</time>
      </trkpt>
      <trkpt lat="43.24422" lon="-0.24338">
        <ele>274.20001220703</ele>
        <time>2012-12-29T08:53:55.000Z</time>
      </trkpt>
      <trkpt lat="43.24423" lon="-0.24335">
        <ele>274.60000610352</ele>
        <time>2012-12-29T08:53:57.000Z</time>
      </trkpt>
      <trkpt lat="43.24424" lon="-0.24333">
        <ele>275.20001220703</ele>
        <time>2012-12-29T08:53:58.000Z</time>
      </trkpt>
      <trkpt lat="43.24424" lon="-0.24331">
        <ele>275.60000610352</ele>
        <time>2012-12-29T08:53:59.000Z</time>
      </trkpt>
      <trkpt lat="43.24425" lon="-0.24329">
        <ele>276.20001220703</ele>
        <time>2012-12-29T08:54:00.000Z</time>
      </trkpt>
      <trkpt lat="43.24426" lon="-0.24328">
        <ele>276.60000610352</ele>
        <time>2012-12-29T08:54:01.000Z</time>
      </trkpt>
      <trkpt lat="43.24426" lon="-0.24326">
        <ele>276.60000610352</ele>
        <time>2012-12-29T08:54:02.000Z</time>
      </trkpt>
      <trkpt lat="43.2443" lon="-0.24314">
        <ele>276.60000610352</ele>
        <time>2012-12-29T08:54:07.000Z</time>
      </trkpt>
      <trkpt lat="43.24431" lon="-0.24312">
        <ele>277</ele>
        <time>2012-12-29T08:54:08.000Z</time>
      </trkpt>
      <trkpt lat="43.24432" lon="-0.24311">
        <ele>277.20001220703</ele>
        <time>2012-12-29T08:54:09.000Z</time>
      </trkpt>
      <trkpt lat="43.24433" lon="-0.24309">
        <ele>277.60000610352</ele>
        <time>2012-12-29T08:54:10.000Z</time>
      </trkpt>
      <trkpt lat="43.24434" lon="-0.24307">
        <ele>278.20001220703</ele>
        <time>2012-12-29T08:54:11.000Z</time>
      </trkpt>
      <trkpt lat="43.24434" lon="-0.24305">
        <ele>278.60000610352</ele>
        <time>2012-12-29T08:54:12.000Z</time>
      </trkpt>
      <trkpt lat="43.24435" lon="-0.24304">
        <ele>278.60000610352</ele>
        <time>2012-12-29T08:54:13.000Z</time>
      </trkpt>
      <trkpt lat="43.24436" lon="-0.24302">
        <ele>279.20001220703</ele>
        <time>2012-12-29T08:54:14.000Z</time>
      </trkpt>
      <trkpt lat="43.24437" lon="-0.243">
        <ele>279.60000610352</ele>
        <time>2012-12-29T08:54:15.000Z</time>
      </trkpt>
      <trkpt lat="43.24438" lon="-0.24299">
        <ele>280</ele>
        <time>2012-12-29T08:54:16.000Z</time>
      </trkpt>
      <trkpt lat="43.24439" lon="-0.24297">
        <ele>280.20001220703</ele>
        <time>2012-12-29T08:54:17.000Z</time>
      </trkpt>
      <trkpt lat="43.24441" lon="-0.24295">
        <ele>280.60000610352</ele>
        <time>2012-12-29T08:54:18.000Z</time>
      </trkpt>
      <trkpt lat="43.24442" lon="-0.24293">
        <ele>280.60000610352</ele>
        <time>2012-12-29T08:54:19.000Z</time>
      </trkpt>
      <trkpt lat="43.24446" lon="-0.24291">
        <ele>281.20001220703</ele>
        <time>2012-12-29T08:54:21.000Z</time>
      </trkpt>
      <trkpt lat="43.24447" lon="-0.24289">
        <ele>281.60000610352</ele>
        <time>2012-12-29T08:54:22.000Z</time>
      </trkpt>
      <trkpt lat="43.24449" lon="-0.24287">
        <ele>282.20001220703</ele>
        <time>2012-12-29T08:54:23.000Z</time>
      </trkpt>
      <trkpt lat="43.2445" lon="-0.24286">
        <ele>282.60000610352</ele>
        <time>2012-12-29T08:54:24.000Z</time>
      </trkpt>
      <trkpt lat="43.24451" lon="-0.24284">
        <ele>283</ele>
        <time>2012-12-29T08:54:25.000Z</time>
      </trkpt>
      <trkpt lat="43.24453" lon="-0.2428">
        <ele>283</ele>
        <time>2012-12-29T08:54:27.000Z</time>
      </trkpt>
      <trkpt lat="43.24456" lon="-0.24275">
        <ele>283</ele>
        <time>2012-12-29T08:54:29.000Z</time>
      </trkpt>
      <trkpt lat="43.24458" lon="-0.24263">
        <ele>283</ele>
        <time>2012-12-29T08:54:34.000Z</time>
      </trkpt>
      <trkpt lat="43.24459" lon="-0.2426">
        <ele>283.20001220703</ele>
        <time>2012-12-29T08:54:35.000Z</time>
      </trkpt>
      <trkpt lat="43.24459" lon="-0.24258">
        <ele>283.60000610352</ele>
        <time>2012-12-29T08:54:36.000Z</time>
      </trkpt>
      <trkpt lat="43.24459" lon="-0.24255">
        <ele>284.20001220703</ele>
        <time>2012-12-29T08:54:37.000Z</time>
      </trkpt>
      <trkpt lat="43.24458" lon="-0.24253">
        <ele>284.60000610352</ele>
        <time>2012-12-29T08:54:38.000Z</time>
      </trkpt>
      <trkpt lat="43.24458" lon="-0.2425">
        <ele>285</ele>
        <time>2012-12-29T08:54:39.000Z</time>
      </trkpt>
      <trkpt lat="43.24458" lon="-0.24245">
        <ele>285</ele>
        <time>2012-12-29T08:54:41.000Z</time>
      </trkpt>
      <trkpt lat="43.24461" lon="-0.24239">
        <ele>285</ele>
        <time>2012-12-29T08:54:44.000Z</time>
      </trkpt>
      <trkpt lat="43.24462" lon="-0.24237">
        <ele>285</ele>
        <time>2012-12-29T08:54:45.000Z</time>
      </trkpt>
      <trkpt lat="43.24467" lon="-0.24235">
        <ele>285</ele>
        <time>2012-12-29T08:54:48.000Z</time>
      </trkpt>
      <trkpt lat="43.2447" lon="-0.24232">
        <ele>285.20001220703</ele>
        <time>2012-12-29T08:54:51.000Z</time>
      </trkpt>
      <trkpt lat="43.24471" lon="-0.24231">
        <ele>285.60000610352</ele>
        <time>2012-12-29T08:54:52.000Z</time>
      </trkpt>
      <trkpt lat="43.24472" lon="-0.2423">
        <ele>286.20001220703</ele>
        <time>2012-12-29T08:54:53.000Z</time>
      </trkpt>
      <trkpt lat="43.24472" lon="-0.24229">
        <ele>286.60000610352</ele>
        <time>2012-12-29T08:54:54.000Z</time>
      </trkpt>
      <trkpt lat="43.24473" lon="-0.24227">
        <ele>287</ele>
        <time>2012-12-29T08:54:55.000Z</time>
      </trkpt>
      <trkpt lat="43.24476" lon="-0.24223">
        <ele>287.60000610352</ele>
        <time>2012-12-29T08:54:58.000Z</time>
      </trkpt>
      <trkpt lat="43.24477" lon="-0.24221">
        <ele>288</ele>
        <time>2012-12-29T08:54:59.000Z</time>
      </trkpt>
      <trkpt lat="43.24478" lon="-0.2422">
        <ele>288.20001220703</ele>
        <time>2012-12-29T08:55:00.000Z</time>
      </trkpt>
      <trkpt lat="43.24479" lon="-0.24218">
        <ele>288.60000610352</ele>
        <time>2012-12-29T08:55:01.000Z</time>
      </trkpt>
      <trkpt lat="43.2448" lon="-0.24216">
        <ele>289.20001220703</ele>
        <time>2012-12-29T08:55:02.000Z</time>
      </trkpt>
      <trkpt lat="43.2448" lon="-0.24214">
        <ele>289.60000610352</ele>
        <time>2012-12-29T08:55:03.000Z</time>
      </trkpt>
      <trkpt lat="43.24481" lon="-0.24212">
        <ele>290.20001220703</ele>
        <time>2012-12-29T08:55:04.000Z</time>
      </trkpt>
      <trkpt lat="43.24482" lon="-0.24211">
        <ele>290.60000610352</ele>
        <time>2012-12-29T08:55:05.000Z</time>
      </trkpt>
      <trkpt lat="43.24482" lon="-0.24209">
        <ele>291.20001220703</ele>
        <time>2012-12-29T08:55:06.000Z</time>
      </trkpt>
      <trkpt lat="43.24482" lon="-0.24207">
        <ele>291.60000610352</ele>
        <time>2012-12-29T08:55:07.000Z</time>
      </trkpt>
      <trkpt lat="43.24483" lon="-0.24201">
        <ele>292.20001220703</ele>
        <time>2012-12-29T08:55:10.000Z</time>
      </trkpt>
      <trkpt lat="43.24484" lon="-0.242">
        <ele>292.60000610352</ele>
        <time>2012-12-29T08:55:11.000Z</time>
      </trkpt>
      <trkpt lat="43.24485" lon="-0.24199">
        <ele>293</ele>
        <time>2012-12-29T08:55:12.000Z</time>
      </trkpt>
      <trkpt lat="43.24485" lon="-0.24198">
        <ele>293.60000610352</ele>
        <time>2012-12-29T08:55:13.000Z</time>
      </trkpt>
      <trkpt lat="43.24486" lon="-0.24197">
        <ele>294</ele>
        <time>2012-12-29T08:55:14.000Z</time>
      </trkpt>
      <trkpt lat="43.24494" lon="-0.24185">
        <ele>294</ele>
        <time>2012-12-29T08:55:22.000Z</time>
      </trkpt>
      <trkpt lat="43.24496" lon="-0.24183">
        <ele>294</ele>
        <time>2012-12-29T08:55:24.000Z</time>
      </trkpt>
      <trkpt lat="43.24514" lon="-0.24151">
        <ele>296.20001220703</ele>
        <time>2012-12-29T08:57:46.000Z</time>
      </trkpt>
      <trkpt lat="43.24516" lon="-0.24151">
        <ele>296.60000610352</ele>
        <time>2012-12-29T08:57:47.000Z</time>
      </trkpt>
      <trkpt lat="43.24517" lon="-0.24151">
        <ele>297</ele>
        <time>2012-12-29T08:57:48.000Z</time>
      </trkpt>
      <trkpt lat="43.24519" lon="-0.24151">
        <ele>297.60000610352</ele>
        <time>2012-12-29T08:57:49.000Z</time>
      </trkpt>
      <trkpt lat="43.2452" lon="-0.24151">
        <ele>298</ele>
        <time>2012-12-29T08:57:50.000Z</time>
      </trkpt>
      <trkpt lat="43.24521" lon="-0.2415">
        <ele>298.20001220703</ele>
        <time>2012-12-29T08:57:51.000Z</time>
      </trkpt>
      <trkpt lat="43.24524" lon="-0.2415">
        <ele>299</ele>
        <time>2012-12-29T08:57:53.000Z</time>
      </trkpt>
      <trkpt lat="43.24525" lon="-0.2415">
        <ele>299.20001220703</ele>
        <time>2012-12-29T08:57:54.000Z</time>
      </trkpt>
      <trkpt lat="43.24525" lon="-0.2415">
        <ele>300</ele>
        <time>2012-12-29T08:57:55.000Z</time>
      </trkpt>
      <trkpt lat="43.24526" lon="-0.2415">
        <ele>300.60000610352</ele>
        <time>2012-12-29T08:57:56.000Z</time>
      </trkpt>
      <trkpt lat="43.24527" lon="-0.2415">
        <ele>301.20001220703</ele>
        <time>2012-12-29T08:57:57.000Z</time>
      </trkpt>
      <trkpt lat="43.24529" lon="-0.24149">
        <ele>301.60000610352</ele>
        <time>2012-12-29T08:57:59.000Z</time>
      </trkpt>
      <trkpt lat="43.2453" lon="-0.24148">
        <ele>302</ele>
        <time>2012-12-29T08:58:00.000Z</time>
      </trkpt>
      <trkpt lat="43.24531" lon="-0.24147">
        <ele>302.60000610352</ele>
        <time>2012-12-29T08:58:01.000Z</time>
      </trkpt>
      <trkpt lat="43.24531" lon="-0.24147">
        <ele>303</ele>
        <time>2012-12-29T08:58:02.000Z</time>
      </trkpt>
      <trkpt lat="43.24532" lon="-0.24147">
        <ele>303.20001220703</ele>
        <time>2012-12-29T08:58:03.000Z</time>
      </trkpt>
      <trkpt lat="43.24535" lon="-0.24146">
        <ele>303.60000610352</ele>
        <time>2012-12-29T08:58:05.000Z</time>
      </trkpt>
      <trkpt lat="43.24536" lon="-0.24145">
        <ele>304.20001220703</ele>
        <time>2012-12-29T08:58:06.000Z</time>
      </trkpt>
      <trkpt lat="43.24537" lon="-0.24145">
        <ele>304.60000610352</ele>
        <time>2012-12-29T08:58:07.000Z</time>
      </trkpt>
      <trkpt lat="43.24539" lon="-0.24144">
        <ele>305.20001220703</ele>
        <time>2012-12-29T08:58:08.000Z</time>
      </trkpt>
      <trkpt lat="43.24541" lon="-0.24143">
        <ele>305.60000610352</ele>
        <time>2012-12-29T08:58:09.000Z</time>
      </trkpt>
      <trkpt lat="43.24543" lon="-0.2414">
        <ele>306</ele>
        <time>2012-12-29T08:58:11.000Z</time>
      </trkpt>
      <trkpt lat="43.24544" lon="-0.24139">
        <ele>306.20001220703</ele>
        <time>2012-12-29T08:58:12.000Z</time>
      </trkpt>
      <trkpt lat="43.24545" lon="-0.24138">
        <ele>306.60000610352</ele>
        <time>2012-12-29T08:58:13.000Z</time>
      </trkpt>
      <trkpt lat="43.24558" lon="-0.24128">
        <ele>310</ele>
        <time>2012-12-29T08:58:27.000Z</time>
      </trkpt>
      <trkpt lat="43.2456" lon="-0.24127">
        <ele>310</ele>
        <time>2012-12-29T08:58:29.000Z</time>
      </trkpt>
      <trkpt lat="43.24572" lon="-0.24136">
        <ele>313.60000610352</ele>
        <time>2012-12-29T08:58:40.000Z</time>
      </trkpt>
      <trkpt lat="43.24573" lon="-0.24138">
        <ele>314</ele>
        <time>2012-12-29T08:58:41.000Z</time>
      </trkpt>
      <trkpt lat="43.24573" lon="-0.24141">
        <ele>314.20001220703</ele>
        <time>2012-12-29T08:58:42.000Z</time>
      </trkpt>
      <trkpt lat="43.24574" lon="-0.24146">
        <ele>314.60000610352</ele>
        <time>2012-12-29T08:58:44.000Z</time>
      </trkpt>
      <trkpt lat="43.24575" lon="-0.24149">
        <ele>315.20001220703</ele>
        <time>2012-12-29T08:58:45.000Z</time>
      </trkpt>
      <trkpt lat="43.24575" lon="-0.24151">
        <ele>315.60000610352</ele>
        <time>2012-12-29T08:58:46.000Z</time>
      </trkpt>
      <trkpt lat="43.24575" lon="-0.24154">
        <ele>316.20001220703</ele>
        <time>2012-12-29T08:58:47.000Z</time>
      </trkpt>
      <trkpt lat="43.24575" lon="-0.24155">
        <ele>316.60000610352</ele>
        <time>2012-12-29T08:58:48.000Z</time>
      </trkpt>
      <trkpt lat="43.24574" lon="-0.24159">
        <ele>316.60000610352</ele>
        <time>2012-12-29T08:58:50.000Z</time>
      </trkpt>
      <trkpt lat="43.24567" lon="-0.24171">
        <ele>316.60000610352</ele>
        <time>2012-12-29T08:58:54.000Z</time>
      </trkpt>
      <trkpt lat="43.24562" lon="-0.24178">
        <ele>316.60000610352</ele>
        <time>2012-12-29T08:58:56.000Z</time>
      </trkpt>
      <trkpt lat="43.24559" lon="-0.24183">
        <ele>316.20001220703</ele>
        <time>2012-12-29T08:58:57.000Z</time>
      </trkpt>
      <trkpt lat="43.24557" lon="-0.24188">
        <ele>315.60000610352</ele>
        <time>2012-12-29T08:58:58.000Z</time>
      </trkpt>
      <trkpt lat="43.24554" lon="-0.24193">
        <ele>315.20001220703</ele>
        <time>2012-12-29T08:58:59.000Z</time>
      </trkpt>
      <trkpt lat="43.24552" lon="-0.242">
        <ele>314.60000610352</ele>
        <time>2012-12-29T08:59:00.000Z</time>
      </trkpt>
      <trkpt lat="43.2455" lon="-0.24206">
        <ele>314.20001220703</ele>
        <time>2012-12-29T08:59:01.000Z</time>
      </trkpt>
      <trkpt lat="43.24549" lon="-0.24219">
        <ele>314.20001220703</ele>
        <time>2012-12-29T08:59:02.000Z</time>
      </trkpt>
      <trkpt lat="43.2455" lon="-0.24238">
        <ele>314.20001220703</ele>
        <time>2012-12-29T08:59:04.000Z</time>
      </trkpt>
      <trkpt lat="43.24552" lon="-0.24244">
        <ele>313.60000610352</ele>
        <time>2012-12-29T08:59:05.000Z</time>
      </trkpt>
      <trkpt lat="43.24554" lon="-0.24247">
        <ele>313.20001220703</ele>
        <time>2012-12-29T08:59:06.000Z</time>
      </trkpt>
      <trkpt lat="43.24555" lon="-0.24248">
        <ele>312.60000610352</ele>
        <time>2012-12-29T08:59:07.000Z</time>
      </trkpt>
      <trkpt lat="43.24557" lon="-0.24251">
        <ele>312.20001220703</ele>
        <time>2012-12-29T08:59:08.000Z</time>
      </trkpt>
      <trkpt lat="43.2456" lon="-0.24254">
        <ele>311.60000610352</ele>
        <time>2012-12-29T08:59:09.000Z</time>
      </trkpt>
      <trkpt lat="43.24572" lon="-0.24259">
        <ele>311.60000610352</ele>
        <time>2012-12-29T08:59:14.000Z</time>
      </trkpt>
      <trkpt lat="43.24576" lon="-0.24261">
        <ele>312.20001220703</ele>
        <time>2012-12-29T08:59:16.000Z</time>
      </trkpt>
      <trkpt lat="43.24577" lon="-0.24261">
        <ele>312.60000610352</ele>
        <time>2012-12-29T08:59:17.000Z</time>
      </trkpt>
      <trkpt lat="43.24579" lon="-0.24262">
        <ele>313.20001220703</ele>
        <time>2012-12-29T08:59:18.000Z</time>
      </trkpt>
      <trkpt lat="43.2458" lon="-0.24263">
        <ele>313.60000610352</ele>
        <time>2012-12-29T08:59:19.000Z</time>
      </trkpt>
      <trkpt lat="43.24581" lon="-0.24263">
        <ele>314.20001220703</ele>
        <time>2012-12-29T08:59:20.000Z</time>
      </trkpt>
      <trkpt lat="43.24586" lon="-0.24267">
        <ele>314.20001220703</ele>
        <time>2012-12-29T08:59:25.000Z</time>
      </trkpt>
      <trkpt lat="43.24589" lon="-0.24273">
        <ele>314.60000610352</ele>
        <time>2012-12-29T08:59:29.000Z</time>
      </trkpt>
      <trkpt lat="43.2459" lon="-0.24274">
        <ele>315.20001220703</ele>
        <time>2012-12-29T08:59:30.000Z</time>
      </trkpt>
      <trkpt lat="43.24591" lon="-0.24275">
        <ele>315.60000610352</ele>
        <time>2012-12-29T08:59:31.000Z</time>
      </trkpt>
      <trkpt lat="43.24592" lon="-0.24276">
        <ele>316.20001220703</ele>
        <time>2012-12-29T08:59:32.000Z</time>
      </trkpt>
      <trkpt lat="43.24592" lon="-0.24276">
        <ele>316.60000610352</ele>
        <time>2012-12-29T08:59:33.000Z</time>
      </trkpt>
      <trkpt lat="43.24593" lon="-0.24277">
        <ele>317</ele>
        <time>2012-12-29T08:59:34.000Z</time>
      </trkpt>
      <trkpt lat="43.24594" lon="-0.24278">
        <ele>317.20001220703</ele>
        <time>2012-12-29T08:59:35.000Z</time>
      </trkpt>
      <trkpt lat="43.24595" lon="-0.24279">
        <ele>317.60000610352</ele>
        <time>2012-12-29T08:59:36.000Z</time>
      </trkpt>
      <trkpt lat="43.24597" lon="-0.24279">
        <ele>318.20001220703</ele>
        <time>2012-12-29T08:59:37.000Z</time>
      </trkpt>
      <trkpt lat="43.24598" lon="-0.2428">
        <ele>318.60000610352</ele>
        <time>2012-12-29T08:59:38.000Z</time>
      </trkpt>
      <trkpt lat="43.24607" lon="-0.24286">
        <ele>318.60000610352</ele>
        <time>2012-12-29T08:59:45.000Z</time>
      </trkpt>
      <trkpt lat="43.24612" lon="-0.24298">
        <ele>318.60000610352</ele>
        <time>2012-12-29T08:59:50.000Z</time>
      </trkpt>
      <trkpt lat="43.24612" lon="-0.24301">
        <ele>319.20001220703</ele>
        <time>2012-12-29T08:59:51.000Z</time>
      </trkpt>
      <trkpt lat="43.24612" lon="-0.24303">
        <ele>319.60000610352</ele>
        <time>2012-12-29T08:59:52.000Z</time>
      </trkpt>
      <trkpt lat="43.24612" lon="-0.24305">
        <ele>320</ele>
        <time>2012-12-29T08:59:53.000Z</time>
      </trkpt>
      <trkpt lat="43.24612" lon="-0.24308">
        <ele>320.20001220703</ele>
        <time>2012-12-29T08:59:54.000Z</time>
      </trkpt>
      <trkpt lat="43.24612" lon="-0.2431">
        <ele>320.60000610352</ele>
        <time>2012-12-29T08:59:55.000Z</time>
      </trkpt>
      <trkpt lat="43.24613" lon="-0.2432">
        <ele>320.60000610352</ele>
        <time>2012-12-29T08:59:59.000Z</time>
      </trkpt>
      <trkpt lat="43.24614" lon="-0.24325">
        <ele>320.60000610352</ele>
        <time>2012-12-29T09:00:01.000Z</time>
      </trkpt>
      <trkpt lat="43.24613" lon="-0.24336">
        <ele>320.60000610352</ele>
        <time>2012-12-29T09:00:06.000Z</time>
      </trkpt>
      <trkpt lat="43.24615" lon="-0.24343">
        <ele>320.60000610352</ele>
        <time>2012-12-29T09:00:10.000Z</time>
      </trkpt>
      <trkpt lat="43.24622" lon="-0.24357">
        <ele>320.60000610352</ele>
        <time>2012-12-29T09:00:15.000Z</time>
      </trkpt>
      <trkpt lat="43.24627" lon="-0.24367">
        <ele>321.20001220703</ele>
        <time>2012-12-29T09:00:20.000Z</time>
      </trkpt>
      <trkpt lat="43.24628" lon="-0.2437">
        <ele>321.60000610352</ele>
        <time>2012-12-29T09:00:21.000Z</time>
      </trkpt>
      <trkpt lat="43.24629" lon="-0.24371">
        <ele>322</ele>
        <time>2012-12-29T09:00:22.000Z</time>
      </trkpt>
      <trkpt lat="43.2463" lon="-0.24373">
        <ele>322.20001220703</ele>
        <time>2012-12-29T09:00:23.000Z</time>
      </trkpt>
      <trkpt lat="43.2463" lon="-0.24376">
        <ele>322.60000610352</ele>
        <time>2012-12-29T09:00:24.000Z</time>
      </trkpt>
      <trkpt lat="43.24633" lon="-0.24382">
        <ele>322.60000610352</ele>
        <time>2012-12-29T09:00:27.000Z</time>
      </trkpt>
      <trkpt lat="43.24639" lon="-0.2439">
        <ele>323.20001220703</ele>
        <time>2012-12-29T09:00:32.000Z</time>
      </trkpt>
      <trkpt lat="43.24639" lon="-0.24391">
        <ele>323.60000610352</ele>
        <time>2012-12-29T09:00:33.000Z</time>
      </trkpt>
      <trkpt lat="43.2464" lon="-0.24393">
        <ele>324</ele>
        <time>2012-12-29T09:00:34.000Z</time>
      </trkpt>
      <trkpt lat="43.2464" lon="-0.24394">
        <ele>324.20001220703</ele>
        <time>2012-12-29T09:00:35.000Z</time>
      </trkpt>
      <trkpt lat="43.24641" lon="-0.24395">
        <ele>325</ele>
        <time>2012-12-29T09:00:36.000Z</time>
      </trkpt>
      <trkpt lat="43.24643" lon="-0.24398">
        <ele>325.20001220703</ele>
        <time>2012-12-29T09:00:38.000Z</time>
      </trkpt>
      <trkpt lat="43.24644" lon="-0.24399">
        <ele>325.60000610352</ele>
        <time>2012-12-29T09:00:39.000Z</time>
      </trkpt>
      <trkpt lat="43.24645" lon="-0.24399">
        <ele>326.20001220703</ele>
        <time>2012-12-29T09:00:40.000Z</time>
      </trkpt>
      <trkpt lat="43.24646" lon="-0.244">
        <ele>326.60000610352</ele>
        <time>2012-12-29T09:00:41.000Z</time>
      </trkpt>
      <trkpt lat="43.24648" lon="-0.24401">
        <ele>327</ele>
        <time>2012-12-29T09:00:42.000Z</time>
      </trkpt>
      <trkpt lat="43.24652" lon="-0.24402">
        <ele>327</ele>
        <time>2012-12-29T09:00:45.000Z</time>
      </trkpt>
      <trkpt lat="43.24658" lon="-0.24403">
        <ele>327</ele>
        <time>2012-12-29T09:00:48.000Z</time>
      </trkpt>
      <trkpt lat="43.24664" lon="-0.24406">
        <ele>327.20001220703</ele>
        <time>2012-12-29T09:00:52.000Z</time>
      </trkpt>
      <trkpt lat="43.24666" lon="-0.24406">
        <ele>328</ele>
        <time>2012-12-29T09:00:53.000Z</time>
      </trkpt>
      <trkpt lat="43.24667" lon="-0.24406">
        <ele>328.20001220703</ele>
        <time>2012-12-29T09:00:54.000Z</time>
      </trkpt>
      <trkpt lat="43.24668" lon="-0.24408">
        <ele>328.60000610352</ele>
        <time>2012-12-29T09:00:55.000Z</time>
      </trkpt>
      <trkpt lat="43.2467" lon="-0.24409">
        <ele>329.20001220703</ele>
        <time>2012-12-29T09:00:56.000Z</time>
      </trkpt>
      <trkpt lat="43.24673" lon="-0.24411">
        <ele>329.20001220703</ele>
        <time>2012-12-29T09:00:58.000Z</time>
      </trkpt>
      <trkpt lat="43.24674" lon="-0.24412">
        <ele>329.60000610352</ele>
        <time>2012-12-29T09:00:59.000Z</time>
      </trkpt>
      <trkpt lat="43.24675" lon="-0.24412">
        <ele>330.20001220703</ele>
        <time>2012-12-29T09:01:00.000Z</time>
      </trkpt>
      <trkpt lat="43.24676" lon="-0.24413">
        <ele>330.60000610352</ele>
        <time>2012-12-29T09:01:01.000Z</time>
      </trkpt>
      <trkpt lat="43.24677" lon="-0.24413">
        <ele>331.20001220703</ele>
        <time>2012-12-29T09:01:02.000Z</time>
      </trkpt>
      <trkpt lat="43.24678" lon="-0.24413">
        <ele>331.60000610352</ele>
        <time>2012-12-29T09:01:03.000Z</time>
      </trkpt>
      <trkpt lat="43.24682" lon="-0.24416">
        <ele>331.60000610352</ele>
        <time>2012-12-29T09:01:06.000Z</time>
      </trkpt>
      <trkpt lat="43.24683" lon="-0.24417">
        <ele>332</ele>
        <time>2012-12-29T09:01:07.000Z</time>
      </trkpt>
      <trkpt lat="43.24684" lon="-0.24417">
        <ele>332.20001220703</ele>
        <time>2012-12-29T09:01:08.000Z</time>
      </trkpt>
      <trkpt lat="43.24686" lon="-0.24418">
        <ele>332.60000610352</ele>
        <time>2012-12-29T09:01:09.000Z</time>
      </trkpt>
      <trkpt lat="43.24688" lon="-0.24418">
        <ele>333.20001220703</ele>
        <time>2012-12-29T09:01:10.000Z</time>
      </trkpt>
      <trkpt lat="43.24689" lon="-0.24418">
        <ele>333.60000610352</ele>
        <time>2012-12-29T09:01:11.000Z</time>
      </trkpt>
      <trkpt lat="43.24693" lon="-0.24417">
        <ele>334.20001220703</ele>
        <time>2012-12-29T09:01:15.000Z</time>
      </trkpt>
      <trkpt lat="43.24693" lon="-0.24417">
        <ele>334.60000610352</ele>
        <time>2012-12-29T09:01:16.000Z</time>
      </trkpt>
      <trkpt lat="43.24694" lon="-0.24416">
        <ele>335</ele>
        <time>2012-12-29T09:01:17.000Z</time>
      </trkpt>
      <trkpt lat="43.24695" lon="-0.24415">
        <ele>335.20001220703</ele>
        <time>2012-12-29T09:01:18.000Z</time>
      </trkpt>
      <trkpt lat="43.24695" lon="-0.24413">
        <ele>335.60000610352</ele>
        <time>2012-12-29T09:01:19.000Z</time>
      </trkpt>
      <trkpt lat="43.247" lon="-0.24406">
        <ele>336.20001220703</ele>
        <time>2012-12-29T09:01:25.000Z</time>
      </trkpt>
      <trkpt lat="43.24701" lon="-0.24404">
        <ele>336.60000610352</ele>
        <time>2012-12-29T09:01:26.000Z</time>
      </trkpt>
      <trkpt lat="43.24701" lon="-0.24403">
        <ele>337.20001220703</ele>
        <time>2012-12-29T09:01:27.000Z</time>
      </trkpt>
      <trkpt lat="43.24702" lon="-0.24402">
        <ele>337.60000610352</ele>
        <time>2012-12-29T09:01:28.000Z</time>
      </trkpt>
      <trkpt lat="43.24702" lon="-0.24402">
        <ele>338.20001220703</ele>
        <time>2012-12-29T09:01:29.000Z</time>
      </trkpt>
      <trkpt lat="43.24703" lon="-0.24402">
        <ele>338.20001220703</ele>
        <time>2012-12-29T09:01:30.000Z</time>
      </trkpt>
      <trkpt lat="43.24724" lon="-0.24406">
        <ele>340.20001220703</ele>
        <time>2012-12-29T09:03:52.000Z</time>
      </trkpt>
      <trkpt lat="43.24727" lon="-0.24407">
        <ele>340.20001220703</ele>
        <time>2012-12-29T09:03:54.000Z</time>
      </trkpt>
      <trkpt lat="43.24735" lon="-0.24412">
        <ele>340.20001220703</ele>
        <time>2012-12-29T09:04:03.000Z</time>
      </trkpt>
      <trkpt lat="43.24735" lon="-0.24412">
        <ele>340.20001220703</ele>
        <time>2012-12-29T09:04:04.000Z</time>
      </trkpt>
      <trkpt lat="43.24711" lon="-0.24409">
        <ele>342.60000610352</ele>
        <time>2012-12-29T09:08:34.000Z</time>
      </trkpt>
      <trkpt lat="43.24713" lon="-0.24415">
        <ele>342.60000610352</ele>
        <time>2012-12-29T09:08:36.000Z</time>
      </trkpt>
      <trkpt lat="43.24714" lon="-0.24418">
        <ele>343</ele>
        <time>2012-12-29T09:08:37.000Z</time>
      </trkpt>
      <trkpt lat="43.24715" lon="-0.24421">
        <ele>343.60000610352</ele>
        <time>2012-12-29T09:08:38.000Z</time>
      </trkpt>
      <trkpt lat="43.24716" lon="-0.24424">
        <ele>344</ele>
        <time>2012-12-29T09:08:39.000Z</time>
      </trkpt>
      <trkpt lat="43.24716" lon="-0.24428">
        <ele>344.20001220703</ele>
        <time>2012-12-29T09:08:40.000Z</time>
      </trkpt>
      <trkpt lat="43.24717" lon="-0.24431">
        <ele>344.60000610352</ele>
        <time>2012-12-29T09:08:41.000Z</time>
      </trkpt>
      <trkpt lat="43.24722" lon="-0.24449">
        <ele>344.60000610352</ele>
        <time>2012-12-29T09:08:46.000Z</time>
      </trkpt>
      <trkpt lat="43.24723" lon="-0.24456">
        <ele>345.20001220703</ele>
        <time>2012-12-29T09:08:48.000Z</time>
      </trkpt>
      <trkpt lat="43.24724" lon="-0.2446">
        <ele>345.60000610352</ele>
        <time>2012-12-29T09:08:49.000Z</time>
      </trkpt>
      <trkpt lat="43.24725" lon="-0.24464">
        <ele>346.20001220703</ele>
        <time>2012-12-29T09:08:50.000Z</time>
      </trkpt>
      <trkpt lat="43.24726" lon="-0.24467">
        <ele>346.60000610352</ele>
        <time>2012-12-29T09:08:51.000Z</time>
      </trkpt>
      <trkpt lat="43.24727" lon="-0.24471">
        <ele>347</ele>
        <time>2012-12-29T09:08:52.000Z</time>
      </trkpt>
      <trkpt lat="43.24731" lon="-0.24486">
        <ele>347</ele>
        <time>2012-12-29T09:08:56.000Z</time>
      </trkpt>
      <trkpt lat="43.24732" lon="-0.24489">
        <ele>347.20001220703</ele>
        <time>2012-12-29T09:08:57.000Z</time>
      </trkpt>
      <trkpt lat="43.24733" lon="-0.24492">
        <ele>348</ele>
        <time>2012-12-29T09:08:58.000Z</time>
      </trkpt>
      <trkpt lat="43.24735" lon="-0.24496">
        <ele>348.20001220703</ele>
        <time>2012-12-29T09:08:59.000Z</time>
      </trkpt>
      <trkpt lat="43.24736" lon="-0.245">
        <ele>348.60000610352</ele>
        <time>2012-12-29T09:09:00.000Z</time>
      </trkpt>
      <trkpt lat="43.24738" lon="-0.24503">
        <ele>349.20001220703</ele>
        <time>2012-12-29T09:09:01.000Z</time>
      </trkpt>
      <trkpt lat="43.24745" lon="-0.24517">
        <ele>349.60000610352</ele>
        <time>2012-12-29T09:09:05.000Z</time>
      </trkpt>
      <trkpt lat="43.24747" lon="-0.2452">
        <ele>350</ele>
        <time>2012-12-29T09:09:06.000Z</time>
      </trkpt>
      <trkpt lat="43.2475" lon="-0.24524">
        <ele>350.20001220703</ele>
        <time>2012-12-29T09:09:07.000Z</time>
      </trkpt>
      <trkpt lat="43.24752" lon="-0.24527">
        <ele>350.60000610352</ele>
        <time>2012-12-29T09:09:08.000Z</time>
      </trkpt>
      <trkpt lat="43.24755" lon="-0.2453">
        <ele>351.20001220703</ele>
        <time>2012-12-29T09:09:09.000Z</time>
      </trkpt>
      <trkpt lat="43.2476" lon="-0.24534">
        <ele>351.20001220703</ele>
        <time>2012-12-29T09:09:11.000Z</time>
      </trkpt>
      <trkpt lat="43.24771" lon="-0.24541">
        <ele>351.20001220703</ele>
        <time>2012-12-29T09:09:15.000Z</time>
      </trkpt>
      <trkpt lat="43.24773" lon="-0.24542">
        <ele>351.20001220703</ele>
        <time>2012-12-29T09:09:16.000Z</time>
      </trkpt>
      <trkpt lat="43.2478" lon="-0.24546">
        <ele>351.20001220703</ele>
        <time>2012-12-29T09:09:18.000Z</time>
      </trkpt>
      <trkpt lat="43.24793" lon="-0.24576">
        <ele>351.20001220703</ele>
        <time>2012-12-29T09:09:21.000Z</time>
      </trkpt>
      <trkpt lat="43.24798" lon="-0.24591">
        <ele>350.60000610352</ele>
        <time>2012-12-29T09:09:23.000Z</time>
      </trkpt>
      <trkpt lat="43.24801" lon="-0.24599">
        <ele>350.20001220703</ele>
        <time>2012-12-29T09:09:24.000Z</time>
      </trkpt>
      <trkpt lat="43.24804" lon="-0.24607">
        <ele>350</ele>
        <time>2012-12-29T09:09:25.000Z</time>
      </trkpt>
      <trkpt lat="43.24807" lon="-0.24613">
        <ele>349.20001220703</ele>
        <time>2012-12-29T09:09:26.000Z</time>
      </trkpt>
      <trkpt lat="43.24807" lon="-0.24612">
        <ele>349</ele>
        <time>2012-12-29T09:09:27.000Z</time>
      </trkpt>
      <trkpt lat="43.2482" lon="-0.24639">
        <ele>349</ele>
        <time>2012-12-29T09:09:30.000Z</time>
      </trkpt>
      <trkpt lat="43.24823" lon="-0.24646">
        <ele>349</ele>
        <time>2012-12-29T09:09:31.000Z</time>
      </trkpt>
      <trkpt lat="43.24832" lon="-0.24666">
        <ele>349</ele>
        <time>2012-12-29T09:09:35.000Z</time>
      </trkpt>
      <trkpt lat="43.24835" lon="-0.2467">
        <ele>349</ele>
        <time>2012-12-29T09:09:36.000Z</time>
      </trkpt>
      <trkpt lat="43.24845" lon="-0.24688">
        <ele>349</ele>
        <time>2012-12-29T09:09:39.000Z</time>
      </trkpt>
      <trkpt lat="43.24851" lon="-0.24702">
        <ele>348.60000610352</ele>
        <time>2012-12-29T09:09:41.000Z</time>
      </trkpt>
      <trkpt lat="43.24854" lon="-0.24709">
        <ele>348.20001220703</ele>
        <time>2012-12-29T09:09:42.000Z</time>
      </trkpt>
      <trkpt lat="43.24858" lon="-0.24715">
        <ele>347.60000610352</ele>
        <time>2012-12-29T09:09:43.000Z</time>
      </trkpt>
      <trkpt lat="43.2486" lon="-0.24721">
        <ele>347.20001220703</ele>
        <time>2012-12-29T09:09:44.000Z</time>
      </trkpt>
      <trkpt lat="43.24863" lon="-0.24727">
        <ele>347</ele>
        <time>2012-12-29T09:09:45.000Z</time>
      </trkpt>
      <trkpt lat="43.24866" lon="-0.24731">
        <ele>347</ele>
        <time>2012-12-29T09:09:46.000Z</time>
      </trkpt>
      <trkpt lat="43.24869" lon="-0.24735">
        <ele>347</ele>
        <time>2012-12-29T09:09:47.000Z</time>
      </trkpt>
      <trkpt lat="43.24882" lon="-0.24743">
        <ele>347</ele>
        <time>2012-12-29T09:09:50.000Z</time>
      </trkpt>
      <trkpt lat="43.24893" lon="-0.2476">
        <ele>347</ele>
        <time>2012-12-29T09:09:54.000Z</time>
      </trkpt>
      <trkpt lat="43.24894" lon="-0.24763">
        <ele>346.60000610352</ele>
        <time>2012-12-29T09:09:55.000Z</time>
      </trkpt>
      <trkpt lat="43.24894" lon="-0.24769">
        <ele>346.20001220703</ele>
        <time>2012-12-29T09:09:56.000Z</time>
      </trkpt>
      <trkpt lat="43.24894" lon="-0.24775">
        <ele>345.60000610352</ele>
        <time>2012-12-29T09:09:57.000Z</time>
      </trkpt>
      <trkpt lat="43.24893" lon="-0.24783">
        <ele>344.60000610352</ele>
        <time>2012-12-29T09:09:58.000Z</time>
      </trkpt>
      <trkpt lat="43.24893" lon="-0.24792">
        <ele>344.20001220703</ele>
        <time>2012-12-29T09:09:59.000Z</time>
      </trkpt>
      <trkpt lat="43.24893" lon="-0.24801">
        <ele>343.20001220703</ele>
        <time>2012-12-29T09:10:00.000Z</time>
      </trkpt>
      <trkpt lat="43.24894" lon="-0.24811">
        <ele>342.60000610352</ele>
        <time>2012-12-29T09:10:01.000Z</time>
      </trkpt>
      <trkpt lat="43.24896" lon="-0.24822">
        <ele>341.60000610352</ele>
        <time>2012-12-29T09:10:02.000Z</time>
      </trkpt>
      <trkpt lat="43.24898" lon="-0.24832">
        <ele>341</ele>
        <time>2012-12-29T09:10:03.000Z</time>
      </trkpt>
      <trkpt lat="43.24899" lon="-0.24841">
        <ele>340.20001220703</ele>
        <time>2012-12-29T09:10:04.000Z</time>
      </trkpt>
      <trkpt lat="43.24901" lon="-0.24849">
        <ele>339.20001220703</ele>
        <time>2012-12-29T09:10:05.000Z</time>
      </trkpt>
      <trkpt lat="43.24898" lon="-0.24871">
        <ele>339.20001220703</ele>
        <time>2012-12-29T09:10:08.000Z</time>
      </trkpt>
      <trkpt lat="43.24899" lon="-0.24875">
        <ele>339.20001220703</ele>
        <time>2012-12-29T09:10:09.000Z</time>
      </trkpt>
      <trkpt lat="43.2491" lon="-0.24884">
        <ele>339.20001220703</ele>
        <time>2012-12-29T09:10:12.000Z</time>
      </trkpt>
      <trkpt lat="43.24913" lon="-0.24889">
        <ele>339.20001220703</ele>
        <time>2012-12-29T09:10:13.000Z</time>
      </trkpt>
      <trkpt lat="43.24927" lon="-0.24907">
        <ele>339.20001220703</ele>
        <time>2012-12-29T09:10:18.000Z</time>
      </trkpt>
      <trkpt lat="43.24934" lon="-0.24916">
        <ele>339.20001220703</ele>
        <time>2012-12-29T09:10:21.000Z</time>
      </trkpt>
      <trkpt lat="43.24938" lon="-0.24918">
        <ele>339.20001220703</ele>
        <time>2012-12-29T09:10:22.000Z</time>
      </trkpt>
      <trkpt lat="43.24961" lon="-0.24926">
        <ele>339.20001220703</ele>
        <time>2012-12-29T09:10:27.000Z</time>
      </trkpt>
      <trkpt lat="43.2497" lon="-0.24924">
        <ele>339.20001220703</ele>
        <time>2012-12-29T09:10:30.000Z</time>
      </trkpt>
      <trkpt lat="43.24972" lon="-0.24914">
        <ele>339.20001220703</ele>
        <time>2012-12-29T09:10:34.000Z</time>
      </trkpt>
      <trkpt lat="43.24974" lon="-0.24907">
        <ele>339.20001220703</ele>
        <time>2012-12-29T09:10:39.000Z</time>
      </trkpt>
      <trkpt lat="43.24974" lon="-0.24903">
        <ele>339.20001220703</ele>
        <time>2012-12-29T09:10:43.000Z</time>
      </trkpt>
      <trkpt lat="43.24974" lon="-0.24901">
        <ele>339.20001220703</ele>
        <time>2012-12-29T09:10:44.000Z</time>
      </trkpt>
      <trkpt lat="43.24972" lon="-0.24894">
        <ele>339.60000610352</ele>
        <time>2012-12-29T09:10:47.000Z</time>
      </trkpt>
      <trkpt lat="43.24971" lon="-0.24891">
        <ele>340.20001220703</ele>
        <time>2012-12-29T09:10:48.000Z</time>
      </trkpt>
      <trkpt lat="43.2497" lon="-0.24888">
        <ele>340.60000610352</ele>
        <time>2012-12-29T09:10:49.000Z</time>
      </trkpt>
      <trkpt lat="43.24968" lon="-0.24885">
        <ele>341.20001220703</ele>
        <time>2012-12-29T09:10:50.000Z</time>
      </trkpt>
      <trkpt lat="43.24967" lon="-0.24881">
        <ele>341.60000610352</ele>
        <time>2012-12-29T09:10:51.000Z</time>
      </trkpt>
      <trkpt lat="43.24966" lon="-0.24878">
        <ele>342.20001220703</ele>
        <time>2012-12-29T09:10:52.000Z</time>
      </trkpt>
      <trkpt lat="43.24965" lon="-0.24875">
        <ele>342.60000610352</ele>
        <time>2012-12-29T09:10:53.000Z</time>
      </trkpt>
      <trkpt lat="43.24964" lon="-0.24872">
        <ele>343.20001220703</ele>
        <time>2012-12-29T09:10:54.000Z</time>
      </trkpt>
      <trkpt lat="43.24963" lon="-0.2487">
        <ele>343.60000610352</ele>
        <time>2012-12-29T09:10:55.000Z</time>
      </trkpt>
      <trkpt lat="43.24963" lon="-0.24868">
        <ele>344.20001220703</ele>
        <time>2012-12-29T09:10:56.000Z</time>
      </trkpt>
      <trkpt lat="43.24963" lon="-0.24868">
        <ele>344.20001220703</ele>
        <time>2012-12-29T09:10:57.000Z</time>
      </trkpt>
      <trkpt lat="43.24972" lon="-0.24818">
        <ele>346.20001220703</ele>
        <time>2012-12-29T09:13:14.000Z</time>
      </trkpt>
      <trkpt lat="43.24974" lon="-0.24817">
        <ele>346.20001220703</ele>
        <time>2012-12-29T09:13:15.000Z</time>
      </trkpt>
      <trkpt lat="43.24981" lon="-0.24809">
        <ele>346.20001220703</ele>
        <time>2012-12-29T09:13:18.000Z</time>
      </trkpt>
      <trkpt lat="43.24985" lon="-0.24805">
        <ele>346.20001220703</ele>
        <time>2012-12-29T09:13:20.000Z</time>
      </trkpt>
      <trkpt lat="43.24987" lon="-0.24802">
        <ele>345.60000610352</ele>
        <time>2012-12-29T09:13:21.000Z</time>
      </trkpt>
      <trkpt lat="43.24987" lon="-0.248">
        <ele>345.20001220703</ele>
        <time>2012-12-29T09:13:22.000Z</time>
      </trkpt>
      <trkpt lat="43.24989" lon="-0.24797">
        <ele>344.60000610352</ele>
        <time>2012-12-29T09:13:23.000Z</time>
      </trkpt>
      <trkpt lat="43.24991" lon="-0.24794">
        <ele>344.20001220703</ele>
        <time>2012-12-29T09:13:24.000Z</time>
      </trkpt>
      <trkpt lat="43.24992" lon="-0.24791">
        <ele>344</ele>
        <time>2012-12-29T09:13:25.000Z</time>
      </trkpt>
      <trkpt lat="43.24993" lon="-0.24788">
        <ele>344</ele>
        <time>2012-12-29T09:13:26.000Z</time>
      </trkpt>
      <trkpt lat="43.24994" lon="-0.24774">
        <ele>344</ele>
        <time>2012-12-29T09:13:30.000Z</time>
      </trkpt>
      <trkpt lat="43.24992" lon="-0.24764">
        <ele>344.20001220703</ele>
        <time>2012-12-29T09:13:33.000Z</time>
      </trkpt>
      <trkpt lat="43.24992" lon="-0.2476">
        <ele>344.60000610352</ele>
        <time>2012-12-29T09:13:34.000Z</time>
      </trkpt>
      <trkpt lat="43.24991" lon="-0.24757">
        <ele>345.20001220703</ele>
        <time>2012-12-29T09:13:35.000Z</time>
      </trkpt>
      <trkpt lat="43.24992" lon="-0.24755">
        <ele>345.60000610352</ele>
        <time>2012-12-29T09:13:36.000Z</time>
      </trkpt>
      <trkpt lat="43.24991" lon="-0.24751">
        <ele>346</ele>
        <time>2012-12-29T09:13:37.000Z</time>
      </trkpt>
      <trkpt lat="43.2499" lon="-0.24748">
        <ele>346</ele>
        <time>2012-12-29T09:13:38.000Z</time>
      </trkpt>
      <trkpt lat="43.24989" lon="-0.24734">
        <ele>346</ele>
        <time>2012-12-29T09:13:42.000Z</time>
      </trkpt>
      <trkpt lat="43.24989" lon="-0.24729">
        <ele>346</ele>
        <time>2012-12-29T09:13:44.000Z</time>
      </trkpt>
      <trkpt lat="43.24988" lon="-0.24727">
        <ele>346</ele>
        <time>2012-12-29T09:13:45.000Z</time>
      </trkpt>
      <trkpt lat="43.24984" lon="-0.24722">
        <ele>346</ele>
        <time>2012-12-29T09:13:49.000Z</time>
      </trkpt>
      <trkpt lat="43.24982" lon="-0.24721">
        <ele>346</ele>
        <time>2012-12-29T09:13:50.000Z</time>
      </trkpt>
      <trkpt lat="43.24981" lon="-0.2472">
        <ele>346.20001220703</ele>
        <time>2012-12-29T09:13:51.000Z</time>
      </trkpt>
      <trkpt lat="43.2498" lon="-0.24719">
        <ele>347</ele>
        <time>2012-12-29T09:13:52.000Z</time>
      </trkpt>
      <trkpt lat="43.24979" lon="-0.24717">
        <ele>348</ele>
        <time>2012-12-29T09:13:53.000Z</time>
      </trkpt>
      <trkpt lat="43.24979" lon="-0.24714">
        <ele>348.20001220703</ele>
        <time>2012-12-29T09:13:54.000Z</time>
      </trkpt>
      <trkpt lat="43.2498" lon="-0.24706">
        <ele>348.60000610352</ele>
        <time>2012-12-29T09:13:57.000Z</time>
      </trkpt>
      <trkpt lat="43.2498" lon="-0.24704">
        <ele>349.20001220703</ele>
        <time>2012-12-29T09:13:58.000Z</time>
      </trkpt>
      <trkpt lat="43.2498" lon="-0.24702">
        <ele>349.60000610352</ele>
        <time>2012-12-29T09:13:59.000Z</time>
      </trkpt>
      <trkpt lat="43.24979" lon="-0.24699">
        <ele>349.60000610352</ele>
        <time>2012-12-29T09:14:00.000Z</time>
      </trkpt>
      <trkpt lat="43.24977" lon="-0.24696">
        <ele>350.60000610352</ele>
        <time>2012-12-29T09:14:01.000Z</time>
      </trkpt>
      <trkpt lat="43.24975" lon="-0.24693">
        <ele>350.60000610352</ele>
        <time>2012-12-29T09:14:02.000Z</time>
      </trkpt>
      <trkpt lat="43.2497" lon="-0.24685">
        <ele>351</ele>
        <time>2012-12-29T09:14:05.000Z</time>
      </trkpt>
      <trkpt lat="43.2497" lon="-0.24683">
        <ele>351.20001220703</ele>
        <time>2012-12-29T09:14:06.000Z</time>
      </trkpt>
      <trkpt lat="43.2497" lon="-0.24681">
        <ele>352</ele>
        <time>2012-12-29T09:14:07.000Z</time>
      </trkpt>
      <trkpt lat="43.2497" lon="-0.24678">
        <ele>352.20001220703</ele>
        <time>2012-12-29T09:14:08.000Z</time>
      </trkpt>
      <trkpt lat="43.2497" lon="-0.24677">
        <ele>353</ele>
        <time>2012-12-29T09:14:09.000Z</time>
      </trkpt>
      <trkpt lat="43.2497" lon="-0.24673">
        <ele>353</ele>
        <time>2012-12-29T09:14:11.000Z</time>
      </trkpt>
      <trkpt lat="43.24965" lon="-0.24655">
        <ele>353</ele>
        <time>2012-12-29T09:14:17.000Z</time>
      </trkpt>
      <trkpt lat="43.24964" lon="-0.24654">
        <ele>353</ele>
        <time>2012-12-29T09:14:18.000Z</time>
      </trkpt>
      <trkpt lat="43.24958" lon="-0.24646">
        <ele>353</ele>
        <time>2012-12-29T09:14:21.000Z</time>
      </trkpt>
      <trkpt lat="43.24956" lon="-0.24642">
        <ele>353</ele>
        <time>2012-12-29T09:14:22.000Z</time>
      </trkpt>
      <trkpt lat="43.24945" lon="-0.24626">
        <ele>353</ele>
        <time>2012-12-29T09:14:26.000Z</time>
      </trkpt>
      <trkpt lat="43.24943" lon="-0.24621">
        <ele>353</ele>
        <time>2012-12-29T09:14:27.000Z</time>
      </trkpt>
      <trkpt lat="43.24938" lon="-0.2461">
        <ele>353</ele>
        <time>2012-12-29T09:14:30.000Z</time>
      </trkpt>
      <trkpt lat="43.24933" lon="-0.24596">
        <ele>353</ele>
        <time>2012-12-29T09:14:34.000Z</time>
      </trkpt>
      <trkpt lat="43.24927" lon="-0.24584">
        <ele>353</ele>
        <time>2012-12-29T09:14:39.000Z</time>
      </trkpt>
      <trkpt lat="43.24919" lon="-0.2457">
        <ele>353</ele>
        <time>2012-12-29T09:14:44.000Z</time>
      </trkpt>
      <trkpt lat="43.24912" lon="-0.24554">
        <ele>353</ele>
        <time>2012-12-29T09:14:48.000Z</time>
      </trkpt>
      <trkpt lat="43.2491" lon="-0.24545">
        <ele>353</ele>
        <time>2012-12-29T09:14:50.000Z</time>
      </trkpt>
      <trkpt lat="43.2491" lon="-0.2453">
        <ele>353</ele>
        <time>2012-12-29T09:14:54.000Z</time>
      </trkpt>
      <trkpt lat="43.2491" lon="-0.24511">
        <ele>353</ele>
        <time>2012-12-29T09:14:59.000Z</time>
      </trkpt>
      <trkpt lat="43.24905" lon="-0.24484">
        <ele>353</ele>
        <time>2012-12-29T09:15:06.000Z</time>
      </trkpt>
      <trkpt lat="43.24905" lon="-0.24482">
        <ele>353</ele>
        <time>2012-12-29T09:15:07.000Z</time>
      </trkpt>
      <trkpt lat="43.24905" lon="-0.2448">
        <ele>353</ele>
        <time>2012-12-29T09:15:09.000Z</time>
      </trkpt>
      <trkpt lat="43.24906" lon="-0.24478">
        <ele>353</ele>
        <time>2012-12-29T09:15:10.000Z</time>
      </trkpt>
      <trkpt lat="43.24906" lon="-0.24473">
        <ele>353.20001220703</ele>
        <time>2012-12-29T09:15:12.000Z</time>
      </trkpt>
      <trkpt lat="43.24906" lon="-0.2447">
        <ele>353.60000610352</ele>
        <time>2012-12-29T09:15:13.000Z</time>
      </trkpt>
      <trkpt lat="43.24905" lon="-0.24466">
        <ele>354.20001220703</ele>
        <time>2012-12-29T09:15:14.000Z</time>
      </trkpt>
      <trkpt lat="43.24904" lon="-0.24462">
        <ele>354.60000610352</ele>
        <time>2012-12-29T09:15:15.000Z</time>
      </trkpt>
      <trkpt lat="43.24903" lon="-0.24458">
        <ele>355.20001220703</ele>
        <time>2012-12-29T09:15:16.000Z</time>
      </trkpt>
      <trkpt lat="43.24901" lon="-0.2445">
        <ele>355.20001220703</ele>
        <time>2012-12-29T09:15:18.000Z</time>
      </trkpt>
      <trkpt lat="43.24902" lon="-0.24447">
        <ele>355.20001220703</ele>
        <time>2012-12-29T09:15:19.000Z</time>
      </trkpt>
      <trkpt lat="43.24908" lon="-0.24433">
        <ele>355.60000610352</ele>
        <time>2012-12-29T09:15:23.000Z</time>
      </trkpt>
      <trkpt lat="43.24909" lon="-0.24429">
        <ele>356.20001220703</ele>
        <time>2012-12-29T09:15:24.000Z</time>
      </trkpt>
      <trkpt lat="43.24909" lon="-0.24425">
        <ele>356.60000610352</ele>
        <time>2012-12-29T09:15:25.000Z</time>
      </trkpt>
      <trkpt lat="43.2491" lon="-0.24421">
        <ele>357.20001220703</ele>
        <time>2012-12-29T09:15:26.000Z</time>
      </trkpt>
      <trkpt lat="43.2491" lon="-0.24417">
        <ele>357.60000610352</ele>
        <time>2012-12-29T09:15:27.000Z</time>
      </trkpt>
      <trkpt lat="43.24911" lon="-0.24412">
        <ele>358.20001220703</ele>
        <time>2012-12-29T09:15:28.000Z</time>
      </trkpt>
      <trkpt lat="43.24912" lon="-0.24409">
        <ele>358.60000610352</ele>
        <time>2012-12-29T09:15:29.000Z</time>
      </trkpt>
      <trkpt lat="43.24913" lon="-0.24406">
        <ele>359.20001220703</ele>
        <time>2012-12-29T09:15:30.000Z</time>
      </trkpt>
      <trkpt lat="43.24913" lon="-0.24403">
        <ele>359.60000610352</ele>
        <time>2012-12-29T09:15:31.000Z</time>
      </trkpt>
      <trkpt lat="43.24908" lon="-0.24388">
        <ele>359.60000610352</ele>
        <time>2012-12-29T09:15:37.000Z</time>
      </trkpt>
      <trkpt lat="43.24905" lon="-0.2437">
        <ele>359.60000610352</ele>
        <time>2012-12-29T09:15:42.000Z</time>
      </trkpt>
      <trkpt lat="43.24905" lon="-0.24357">
        <ele>359.60000610352</ele>
        <time>2012-12-29T09:15:46.000Z</time>
      </trkpt>
      <trkpt lat="43.24907" lon="-0.24345">
        <ele>360.20001220703</ele>
        <time>2012-12-29T09:15:52.000Z</time>
      </trkpt>
      <trkpt lat="43.24907" lon="-0.24343">
        <ele>360.60000610352</ele>
        <time>2012-12-29T09:15:53.000Z</time>
      </trkpt>
      <trkpt lat="43.24906" lon="-0.2434">
        <ele>361</ele>
        <time>2012-12-29T09:15:54.000Z</time>
      </trkpt>
      <trkpt lat="43.24905" lon="-0.24337">
        <ele>361.20001220703</ele>
        <time>2012-12-29T09:15:55.000Z</time>
      </trkpt>
      <trkpt lat="43.24904" lon="-0.24335">
        <ele>361.60000610352</ele>
        <time>2012-12-29T09:15:56.000Z</time>
      </trkpt>
      <trkpt lat="43.24903" lon="-0.24332">
        <ele>361.60000610352</ele>
        <time>2012-12-29T09:15:57.000Z</time>
      </trkpt>
      <trkpt lat="43.24901" lon="-0.24318">
        <ele>361.60000610352</ele>
        <time>2012-12-29T09:16:02.000Z</time>
      </trkpt>
      <trkpt lat="43.24901" lon="-0.24312">
        <ele>362.20001220703</ele>
        <time>2012-12-29T09:16:04.000Z</time>
      </trkpt>
      <trkpt lat="43.24901" lon="-0.24309">
        <ele>362.60000610352</ele>
        <time>2012-12-29T09:16:05.000Z</time>
      </trkpt>
      <trkpt lat="43.24901" lon="-0.24306">
        <ele>363</ele>
        <time>2012-12-29T09:16:06.000Z</time>
      </trkpt>
      <trkpt lat="43.24901" lon="-0.24302">
        <ele>363.20001220703</ele>
        <time>2012-12-29T09:16:07.000Z</time>
      </trkpt>
      <trkpt lat="43.24901" lon="-0.243">
        <ele>363.60000610352</ele>
        <time>2012-12-29T09:16:08.000Z</time>
      </trkpt>
      <trkpt lat="43.24901" lon="-0.24281">
        <ele>363.60000610352</ele>
        <time>2012-12-29T09:16:13.000Z</time>
      </trkpt>
      <trkpt lat="43.24899" lon="-0.24259">
        <ele>363.60000610352</ele>
        <time>2012-12-29T09:16:18.000Z</time>
      </trkpt>
      <trkpt lat="43.24898" lon="-0.24246">
        <ele>363.60000610352</ele>
        <time>2012-12-29T09:16:23.000Z</time>
      </trkpt>
      <trkpt lat="43.24897" lon="-0.24232">
        <ele>363.60000610352</ele>
        <time>2012-12-29T09:16:27.000Z</time>
      </trkpt>
      <trkpt lat="43.2489" lon="-0.2421">
        <ele>363.60000610352</ele>
        <time>2012-12-29T09:16:34.000Z</time>
      </trkpt>
      <trkpt lat="43.24886" lon="-0.24202">
        <ele>364.20001220703</ele>
        <time>2012-12-29T09:16:37.000Z</time>
      </trkpt>
      <trkpt lat="43.24885" lon="-0.242">
        <ele>364.60000610352</ele>
        <time>2012-12-29T09:16:38.000Z</time>
      </trkpt>
      <trkpt lat="43.24883" lon="-0.24197">
        <ele>365.20001220703</ele>
        <time>2012-12-29T09:16:39.000Z</time>
      </trkpt>
      <trkpt lat="43.24882" lon="-0.24194">
        <ele>365.60000610352</ele>
        <time>2012-12-29T09:16:40.000Z</time>
      </trkpt>
      <trkpt lat="43.24881" lon="-0.2419">
        <ele>366</ele>
        <time>2012-12-29T09:16:41.000Z</time>
      </trkpt>
      <trkpt lat="43.24879" lon="-0.24177">
        <ele>366</ele>
        <time>2012-12-29T09:16:44.000Z</time>
      </trkpt>
      <trkpt lat="43.24882" lon="-0.24161">
        <ele>366</ele>
        <time>2012-12-29T09:16:49.000Z</time>
      </trkpt>
      <trkpt lat="43.24883" lon="-0.24156">
        <ele>366</ele>
        <time>2012-12-29T09:16:51.000Z</time>
      </trkpt>
      <trkpt lat="43.24883" lon="-0.24152">
        <ele>366</ele>
        <time>2012-12-29T09:16:54.000Z</time>
      </trkpt>
      <trkpt lat="43.24882" lon="-0.24151">
        <ele>366.20001220703</ele>
        <time>2012-12-29T09:16:55.000Z</time>
      </trkpt>
      <trkpt lat="43.24882" lon="-0.24149">
        <ele>366.60000610352</ele>
        <time>2012-12-29T09:16:56.000Z</time>
      </trkpt>
      <trkpt lat="43.24882" lon="-0.24148">
        <ele>367.20001220703</ele>
        <time>2012-12-29T09:16:57.000Z</time>
      </trkpt>
      <trkpt lat="43.24881" lon="-0.24146">
        <ele>367.60000610352</ele>
        <time>2012-12-29T09:16:58.000Z</time>
      </trkpt>
      <trkpt lat="43.2488" lon="-0.24142">
        <ele>368.20001220703</ele>
        <time>2012-12-29T09:16:59.000Z</time>
      </trkpt>
      <trkpt lat="43.24875" lon="-0.24128">
        <ele>368.20001220703</ele>
        <time>2012-12-29T09:17:04.000Z</time>
      </trkpt>
      <trkpt lat="43.24871" lon="-0.24115">
        <ele>368.20001220703</ele>
        <time>2012-12-29T09:17:09.000Z</time>
      </trkpt>
      <trkpt lat="43.2487" lon="-0.24113">
        <ele>368.20001220703</ele>
        <time>2012-12-29T09:17:10.000Z</time>
      </trkpt>
      <trkpt lat="43.24867" lon="-0.24102">
        <ele>368.20001220703</ele>
        <time>2012-12-29T09:17:14.000Z</time>
      </trkpt>
      <trkpt lat="43.24865" lon="-0.24096">
        <ele>368.60000610352</ele>
        <time>2012-12-29T09:17:16.000Z</time>
      </trkpt>
      <trkpt lat="43.24864" lon="-0.24093">
        <ele>369</ele>
        <time>2012-12-29T09:17:17.000Z</time>
      </trkpt>
      <trkpt lat="43.24863" lon="-0.24091">
        <ele>369.20001220703</ele>
        <time>2012-12-29T09:17:18.000Z</time>
      </trkpt>
      <trkpt lat="43.24863" lon="-0.24087">
        <ele>369.60000610352</ele>
        <time>2012-12-29T09:17:19.000Z</time>
      </trkpt>
      <trkpt lat="43.24862" lon="-0.24086">
        <ele>370.20001220703</ele>
        <time>2012-12-29T09:17:20.000Z</time>
      </trkpt>
      <trkpt lat="43.24852" lon="-0.24067">
        <ele>370.20001220703</ele>
        <time>2012-12-29T09:17:26.000Z</time>
      </trkpt>
      <trkpt lat="43.2485" lon="-0.24064">
        <ele>370.60000610352</ele>
        <time>2012-12-29T09:17:27.000Z</time>
      </trkpt>
      <trkpt lat="43.24848" lon="-0.24061">
        <ele>371.20001220703</ele>
        <time>2012-12-29T09:17:28.000Z</time>
      </trkpt>
      <trkpt lat="43.24846" lon="-0.24058">
        <ele>371.60000610352</ele>
        <time>2012-12-29T09:17:29.000Z</time>
      </trkpt>
      <trkpt lat="43.24845" lon="-0.24054">
        <ele>372</ele>
        <time>2012-12-29T09:17:30.000Z</time>
      </trkpt>
      <trkpt lat="43.24844" lon="-0.24052">
        <ele>372.20001220703</ele>
        <time>2012-12-29T09:17:31.000Z</time>
      </trkpt>
      <trkpt lat="43.24842" lon="-0.24049">
        <ele>372.20001220703</ele>
        <time>2012-12-29T09:17:32.000Z</time>
      </trkpt>
      <trkpt lat="43.24838" lon="-0.24035">
        <ele>372.20001220703</ele>
        <time>2012-12-29T09:17:39.000Z</time>
      </trkpt>
      <trkpt lat="43.24837" lon="-0.24033">
        <ele>372.60000610352</ele>
        <time>2012-12-29T09:17:40.000Z</time>
      </trkpt>
      <trkpt lat="43.24836" lon="-0.24032">
        <ele>373.20001220703</ele>
        <time>2012-12-29T09:17:41.000Z</time>
      </trkpt>
      <trkpt lat="43.24835" lon="-0.2403">
        <ele>373.60000610352</ele>
        <time>2012-12-29T09:17:42.000Z</time>
      </trkpt>
      <trkpt lat="43.24833" lon="-0.24027">
        <ele>374.20001220703</ele>
        <time>2012-12-29T09:17:43.000Z</time>
      </trkpt>
      <trkpt lat="43.24832" lon="-0.24025">
        <ele>374.60000610352</ele>
        <time>2012-12-29T09:17:44.000Z</time>
      </trkpt>
      <trkpt lat="43.24828" lon="-0.24016">
        <ele>375.20001220703</ele>
        <time>2012-12-29T09:17:47.000Z</time>
      </trkpt>
      <trkpt lat="43.24828" lon="-0.24014">
        <ele>375.60000610352</ele>
        <time>2012-12-29T09:17:48.000Z</time>
      </trkpt>
      <trkpt lat="43.24828" lon="-0.24012">
        <ele>376</ele>
        <time>2012-12-29T09:17:49.000Z</time>
      </trkpt>
      <trkpt lat="43.24828" lon="-0.2401">
        <ele>376.60000610352</ele>
        <time>2012-12-29T09:17:50.000Z</time>
      </trkpt>
      <trkpt lat="43.24827" lon="-0.24007">
        <ele>377</ele>
        <time>2012-12-29T09:17:51.000Z</time>
      </trkpt>
      <trkpt lat="43.24827" lon="-0.24005">
        <ele>377.60000610352</ele>
        <time>2012-12-29T09:17:52.000Z</time>
      </trkpt>
      <trkpt lat="43.24826" lon="-0.24002">
        <ele>378</ele>
        <time>2012-12-29T09:17:53.000Z</time>
      </trkpt>
      <trkpt lat="43.24826" lon="-0.24">
        <ele>378.60000610352</ele>
        <time>2012-12-29T09:17:54.000Z</time>
      </trkpt>
      <trkpt lat="43.24825" lon="-0.23998">
        <ele>379</ele>
        <time>2012-12-29T09:17:55.000Z</time>
      </trkpt>
      <trkpt lat="43.24824" lon="-0.23985">
        <ele>379</ele>
        <time>2012-12-29T09:18:00.000Z</time>
      </trkpt>
      <trkpt lat="43.24824" lon="-0.23982">
        <ele>379.20001220703</ele>
        <time>2012-12-29T09:18:01.000Z</time>
      </trkpt>
      <trkpt lat="43.24824" lon="-0.23979">
        <ele>380</ele>
        <time>2012-12-29T09:18:02.000Z</time>
      </trkpt>
      <trkpt lat="43.24824" lon="-0.23976">
        <ele>380.20001220703</ele>
        <time>2012-12-29T09:18:03.000Z</time>
      </trkpt>
      <trkpt lat="43.24823" lon="-0.23974">
        <ele>380.60000610352</ele>
        <time>2012-12-29T09:18:04.000Z</time>
      </trkpt>
      <trkpt lat="43.24823" lon="-0.23972">
        <ele>381.20001220703</ele>
        <time>2012-12-29T09:18:05.000Z</time>
      </trkpt>
      <trkpt lat="43.24823" lon="-0.2397">
        <ele>381.20001220703</ele>
        <time>2012-12-29T09:18:06.000Z</time>
      </trkpt>
      <trkpt lat="43.24822" lon="-0.23965">
        <ele>381.60000610352</ele>
        <time>2012-12-29T09:18:08.000Z</time>
      </trkpt>
      <trkpt lat="43.24822" lon="-0.23963">
        <ele>382</ele>
        <time>2012-12-29T09:18:09.000Z</time>
      </trkpt>
      <trkpt lat="43.24822" lon="-0.2396">
        <ele>382.20001220703</ele>
        <time>2012-12-29T09:18:10.000Z</time>
      </trkpt>
      <trkpt lat="43.24822" lon="-0.23956">
        <ele>382.60000610352</ele>
        <time>2012-12-29T09:18:11.000Z</time>
      </trkpt>
      <trkpt lat="43.24822" lon="-0.23952">
        <ele>383.20001220703</ele>
        <time>2012-12-29T09:18:12.000Z</time>
      </trkpt>
      <trkpt lat="43.24824" lon="-0.23944">
        <ele>383.20001220703</ele>
        <time>2012-12-29T09:18:14.000Z</time>
      </trkpt>
      <trkpt lat="43.24826" lon="-0.23935">
        <ele>383.60000610352</ele>
        <time>2012-12-29T09:18:17.000Z</time>
      </trkpt>
      <trkpt lat="43.24825" lon="-0.23933">
        <ele>384.20001220703</ele>
        <time>2012-12-29T09:18:18.000Z</time>
      </trkpt>
      <trkpt lat="43.24825" lon="-0.2393">
        <ele>384.60000610352</ele>
        <time>2012-12-29T09:18:19.000Z</time>
      </trkpt>
      <trkpt lat="43.24825" lon="-0.23928">
        <ele>385.20001220703</ele>
        <time>2012-12-29T09:18:20.000Z</time>
      </trkpt>
      <trkpt lat="43.24824" lon="-0.23926">
        <ele>385.60000610352</ele>
        <time>2012-12-29T09:18:21.000Z</time>
      </trkpt>
      <trkpt lat="43.24822" lon="-0.23923">
        <ele>385.60000610352</ele>
        <time>2012-12-29T09:18:23.000Z</time>
      </trkpt>
      <trkpt lat="43.24813" lon="-0.23912">
        <ele>388</ele>
        <time>2012-12-29T09:18:30.000Z</time>
      </trkpt>
      <trkpt lat="43.24804" lon="-0.23905">
        <ele>388</ele>
        <time>2012-12-29T09:18:35.000Z</time>
      </trkpt>
      <trkpt lat="43.24803" lon="-0.23904">
        <ele>388.20001220703</ele>
        <time>2012-12-29T09:18:36.000Z</time>
      </trkpt>
      <trkpt lat="43.24802" lon="-0.23903">
        <ele>388.60000610352</ele>
        <time>2012-12-29T09:18:37.000Z</time>
      </trkpt>
      <trkpt lat="43.24801" lon="-0.23901">
        <ele>389.20001220703</ele>
        <time>2012-12-29T09:18:38.000Z</time>
      </trkpt>
      <trkpt lat="43.248" lon="-0.239">
        <ele>389.60000610352</ele>
        <time>2012-12-29T09:18:39.000Z</time>
      </trkpt>
      <trkpt lat="43.24799" lon="-0.23898">
        <ele>390.20001220703</ele>
        <time>2012-12-29T09:18:40.000Z</time>
      </trkpt>
      <trkpt lat="43.24797" lon="-0.23895">
        <ele>390.20001220703</ele>
        <time>2012-12-29T09:18:42.000Z</time>
      </trkpt>
      <trkpt lat="43.24794" lon="-0.23894">
        <ele>390.20001220703</ele>
        <time>2012-12-29T09:18:46.000Z</time>
      </trkpt>
      <trkpt lat="43.24785" lon="-0.23875">
        <ele>390.20001220703</ele>
        <time>2012-12-29T09:19:13.000Z</time>
      </trkpt>
      <trkpt lat="43.24782" lon="-0.2387">
        <ele>390.60000610352</ele>
        <time>2012-12-29T09:19:15.000Z</time>
      </trkpt>
      <trkpt lat="43.24781" lon="-0.23867">
        <ele>391</ele>
        <time>2012-12-29T09:19:16.000Z</time>
      </trkpt>
      <trkpt lat="43.2478" lon="-0.23863">
        <ele>391.20001220703</ele>
        <time>2012-12-29T09:19:17.000Z</time>
      </trkpt>
      <trkpt lat="43.24778" lon="-0.2386">
        <ele>391.60000610352</ele>
        <time>2012-12-29T09:19:18.000Z</time>
      </trkpt>
      <trkpt lat="43.24777" lon="-0.23857">
        <ele>392.20001220703</ele>
        <time>2012-12-29T09:19:19.000Z</time>
      </trkpt>
      <trkpt lat="43.24773" lon="-0.23848">
        <ele>392.20001220703</ele>
        <time>2012-12-29T09:19:23.000Z</time>
      </trkpt>
      <trkpt lat="43.2477" lon="-0.23843">
        <ele>392.60000610352</ele>
        <time>2012-12-29T09:19:26.000Z</time>
      </trkpt>
      <trkpt lat="43.24768" lon="-0.23841">
        <ele>393.20001220703</ele>
        <time>2012-12-29T09:19:27.000Z</time>
      </trkpt>
      <trkpt lat="43.24767" lon="-0.23839">
        <ele>393.60000610352</ele>
        <time>2012-12-29T09:19:28.000Z</time>
      </trkpt>
      <trkpt lat="43.24766" lon="-0.23837">
        <ele>394</ele>
        <time>2012-12-29T09:19:29.000Z</time>
      </trkpt>
      <trkpt lat="43.24765" lon="-0.23834">
        <ele>394.20001220703</ele>
        <time>2012-12-29T09:19:30.000Z</time>
      </trkpt>
      <trkpt lat="43.24765" lon="-0.23832">
        <ele>394.20001220703</ele>
        <time>2012-12-29T09:19:31.000Z</time>
      </trkpt>
      <trkpt lat="43.24764" lon="-0.2383">
        <ele>395</ele>
        <time>2012-12-29T09:19:32.000Z</time>
      </trkpt>
      <trkpt lat="43.24764" lon="-0.23828">
        <ele>395.20001220703</ele>
        <time>2012-12-29T09:19:33.000Z</time>
      </trkpt>
      <trkpt lat="43.24763" lon="-0.23826">
        <ele>395.60000610352</ele>
        <time>2012-12-29T09:19:34.000Z</time>
      </trkpt>
      <trkpt lat="43.24761" lon="-0.23822">
        <ele>396.20001220703</ele>
        <time>2012-12-29T09:19:35.000Z</time>
      </trkpt>
      <trkpt lat="43.2476" lon="-0.2382">
        <ele>396.60000610352</ele>
        <time>2012-12-29T09:19:36.000Z</time>
      </trkpt>
      <trkpt lat="43.24757" lon="-0.23816">
        <ele>396.60000610352</ele>
        <time>2012-12-29T09:19:38.000Z</time>
      </trkpt>
      <trkpt lat="43.24751" lon="-0.23811">
        <ele>397.20001220703</ele>
        <time>2012-12-29T09:19:42.000Z</time>
      </trkpt>
      <trkpt lat="43.24749" lon="-0.2381">
        <ele>397.60000610352</ele>
        <time>2012-12-29T09:19:43.000Z</time>
      </trkpt>
      <trkpt lat="43.24748" lon="-0.23808">
        <ele>398</ele>
        <time>2012-12-29T09:19:44.000Z</time>
      </trkpt>
      <trkpt lat="43.24745" lon="-0.23807">
        <ele>398.20001220703</ele>
        <time>2012-12-29T09:19:45.000Z</time>
      </trkpt>
      <trkpt lat="43.24743" lon="-0.23805">
        <ele>398.60000610352</ele>
        <time>2012-12-29T09:19:46.000Z</time>
      </trkpt>
      <trkpt lat="43.24737" lon="-0.23799">
        <ele>398.60000610352</ele>
        <time>2012-12-29T09:19:50.000Z</time>
      </trkpt>
      <trkpt lat="43.24735" lon="-0.23799">
        <ele>398.60000610352</ele>
        <time>2012-12-29T09:19:51.000Z</time>
      </trkpt>
      <trkpt lat="43.24734" lon="-0.23799">
        <ele>398.60000610352</ele>
        <time>2012-12-29T09:19:53.000Z</time>
      </trkpt>
      <trkpt lat="43.24733" lon="-0.23799">
        <ele>398.60000610352</ele>
        <time>2012-12-29T09:19:54.000Z</time>
      </trkpt>
      <trkpt lat="43.24721" lon="-0.23787">
        <ele>400.60000610352</ele>
        <time>2012-12-29T09:25:16.000Z</time>
      </trkpt>
      <trkpt lat="43.24722" lon="-0.23783">
        <ele>400.60000610352</ele>
        <time>2012-12-29T09:25:18.000Z</time>
      </trkpt>
      <trkpt lat="43.24723" lon="-0.23776">
        <ele>401.20001220703</ele>
        <time>2012-12-29T09:25:21.000Z</time>
      </trkpt>
      <trkpt lat="43.24723" lon="-0.23774">
        <ele>401.60000610352</ele>
        <time>2012-12-29T09:25:22.000Z</time>
      </trkpt>
      <trkpt lat="43.24723" lon="-0.23771">
        <ele>402.20001220703</ele>
        <time>2012-12-29T09:25:23.000Z</time>
      </trkpt>
      <trkpt lat="43.24724" lon="-0.23769">
        <ele>403</ele>
        <time>2012-12-29T09:25:24.000Z</time>
      </trkpt>
      <trkpt lat="43.24724" lon="-0.23766">
        <ele>403.20001220703</ele>
        <time>2012-12-29T09:25:25.000Z</time>
      </trkpt>
      <trkpt lat="43.24723" lon="-0.2376">
        <ele>403.20001220703</ele>
        <time>2012-12-29T09:25:27.000Z</time>
      </trkpt>
      <trkpt lat="43.24724" lon="-0.23757">
        <ele>403.60000610352</ele>
        <time>2012-12-29T09:25:28.000Z</time>
      </trkpt>
      <trkpt lat="43.24725" lon="-0.23754">
        <ele>404.20001220703</ele>
        <time>2012-12-29T09:25:29.000Z</time>
      </trkpt>
      <trkpt lat="43.24726" lon="-0.23752">
        <ele>404.60000610352</ele>
        <time>2012-12-29T09:25:30.000Z</time>
      </trkpt>
      <trkpt lat="43.24726" lon="-0.23748">
        <ele>405.20001220703</ele>
        <time>2012-12-29T09:25:31.000Z</time>
      </trkpt>
      <trkpt lat="43.24728" lon="-0.23746">
        <ele>405.60000610352</ele>
        <time>2012-12-29T09:25:32.000Z</time>
      </trkpt>
      <trkpt lat="43.24728" lon="-0.23743">
        <ele>405.60000610352</ele>
        <time>2012-12-29T09:25:33.000Z</time>
      </trkpt>
      <trkpt lat="43.2473" lon="-0.23738">
        <ele>405.60000610352</ele>
        <time>2012-12-29T09:25:35.000Z</time>
      </trkpt>
      <trkpt lat="43.2473" lon="-0.23736">
        <ele>406.20001220703</ele>
        <time>2012-12-29T09:25:36.000Z</time>
      </trkpt>
      <trkpt lat="43.24731" lon="-0.23733">
        <ele>406.60000610352</ele>
        <time>2012-12-29T09:25:37.000Z</time>
      </trkpt>
      <trkpt lat="43.24731" lon="-0.23731">
        <ele>407</ele>
        <time>2012-12-29T09:25:38.000Z</time>
      </trkpt>
      <trkpt lat="43.24732" lon="-0.23729">
        <ele>407.20001220703</ele>
        <time>2012-12-29T09:25:39.000Z</time>
      </trkpt>
      <trkpt lat="43.24733" lon="-0.23726">
        <ele>407.60000610352</ele>
        <time>2012-12-29T09:25:40.000Z</time>
      </trkpt>
      <trkpt lat="43.24734" lon="-0.23723">
        <ele>407.60000610352</ele>
        <time>2012-12-29T09:25:41.000Z</time>
      </trkpt>
      <trkpt lat="43.24735" lon="-0.23716">
        <ele>407.60000610352</ele>
        <time>2012-12-29T09:25:43.000Z</time>
      </trkpt>
      <trkpt lat="43.24736" lon="-0.23713">
        <ele>408.20001220703</ele>
        <time>2012-12-29T09:25:44.000Z</time>
      </trkpt>
      <trkpt lat="43.24736" lon="-0.23708">
        <ele>408.60000610352</ele>
        <time>2012-12-29T09:25:45.000Z</time>
      </trkpt>
      <trkpt lat="43.24737" lon="-0.23705">
        <ele>409</ele>
        <time>2012-12-29T09:25:46.000Z</time>
      </trkpt>
      <trkpt lat="43.24737" lon="-0.23701">
        <ele>409.20001220703</ele>
        <time>2012-12-29T09:25:47.000Z</time>
      </trkpt>
      <trkpt lat="43.24737" lon="-0.23698">
        <ele>409.60000610352</ele>
        <time>2012-12-29T09:25:48.000Z</time>
      </trkpt>
      <trkpt lat="43.24731" lon="-0.23684">
        <ele>409.60000610352</ele>
        <time>2012-12-29T09:25:52.000Z</time>
      </trkpt>
      <trkpt lat="43.24721" lon="-0.23667">
        <ele>409.60000610352</ele>
        <time>2012-12-29T09:25:57.000Z</time>
      </trkpt>
      <trkpt lat="43.24719" lon="-0.23661">
        <ele>410.20001220703</ele>
        <time>2012-12-29T09:25:59.000Z</time>
      </trkpt>
      <trkpt lat="43.24718" lon="-0.23658">
        <ele>410.60000610352</ele>
        <time>2012-12-29T09:26:00.000Z</time>
      </trkpt>
      <trkpt lat="43.24718" lon="-0.23656">
        <ele>411.20001220703</ele>
        <time>2012-12-29T09:26:01.000Z</time>
      </trkpt>
      <trkpt lat="43.24717" lon="-0.23654">
        <ele>411.60000610352</ele>
        <time>2012-12-29T09:26:02.000Z</time>
      </trkpt>
      <trkpt lat="43.24716" lon="-0.2365">
        <ele>412.20001220703</ele>
        <time>2012-12-29T09:26:03.000Z</time>
      </trkpt>
      <trkpt lat="43.24715" lon="-0.23647">
        <ele>412.20001220703</ele>
        <time>2012-12-29T09:26:04.000Z</time>
      </trkpt>
      <trkpt lat="43.24707" lon="-0.23627">
        <ele>412.20001220703</ele>
        <time>2012-12-29T09:26:10.000Z</time>
      </trkpt>
      <trkpt lat="43.24706" lon="-0.23616">
        <ele>412.20001220703</ele>
        <time>2012-12-29T09:26:14.000Z</time>
      </trkpt>
      <trkpt lat="43.24705" lon="-0.23605">
        <ele>412.20001220703</ele>
        <time>2012-12-29T09:26:18.000Z</time>
      </trkpt>
      <trkpt lat="43.24703" lon="-0.23602">
        <ele>412.20001220703</ele>
        <time>2012-12-29T09:26:19.000Z</time>
      </trkpt>
      <trkpt lat="43.247" lon="-0.23591">
        <ele>412.20001220703</ele>
        <time>2012-12-29T09:26:22.000Z</time>
      </trkpt>
      <trkpt lat="43.24691" lon="-0.23572">
        <ele>412.20001220703</ele>
        <time>2012-12-29T09:26:27.000Z</time>
      </trkpt>
      <trkpt lat="43.24681" lon="-0.23558">
        <ele>412.20001220703</ele>
        <time>2012-12-29T09:26:32.000Z</time>
      </trkpt>
      <trkpt lat="43.24669" lon="-0.23548">
        <ele>412.20001220703</ele>
        <time>2012-12-29T09:26:38.000Z</time>
      </trkpt>
      <trkpt lat="43.24658" lon="-0.23542">
        <ele>412.20001220703</ele>
        <time>2012-12-29T09:26:42.000Z</time>
      </trkpt>
      <trkpt lat="43.24644" lon="-0.23528">
        <ele>411.60000610352</ele>
        <time>2012-12-29T09:26:47.000Z</time>
      </trkpt>
      <trkpt lat="43.24642" lon="-0.23525">
        <ele>411.20001220703</ele>
        <time>2012-12-29T09:26:48.000Z</time>
      </trkpt>
      <trkpt lat="43.24639" lon="-0.23522">
        <ele>410.60000610352</ele>
        <time>2012-12-29T09:26:49.000Z</time>
      </trkpt>
      <trkpt lat="43.24637" lon="-0.23518">
        <ele>410.20001220703</ele>
        <time>2012-12-29T09:26:50.000Z</time>
      </trkpt>
      <trkpt lat="43.24633" lon="-0.23515">
        <ele>409.60000610352</ele>
        <time>2012-12-29T09:26:51.000Z</time>
      </trkpt>
      <trkpt lat="43.24628" lon="-0.23508">
        <ele>409.60000610352</ele>
        <time>2012-12-29T09:26:53.000Z</time>
      </trkpt>
      <trkpt lat="43.24623" lon="-0.235">
        <ele>409.20001220703</ele>
        <time>2012-12-29T09:26:55.000Z</time>
      </trkpt>
      <trkpt lat="43.24621" lon="-0.23497">
        <ele>408.60000610352</ele>
        <time>2012-12-29T09:26:56.000Z</time>
      </trkpt>
      <trkpt lat="43.24619" lon="-0.23493">
        <ele>408.20001220703</ele>
        <time>2012-12-29T09:26:57.000Z</time>
      </trkpt>
      <trkpt lat="43.24617" lon="-0.23489">
        <ele>408</ele>
        <time>2012-12-29T09:26:58.000Z</time>
      </trkpt>
      <trkpt lat="43.24617" lon="-0.23485">
        <ele>407.20001220703</ele>
        <time>2012-12-29T09:26:59.000Z</time>
      </trkpt>
      <trkpt lat="43.24613" lon="-0.2347">
        <ele>406.60000610352</ele>
        <time>2012-12-29T09:27:03.000Z</time>
      </trkpt>
      <trkpt lat="43.24612" lon="-0.23467">
        <ele>406.20001220703</ele>
        <time>2012-12-29T09:27:04.000Z</time>
      </trkpt>
      <trkpt lat="43.24611" lon="-0.23464">
        <ele>405.60000610352</ele>
        <time>2012-12-29T09:27:05.000Z</time>
      </trkpt>
      <trkpt lat="43.2461" lon="-0.23461">
        <ele>405.20001220703</ele>
        <time>2012-12-29T09:27:06.000Z</time>
      </trkpt>
      <trkpt lat="43.24609" lon="-0.23457">
        <ele>404.60000610352</ele>
        <time>2012-12-29T09:27:07.000Z</time>
      </trkpt>
      <trkpt lat="43.24607" lon="-0.23454">
        <ele>404.60000610352</ele>
        <time>2012-12-29T09:27:08.000Z</time>
      </trkpt>
      <trkpt lat="43.24598" lon="-0.23439">
        <ele>404.60000610352</ele>
        <time>2012-12-29T09:27:13.000Z</time>
      </trkpt>
      <trkpt lat="43.24589" lon="-0.23428">
        <ele>404.60000610352</ele>
        <time>2012-12-29T09:27:17.000Z</time>
      </trkpt>
      <trkpt lat="43.24587" lon="-0.23426">
        <ele>404.60000610352</ele>
        <time>2012-12-29T09:27:18.000Z</time>
      </trkpt>
      <trkpt lat="43.2458" lon="-0.23419">
        <ele>404.60000610352</ele>
        <time>2012-12-29T09:27:21.000Z</time>
      </trkpt>
      <trkpt lat="43.2457" lon="-0.23406">
        <ele>404.20001220703</ele>
        <time>2012-12-29T09:27:26.000Z</time>
      </trkpt>
      <trkpt lat="43.24567" lon="-0.23401">
        <ele>403.60000610352</ele>
        <time>2012-12-29T09:27:27.000Z</time>
      </trkpt>
      <trkpt lat="43.24564" lon="-0.23399">
        <ele>403.20001220703</ele>
        <time>2012-12-29T09:27:28.000Z</time>
      </trkpt>
      <trkpt lat="43.24562" lon="-0.23396">
        <ele>403</ele>
        <time>2012-12-29T09:27:29.000Z</time>
      </trkpt>
      <trkpt lat="43.2456" lon="-0.23393">
        <ele>402.20001220703</ele>
        <time>2012-12-29T09:27:30.000Z</time>
      </trkpt>
      <trkpt lat="43.24554" lon="-0.23383">
        <ele>402</ele>
        <time>2012-12-29T09:27:33.000Z</time>
      </trkpt>
      <trkpt lat="43.24552" lon="-0.2338">
        <ele>401.60000610352</ele>
        <time>2012-12-29T09:27:34.000Z</time>
      </trkpt>
      <trkpt lat="43.24551" lon="-0.23378">
        <ele>401.20001220703</ele>
        <time>2012-12-29T09:27:35.000Z</time>
      </trkpt>
      <trkpt lat="43.2455" lon="-0.23376">
        <ele>400.60000610352</ele>
        <time>2012-12-29T09:27:36.000Z</time>
      </trkpt>
      <trkpt lat="43.24549" lon="-0.23373">
        <ele>400.20001220703</ele>
        <time>2012-12-29T09:27:37.000Z</time>
      </trkpt>
      <trkpt lat="43.24547" lon="-0.23368">
        <ele>400.20001220703</ele>
        <time>2012-12-29T09:27:39.000Z</time>
      </trkpt>
      <trkpt lat="43.24543" lon="-0.23356">
        <ele>400.20001220703</ele>
        <time>2012-12-29T09:27:45.000Z</time>
      </trkpt>
      <trkpt lat="43.24543" lon="-0.23354">
        <ele>400.20001220703</ele>
        <time>2012-12-29T09:27:48.000Z</time>
      </trkpt>
      <trkpt lat="43.24539" lon="-0.23349">
        <ele>400.20001220703</ele>
        <time>2012-12-29T09:29:43.000Z</time>
      </trkpt>
      <trkpt lat="43.24538" lon="-0.23347">
        <ele>400.20001220703</ele>
        <time>2012-12-29T09:29:44.000Z</time>
      </trkpt>
      <trkpt lat="43.24531" lon="-0.23333">
        <ele>400.20001220703</ele>
        <time>2012-12-29T09:29:48.000Z</time>
      </trkpt>
      <trkpt lat="43.2452" lon="-0.23322">
        <ele>400.20001220703</ele>
        <time>2012-12-29T09:29:53.000Z</time>
      </trkpt>
      <trkpt lat="43.24512" lon="-0.23319">
        <ele>400.60000610352</ele>
        <time>2012-12-29T09:29:56.000Z</time>
      </trkpt>
      <trkpt lat="43.2451" lon="-0.23317">
        <ele>401.20001220703</ele>
        <time>2012-12-29T09:29:57.000Z</time>
      </trkpt>
      <trkpt lat="43.24508" lon="-0.23316">
        <ele>401.60000610352</ele>
        <time>2012-12-29T09:29:58.000Z</time>
      </trkpt>
      <trkpt lat="43.24505" lon="-0.23315">
        <ele>402</ele>
        <time>2012-12-29T09:29:59.000Z</time>
      </trkpt>
      <trkpt lat="43.24503" lon="-0.23313">
        <ele>402.20001220703</ele>
        <time>2012-12-29T09:30:00.000Z</time>
      </trkpt>
      <trkpt lat="43.24495" lon="-0.23305">
        <ele>402.20001220703</ele>
        <time>2012-12-29T09:30:04.000Z</time>
      </trkpt>
      <trkpt lat="43.24485" lon="-0.23293">
        <ele>402.20001220703</ele>
        <time>2012-12-29T09:30:09.000Z</time>
      </trkpt>
      <trkpt lat="43.24484" lon="-0.2329">
        <ele>402.60000610352</ele>
        <time>2012-12-29T09:30:10.000Z</time>
      </trkpt>
      <trkpt lat="43.24482" lon="-0.23288">
        <ele>403.20001220703</ele>
        <time>2012-12-29T09:30:11.000Z</time>
      </trkpt>
      <trkpt lat="43.24481" lon="-0.23286">
        <ele>403.60000610352</ele>
        <time>2012-12-29T09:30:12.000Z</time>
      </trkpt>
      <trkpt lat="43.24481" lon="-0.23283">
        <ele>404</ele>
        <time>2012-12-29T09:30:13.000Z</time>
      </trkpt>
      <trkpt lat="43.2448" lon="-0.23281">
        <ele>404.20001220703</ele>
        <time>2012-12-29T09:30:14.000Z</time>
      </trkpt>
      <trkpt lat="43.2448" lon="-0.23278">
        <ele>404.20001220703</ele>
        <time>2012-12-29T09:30:15.000Z</time>
      </trkpt>
      <trkpt lat="43.24479" lon="-0.23265">
        <ele>404.20001220703</ele>
        <time>2012-12-29T09:30:20.000Z</time>
      </trkpt>
      <trkpt lat="43.24479" lon="-0.23261">
        <ele>404.60000610352</ele>
        <time>2012-12-29T09:30:21.000Z</time>
      </trkpt>
      <trkpt lat="43.24479" lon="-0.23258">
        <ele>405.20001220703</ele>
        <time>2012-12-29T09:30:22.000Z</time>
      </trkpt>
      <trkpt lat="43.24479" lon="-0.23255">
        <ele>405.60000610352</ele>
        <time>2012-12-29T09:30:23.000Z</time>
      </trkpt>
      <trkpt lat="43.2448" lon="-0.23251">
        <ele>406.20001220703</ele>
        <time>2012-12-29T09:30:24.000Z</time>
      </trkpt>
      <trkpt lat="43.2448" lon="-0.23248">
        <ele>406.60000610352</ele>
        <time>2012-12-29T09:30:25.000Z</time>
      </trkpt>
      <trkpt lat="43.2448" lon="-0.23245">
        <ele>406.60000610352</ele>
        <time>2012-12-29T09:30:26.000Z</time>
      </trkpt>
      <trkpt lat="43.2448" lon="-0.23238">
        <ele>407</ele>
        <time>2012-12-29T09:30:28.000Z</time>
      </trkpt>
      <trkpt lat="43.2448" lon="-0.23235">
        <ele>407.20001220703</ele>
        <time>2012-12-29T09:30:29.000Z</time>
      </trkpt>
      <trkpt lat="43.2448" lon="-0.23232">
        <ele>407.60000610352</ele>
        <time>2012-12-29T09:30:30.000Z</time>
      </trkpt>
      <trkpt lat="43.2448" lon="-0.23229">
        <ele>408.20001220703</ele>
        <time>2012-12-29T09:30:31.000Z</time>
      </trkpt>
      <trkpt lat="43.2448" lon="-0.23226">
        <ele>408.60000610352</ele>
        <time>2012-12-29T09:30:32.000Z</time>
      </trkpt>
      <trkpt lat="43.24479" lon="-0.23209">
        <ele>408.60000610352</ele>
        <time>2012-12-29T09:30:37.000Z</time>
      </trkpt>
      <trkpt lat="43.24473" lon="-0.23194">
        <ele>408.60000610352</ele>
        <time>2012-12-29T09:30:42.000Z</time>
      </trkpt>
      <trkpt lat="43.24464" lon="-0.23179">
        <ele>408.60000610352</ele>
        <time>2012-12-29T09:30:47.000Z</time>
      </trkpt>
      <trkpt lat="43.24451" lon="-0.23165">
        <ele>409</ele>
        <time>2012-12-29T09:30:53.000Z</time>
      </trkpt>
      <trkpt lat="43.24449" lon="-0.23163">
        <ele>409.20001220703</ele>
        <time>2012-12-29T09:30:54.000Z</time>
      </trkpt>
      <trkpt lat="43.24447" lon="-0.23161">
        <ele>409.60000610352</ele>
        <time>2012-12-29T09:30:55.000Z</time>
      </trkpt>
      <trkpt lat="43.24445" lon="-0.23159">
        <ele>410.20001220703</ele>
        <time>2012-12-29T09:30:56.000Z</time>
      </trkpt>
      <trkpt lat="43.24443" lon="-0.23157">
        <ele>410.60000610352</ele>
        <time>2012-12-29T09:30:57.000Z</time>
      </trkpt>
      <trkpt lat="43.24439" lon="-0.23153">
        <ele>410.60000610352</ele>
        <time>2012-12-29T09:30:59.000Z</time>
      </trkpt>
      <trkpt lat="43.24431" lon="-0.23141">
        <ele>410.60000610352</ele>
        <time>2012-12-29T09:31:04.000Z</time>
      </trkpt>
      <trkpt lat="43.2442" lon="-0.23125">
        <ele>410.60000610352</ele>
        <time>2012-12-29T09:31:10.000Z</time>
      </trkpt>
      <trkpt lat="43.24416" lon="-0.23119">
        <ele>411</ele>
        <time>2012-12-29T09:31:12.000Z</time>
      </trkpt>
      <trkpt lat="43.24414" lon="-0.23116">
        <ele>411.60000610352</ele>
        <time>2012-12-29T09:31:13.000Z</time>
      </trkpt>
      <trkpt lat="43.24413" lon="-0.23114">
        <ele>412</ele>
        <time>2012-12-29T09:31:14.000Z</time>
      </trkpt>
      <trkpt lat="43.2441" lon="-0.23111">
        <ele>412.20001220703</ele>
        <time>2012-12-29T09:31:15.000Z</time>
      </trkpt>
      <trkpt lat="43.24409" lon="-0.23108">
        <ele>412.60000610352</ele>
        <time>2012-12-29T09:31:16.000Z</time>
      </trkpt>
      <trkpt lat="43.24402" lon="-0.23099">
        <ele>412.60000610352</ele>
        <time>2012-12-29T09:31:20.000Z</time>
      </trkpt>
      <trkpt lat="43.24391" lon="-0.23086">
        <ele>412.60000610352</ele>
        <time>2012-12-29T09:31:26.000Z</time>
      </trkpt>
      <trkpt lat="43.24381" lon="-0.23076">
        <ele>412.60000610352</ele>
        <time>2012-12-29T09:31:31.000Z</time>
      </trkpt>
      <trkpt lat="43.24373" lon="-0.23065">
        <ele>413.20001220703</ele>
        <time>2012-12-29T09:31:36.000Z</time>
      </trkpt>
      <trkpt lat="43.24371" lon="-0.23062">
        <ele>413.60000610352</ele>
        <time>2012-12-29T09:31:37.000Z</time>
      </trkpt>
      <trkpt lat="43.2437" lon="-0.2306">
        <ele>414.20001220703</ele>
        <time>2012-12-29T09:31:38.000Z</time>
      </trkpt>
      <trkpt lat="43.24367" lon="-0.23057">
        <ele>414.60000610352</ele>
        <time>2012-12-29T09:31:39.000Z</time>
      </trkpt>
      <trkpt lat="43.24366" lon="-0.23054">
        <ele>415.20001220703</ele>
        <time>2012-12-29T09:31:40.000Z</time>
      </trkpt>
      <trkpt lat="43.24358" lon="-0.23045">
        <ele>415.20001220703</ele>
        <time>2012-12-29T09:31:44.000Z</time>
      </trkpt>
      <trkpt lat="43.24348" lon="-0.23033">
        <ele>415.20001220703</ele>
        <time>2012-12-29T09:31:49.000Z</time>
      </trkpt>
      <trkpt lat="43.2434" lon="-0.2302">
        <ele>415.20001220703</ele>
        <time>2012-12-29T09:31:54.000Z</time>
      </trkpt>
      <trkpt lat="43.24328" lon="-0.23006">
        <ele>415.20001220703</ele>
        <time>2012-12-29T09:32:01.000Z</time>
      </trkpt>
      <trkpt lat="43.24326" lon="-0.23005">
        <ele>415.20001220703</ele>
        <time>2012-12-29T09:32:02.000Z</time>
      </trkpt>
      <trkpt lat="43.24323" lon="-0.22998">
        <ele>415.20001220703</ele>
        <time>2012-12-29T09:32:06.000Z</time>
      </trkpt>
      <trkpt lat="43.2432" lon="-0.22994">
        <ele>414.60000610352</ele>
        <time>2012-12-29T09:32:08.000Z</time>
      </trkpt>
      <trkpt lat="43.24318" lon="-0.22991">
        <ele>414.20001220703</ele>
        <time>2012-12-29T09:32:09.000Z</time>
      </trkpt>
      <trkpt lat="43.24315" lon="-0.22989">
        <ele>413.60000610352</ele>
        <time>2012-12-29T09:32:10.000Z</time>
      </trkpt>
      <trkpt lat="43.24312" lon="-0.22986">
        <ele>413.20001220703</ele>
        <time>2012-12-29T09:32:11.000Z</time>
      </trkpt>
      <trkpt lat="43.24309" lon="-0.22984">
        <ele>412.60000610352</ele>
        <time>2012-12-29T09:32:12.000Z</time>
      </trkpt>
      <trkpt lat="43.24298" lon="-0.22975">
        <ele>412.20001220703</ele>
        <time>2012-12-29T09:32:16.000Z</time>
      </trkpt>
      <trkpt lat="43.24295" lon="-0.22973">
        <ele>412</ele>
        <time>2012-12-29T09:32:17.000Z</time>
      </trkpt>
      <trkpt lat="43.24292" lon="-0.22971">
        <ele>411.60000610352</ele>
        <time>2012-12-29T09:32:18.000Z</time>
      </trkpt>
      <trkpt lat="43.24291" lon="-0.2297">
        <ele>411.20001220703</ele>
        <time>2012-12-29T09:32:19.000Z</time>
      </trkpt>
      <trkpt lat="43.24289" lon="-0.22968">
        <ele>410.60000610352</ele>
        <time>2012-12-29T09:32:20.000Z</time>
      </trkpt>
      <trkpt lat="43.24288" lon="-0.22966">
        <ele>410.60000610352</ele>
        <time>2012-12-29T09:32:21.000Z</time>
      </trkpt>
      <trkpt lat="43.24283" lon="-0.22959">
        <ele>410.60000610352</ele>
        <time>2012-12-29T09:32:25.000Z</time>
      </trkpt>
      <trkpt lat="43.24269" lon="-0.2295">
        <ele>410.60000610352</ele>
        <time>2012-12-29T09:32:30.000Z</time>
      </trkpt>
      <trkpt lat="43.24254" lon="-0.22943">
        <ele>410.60000610352</ele>
        <time>2012-12-29T09:32:35.000Z</time>
      </trkpt>
      <trkpt lat="43.24252" lon="-0.22942">
        <ele>410.60000610352</ele>
        <time>2012-12-29T09:32:36.000Z</time>
      </trkpt>
      <trkpt lat="43.24239" lon="-0.22937">
        <ele>410.60000610352</ele>
        <time>2012-12-29T09:32:41.000Z</time>
      </trkpt>
      <trkpt lat="43.24232" lon="-0.22935">
        <ele>411.20001220703</ele>
        <time>2012-12-29T09:32:45.000Z</time>
      </trkpt>
      <trkpt lat="43.24231" lon="-0.22935">
        <ele>411.60000610352</ele>
        <time>2012-12-29T09:32:46.000Z</time>
      </trkpt>
      <trkpt lat="43.2423" lon="-0.22934">
        <ele>412.20001220703</ele>
        <time>2012-12-29T09:32:47.000Z</time>
      </trkpt>
      <trkpt lat="43.24228" lon="-0.22933">
        <ele>412.60000610352</ele>
        <time>2012-12-29T09:32:48.000Z</time>
      </trkpt>
      <trkpt lat="43.24225" lon="-0.22932">
        <ele>413.20001220703</ele>
        <time>2012-12-29T09:32:49.000Z</time>
      </trkpt>
      <trkpt lat="43.24221" lon="-0.22932">
        <ele>413.20001220703</ele>
        <time>2012-12-29T09:32:50.000Z</time>
      </trkpt>
      <trkpt lat="43.24208" lon="-0.22928">
        <ele>413.20001220703</ele>
        <time>2012-12-29T09:32:54.000Z</time>
      </trkpt>
      <trkpt lat="43.24205" lon="-0.22926">
        <ele>413.20001220703</ele>
        <time>2012-12-29T09:32:55.000Z</time>
      </trkpt>
      <trkpt lat="43.24197" lon="-0.2292">
        <ele>413.60000610352</ele>
        <time>2012-12-29T09:32:58.000Z</time>
      </trkpt>
      <trkpt lat="43.24195" lon="-0.22919">
        <ele>413.60000610352</ele>
        <time>2012-12-29T09:32:59.000Z</time>
      </trkpt>
      <trkpt lat="43.24193" lon="-0.22917">
        <ele>414.20001220703</ele>
        <time>2012-12-29T09:33:00.000Z</time>
      </trkpt>
      <trkpt lat="43.24192" lon="-0.22916">
        <ele>414.60000610352</ele>
        <time>2012-12-29T09:33:01.000Z</time>
      </trkpt>
      <trkpt lat="43.2419" lon="-0.22914">
        <ele>415.20001220703</ele>
        <time>2012-12-29T09:33:02.000Z</time>
      </trkpt>
      <trkpt lat="43.24189" lon="-0.22912">
        <ele>415.60000610352</ele>
        <time>2012-12-29T09:33:03.000Z</time>
      </trkpt>
      <trkpt lat="43.24188" lon="-0.22907">
        <ele>415.60000610352</ele>
        <time>2012-12-29T09:33:05.000Z</time>
      </trkpt>
      <trkpt lat="43.24184" lon="-0.22898">
        <ele>415.60000610352</ele>
        <time>2012-12-29T09:33:09.000Z</time>
      </trkpt>
      <trkpt lat="43.24184" lon="-0.22893">
        <ele>415.60000610352</ele>
        <time>2012-12-29T09:33:11.000Z</time>
      </trkpt>
      <trkpt lat="43.24182" lon="-0.22887">
        <ele>415.60000610352</ele>
        <time>2012-12-29T09:33:13.000Z</time>
      </trkpt>
      <trkpt lat="43.24176" lon="-0.22879">
        <ele>415.60000610352</ele>
        <time>2012-12-29T09:33:16.000Z</time>
      </trkpt>
      <trkpt lat="43.24174" lon="-0.22876">
        <ele>416.20001220703</ele>
        <time>2012-12-29T09:33:17.000Z</time>
      </trkpt>
      <trkpt lat="43.24172" lon="-0.22874">
        <ele>416.60000610352</ele>
        <time>2012-12-29T09:33:18.000Z</time>
      </trkpt>
      <trkpt lat="43.24169" lon="-0.22873">
        <ele>417</ele>
        <time>2012-12-29T09:33:19.000Z</time>
      </trkpt>
      <trkpt lat="43.24167" lon="-0.22871">
        <ele>417.20001220703</ele>
        <time>2012-12-29T09:33:20.000Z</time>
      </trkpt>
      <trkpt lat="43.24165" lon="-0.22869">
        <ele>417.60000610352</ele>
        <time>2012-12-29T09:33:21.000Z</time>
      </trkpt>
      <trkpt lat="43.24157" lon="-0.2286">
        <ele>417.60000610352</ele>
        <time>2012-12-29T09:33:25.000Z</time>
      </trkpt>
      <trkpt lat="43.24151" lon="-0.22853">
        <ele>417.60000610352</ele>
        <time>2012-12-29T09:33:29.000Z</time>
      </trkpt>
      <trkpt lat="43.24147" lon="-0.22848">
        <ele>417.60000610352</ele>
        <time>2012-12-29T09:33:31.000Z</time>
      </trkpt>
      <trkpt lat="43.24139" lon="-0.22841">
        <ele>417.60000610352</ele>
        <time>2012-12-29T09:33:34.000Z</time>
      </trkpt>
      <trkpt lat="43.24133" lon="-0.22835">
        <ele>418.20001220703</ele>
        <time>2012-12-29T09:33:37.000Z</time>
      </trkpt>
      <trkpt lat="43.2413" lon="-0.22833">
        <ele>418.60000610352</ele>
        <time>2012-12-29T09:33:38.000Z</time>
      </trkpt>
      <trkpt lat="43.24128" lon="-0.22831">
        <ele>419</ele>
        <time>2012-12-29T09:33:39.000Z</time>
      </trkpt>
      <trkpt lat="43.24125" lon="-0.2283">
        <ele>419.20001220703</ele>
        <time>2012-12-29T09:33:40.000Z</time>
      </trkpt>
      <trkpt lat="43.24123" lon="-0.22828">
        <ele>420</ele>
        <time>2012-12-29T09:33:41.000Z</time>
      </trkpt>
      <trkpt lat="43.24119" lon="-0.22824">
        <ele>420</ele>
        <time>2012-12-29T09:33:43.000Z</time>
      </trkpt>
      <trkpt lat="43.24116" lon="-0.22819">
        <ele>420</ele>
        <time>2012-12-29T09:33:45.000Z</time>
      </trkpt>
      <trkpt lat="43.24111" lon="-0.22808">
        <ele>420</ele>
        <time>2012-12-29T09:33:49.000Z</time>
      </trkpt>
      <trkpt lat="43.24107" lon="-0.22802">
        <ele>420.20001220703</ele>
        <time>2012-12-29T09:33:51.000Z</time>
      </trkpt>
      <trkpt lat="43.24105" lon="-0.22801">
        <ele>420.60000610352</ele>
        <time>2012-12-29T09:33:52.000Z</time>
      </trkpt>
      <trkpt lat="43.24104" lon="-0.22799">
        <ele>421.20001220703</ele>
        <time>2012-12-29T09:33:53.000Z</time>
      </trkpt>
      <trkpt lat="43.24102" lon="-0.22798">
        <ele>421.60000610352</ele>
        <time>2012-12-29T09:33:54.000Z</time>
      </trkpt>
      <trkpt lat="43.24101" lon="-0.22795">
        <ele>422</ele>
        <time>2012-12-29T09:33:55.000Z</time>
      </trkpt>
      <trkpt lat="43.24095" lon="-0.22787">
        <ele>422</ele>
        <time>2012-12-29T09:33:59.000Z</time>
      </trkpt>
      <trkpt lat="43.24089" lon="-0.22769">
        <ele>422</ele>
        <time>2012-12-29T09:34:06.000Z</time>
      </trkpt>
      <trkpt lat="43.2408" lon="-0.22755">
        <ele>422</ele>
        <time>2012-12-29T09:34:11.000Z</time>
      </trkpt>
      <trkpt lat="43.24077" lon="-0.22752">
        <ele>422</ele>
        <time>2012-12-29T09:34:12.000Z</time>
      </trkpt>
      <trkpt lat="43.24069" lon="-0.22742">
        <ele>422.20001220703</ele>
        <time>2012-12-29T09:34:16.000Z</time>
      </trkpt>
      <trkpt lat="43.24067" lon="-0.2274">
        <ele>422.60000610352</ele>
        <time>2012-12-29T09:34:17.000Z</time>
      </trkpt>
      <trkpt lat="43.24066" lon="-0.22738">
        <ele>423.20001220703</ele>
        <time>2012-12-29T09:34:18.000Z</time>
      </trkpt>
      <trkpt lat="43.24064" lon="-0.22735">
        <ele>423.60000610352</ele>
        <time>2012-12-29T09:34:19.000Z</time>
      </trkpt>
      <trkpt lat="43.24061" lon="-0.22732">
        <ele>424</ele>
        <time>2012-12-29T09:34:20.000Z</time>
      </trkpt>
      <trkpt lat="43.24052" lon="-0.22723">
        <ele>424</ele>
        <time>2012-12-29T09:34:23.000Z</time>
      </trkpt>
      <trkpt lat="43.24041" lon="-0.22712">
        <ele>424</ele>
        <time>2012-12-29T09:34:27.000Z</time>
      </trkpt>
      <trkpt lat="43.24039" lon="-0.22711">
        <ele>424</ele>
        <time>2012-12-29T09:34:28.000Z</time>
      </trkpt>
      <trkpt lat="43.24035" lon="-0.22699">
        <ele>424</ele>
        <time>2012-12-29T09:34:33.000Z</time>
      </trkpt>
      <trkpt lat="43.24032" lon="-0.22688">
        <ele>424</ele>
        <time>2012-12-29T09:34:39.000Z</time>
      </trkpt>
      <trkpt lat="43.2403" lon="-0.22679">
        <ele>424</ele>
        <time>2012-12-29T09:34:44.000Z</time>
      </trkpt>
      <trkpt lat="43.24029" lon="-0.22675">
        <ele>424</ele>
        <time>2012-12-29T09:34:46.000Z</time>
      </trkpt>
      <trkpt lat="43.24013" lon="-0.22678">
        <ele>424</ele>
        <time>2012-12-29T09:38:26.000Z</time>
      </trkpt>
      <trkpt lat="43.24013" lon="-0.22674">
        <ele>424</ele>
        <time>2012-12-29T09:38:27.000Z</time>
      </trkpt>
      <trkpt lat="43.24017" lon="-0.22658">
        <ele>424</ele>
        <time>2012-12-29T09:38:31.000Z</time>
      </trkpt>
      <trkpt lat="43.24018" lon="-0.22654">
        <ele>424</ele>
        <time>2012-12-29T09:38:32.000Z</time>
      </trkpt>
      <trkpt lat="43.24016" lon="-0.22638">
        <ele>423.60000610352</ele>
        <time>2012-12-29T09:38:36.000Z</time>
      </trkpt>
      <trkpt lat="43.24015" lon="-0.22635">
        <ele>423.20001220703</ele>
        <time>2012-12-29T09:38:37.000Z</time>
      </trkpt>
      <trkpt lat="43.24013" lon="-0.22631">
        <ele>422.60000610352</ele>
        <time>2012-12-29T09:38:38.000Z</time>
      </trkpt>
      <trkpt lat="43.24012" lon="-0.22627">
        <ele>422.20001220703</ele>
        <time>2012-12-29T09:38:39.000Z</time>
      </trkpt>
      <trkpt lat="43.2401" lon="-0.22624">
        <ele>422</ele>
        <time>2012-12-29T09:38:40.000Z</time>
      </trkpt>
      <trkpt lat="43.24009" lon="-0.22621">
        <ele>421.60000610352</ele>
        <time>2012-12-29T09:38:41.000Z</time>
      </trkpt>
      <trkpt lat="43.24007" lon="-0.22618">
        <ele>421.20001220703</ele>
        <time>2012-12-29T09:38:42.000Z</time>
      </trkpt>
      <trkpt lat="43.24006" lon="-0.22615">
        <ele>420.60000610352</ele>
        <time>2012-12-29T09:38:43.000Z</time>
      </trkpt>
      <trkpt lat="43.24004" lon="-0.22613">
        <ele>420.20001220703</ele>
        <time>2012-12-29T09:38:44.000Z</time>
      </trkpt>
      <trkpt lat="43.24002" lon="-0.2261">
        <ele>420</ele>
        <time>2012-12-29T09:38:45.000Z</time>
      </trkpt>
      <trkpt lat="43.24001" lon="-0.22607">
        <ele>419.60000610352</ele>
        <time>2012-12-29T09:38:46.000Z</time>
      </trkpt>
      <trkpt lat="43.24" lon="-0.22603">
        <ele>419.20001220703</ele>
        <time>2012-12-29T09:38:47.000Z</time>
      </trkpt>
      <trkpt lat="43.24" lon="-0.226">
        <ele>418.60000610352</ele>
        <time>2012-12-29T09:38:48.000Z</time>
      </trkpt>
      <trkpt lat="43.24" lon="-0.22596">
        <ele>418.20001220703</ele>
        <time>2012-12-29T09:38:49.000Z</time>
      </trkpt>
      <trkpt lat="43.23999" lon="-0.22591">
        <ele>417.60000610352</ele>
        <time>2012-12-29T09:38:50.000Z</time>
      </trkpt>
      <trkpt lat="43.23997" lon="-0.22587">
        <ele>417.60000610352</ele>
        <time>2012-12-29T09:38:51.000Z</time>
      </trkpt>
      <trkpt lat="43.23995" lon="-0.22577">
        <ele>417.20001220703</ele>
        <time>2012-12-29T09:38:53.000Z</time>
      </trkpt>
      <trkpt lat="43.23994" lon="-0.22572">
        <ele>416.60000610352</ele>
        <time>2012-12-29T09:38:54.000Z</time>
      </trkpt>
      <trkpt lat="43.23993" lon="-0.22567">
        <ele>416.20001220703</ele>
        <time>2012-12-29T09:38:55.000Z</time>
      </trkpt>
      <trkpt lat="43.23992" lon="-0.22561">
        <ele>415.60000610352</ele>
        <time>2012-12-29T09:38:56.000Z</time>
      </trkpt>
      <trkpt lat="43.2399" lon="-0.22555">
        <ele>415.20001220703</ele>
        <time>2012-12-29T09:38:57.000Z</time>
      </trkpt>
      <trkpt lat="43.23986" lon="-0.22544">
        <ele>415.20001220703</ele>
        <time>2012-12-29T09:38:59.000Z</time>
      </trkpt>
      <trkpt lat="43.23985" lon="-0.2254">
        <ele>415.20001220703</ele>
        <time>2012-12-29T09:39:00.000Z</time>
      </trkpt>
      <trkpt lat="43.2398" lon="-0.22523">
        <ele>415.20001220703</ele>
        <time>2012-12-29T09:39:04.000Z</time>
      </trkpt>
      <trkpt lat="43.23978" lon="-0.22505">
        <ele>414.60000610352</ele>
        <time>2012-12-29T09:39:09.000Z</time>
      </trkpt>
      <trkpt lat="43.23978" lon="-0.22502">
        <ele>414.20001220703</ele>
        <time>2012-12-29T09:39:10.000Z</time>
      </trkpt>
      <trkpt lat="43.23978" lon="-0.22497">
        <ele>414</ele>
        <time>2012-12-29T09:39:11.000Z</time>
      </trkpt>
      <trkpt lat="43.23977" lon="-0.22493">
        <ele>413.60000610352</ele>
        <time>2012-12-29T09:39:12.000Z</time>
      </trkpt>
      <trkpt lat="43.23976" lon="-0.22489">
        <ele>413.20001220703</ele>
        <time>2012-12-29T09:39:13.000Z</time>
      </trkpt>
      <trkpt lat="43.23976" lon="-0.2248">
        <ele>413.20001220703</ele>
        <time>2012-12-29T09:39:15.000Z</time>
      </trkpt>
      <trkpt lat="43.2397" lon="-0.22464">
        <ele>413.20001220703</ele>
        <time>2012-12-29T09:39:19.000Z</time>
      </trkpt>
      <trkpt lat="43.23969" lon="-0.2246">
        <ele>413.20001220703</ele>
        <time>2012-12-29T09:39:20.000Z</time>
      </trkpt>
      <trkpt lat="43.23966" lon="-0.2244">
        <ele>413.20001220703</ele>
        <time>2012-12-29T09:39:25.000Z</time>
      </trkpt>
      <trkpt lat="43.23962" lon="-0.22414">
        <ele>413.20001220703</ele>
        <time>2012-12-29T09:39:31.000Z</time>
      </trkpt>
      <trkpt lat="43.2396" lon="-0.22393">
        <ele>413.20001220703</ele>
        <time>2012-12-29T09:39:36.000Z</time>
      </trkpt>
      <trkpt lat="43.23958" lon="-0.22377">
        <ele>413.20001220703</ele>
        <time>2012-12-29T09:39:41.000Z</time>
      </trkpt>
      <trkpt lat="43.23956" lon="-0.22351">
        <ele>413.20001220703</ele>
        <time>2012-12-29T09:39:47.000Z</time>
      </trkpt>
      <trkpt lat="43.23951" lon="-0.2233">
        <ele>413.20001220703</ele>
        <time>2012-12-29T09:39:52.000Z</time>
      </trkpt>
      <trkpt lat="43.23951" lon="-0.22317">
        <ele>413.20001220703</ele>
        <time>2012-12-29T09:39:56.000Z</time>
      </trkpt>
      <trkpt lat="43.23952" lon="-0.22302">
        <ele>413.20001220703</ele>
        <time>2012-12-29T09:40:00.000Z</time>
      </trkpt>
      <trkpt lat="43.23948" lon="-0.22279">
        <ele>413.20001220703</ele>
        <time>2012-12-29T09:40:05.000Z</time>
      </trkpt>
      <trkpt lat="43.23945" lon="-0.22256">
        <ele>413.20001220703</ele>
        <time>2012-12-29T09:40:10.000Z</time>
      </trkpt>
      <trkpt lat="43.23943" lon="-0.22236">
        <ele>413.20001220703</ele>
        <time>2012-12-29T09:40:15.000Z</time>
      </trkpt>
      <trkpt lat="43.23942" lon="-0.22232">
        <ele>413.20001220703</ele>
        <time>2012-12-29T09:40:16.000Z</time>
      </trkpt>
      <trkpt lat="43.23931" lon="-0.22208">
        <ele>413.20001220703</ele>
        <time>2012-12-29T09:40:22.000Z</time>
      </trkpt>
      <trkpt lat="43.2393" lon="-0.22204">
        <ele>413.20001220703</ele>
        <time>2012-12-29T09:40:23.000Z</time>
      </trkpt>
      <trkpt lat="43.23925" lon="-0.22193">
        <ele>413.20001220703</ele>
        <time>2012-12-29T09:40:26.000Z</time>
      </trkpt>
      <trkpt lat="43.23923" lon="-0.2219">
        <ele>413.20001220703</ele>
        <time>2012-12-29T09:40:27.000Z</time>
      </trkpt>
      <trkpt lat="43.23918" lon="-0.22178">
        <ele>413.20001220703</ele>
        <time>2012-12-29T09:40:30.000Z</time>
      </trkpt>
      <trkpt lat="43.23914" lon="-0.22168">
        <ele>413.20001220703</ele>
        <time>2012-12-29T09:40:33.000Z</time>
      </trkpt>
      <trkpt lat="43.23911" lon="-0.22162">
        <ele>413.20001220703</ele>
        <time>2012-12-29T09:40:35.000Z</time>
      </trkpt>
      <trkpt lat="43.23908" lon="-0.22156">
        <ele>413.20001220703</ele>
        <time>2012-12-29T09:40:37.000Z</time>
      </trkpt>
      <trkpt lat="43.23904" lon="-0.22146">
        <ele>413.20001220703</ele>
        <time>2012-12-29T09:40:40.000Z</time>
      </trkpt>
      <trkpt lat="43.23902" lon="-0.2214">
        <ele>413.20001220703</ele>
        <time>2012-12-29T09:40:42.000Z</time>
      </trkpt>
      <trkpt lat="43.23898" lon="-0.22124">
        <ele>413.20001220703</ele>
        <time>2012-12-29T09:40:46.000Z</time>
      </trkpt>
      <trkpt lat="43.23892" lon="-0.22108">
        <ele>413.20001220703</ele>
        <time>2012-12-29T09:40:51.000Z</time>
      </trkpt>
      <trkpt lat="43.23886" lon="-0.22094">
        <ele>413.20001220703</ele>
        <time>2012-12-29T09:40:55.000Z</time>
      </trkpt>
      <trkpt lat="43.23875" lon="-0.22079">
        <ele>413.20001220703</ele>
        <time>2012-12-29T09:41:00.000Z</time>
      </trkpt>
      <trkpt lat="43.23861" lon="-0.22065">
        <ele>413.20001220703</ele>
        <time>2012-12-29T09:41:06.000Z</time>
      </trkpt>
      <trkpt lat="43.23851" lon="-0.22054">
        <ele>413.20001220703</ele>
        <time>2012-12-29T09:41:11.000Z</time>
      </trkpt>
      <trkpt lat="43.23839" lon="-0.2204">
        <ele>413.20001220703</ele>
        <time>2012-12-29T09:41:17.000Z</time>
      </trkpt>
      <trkpt lat="43.23832" lon="-0.22031">
        <ele>413.20001220703</ele>
        <time>2012-12-29T09:41:22.000Z</time>
      </trkpt>
      <trkpt lat="43.2383" lon="-0.22031">
        <ele>413.20001220703</ele>
        <time>2012-12-29T09:41:23.000Z</time>
      </trkpt>
      <trkpt lat="43.23824" lon="-0.22026">
        <ele>413.20001220703</ele>
        <time>2012-12-29T09:41:26.000Z</time>
      </trkpt>
      <trkpt lat="43.23822" lon="-0.22024">
        <ele>413.20001220703</ele>
        <time>2012-12-29T09:41:27.000Z</time>
      </trkpt>
      <trkpt lat="43.23817" lon="-0.22017">
        <ele>413.20001220703</ele>
        <time>2012-12-29T09:41:30.000Z</time>
      </trkpt>
      <trkpt lat="43.23811" lon="-0.22008">
        <ele>413.20001220703</ele>
        <time>2012-12-29T09:41:33.000Z</time>
      </trkpt>
      <trkpt lat="43.23803" lon="-0.21997">
        <ele>413.20001220703</ele>
        <time>2012-12-29T09:41:37.000Z</time>
      </trkpt>
      <trkpt lat="43.23797" lon="-0.21988">
        <ele>413.20001220703</ele>
        <time>2012-12-29T09:41:41.000Z</time>
      </trkpt>
      <trkpt lat="43.2379" lon="-0.21977">
        <ele>413.20001220703</ele>
        <time>2012-12-29T09:41:45.000Z</time>
      </trkpt>
      <trkpt lat="43.23781" lon="-0.2196">
        <ele>413.20001220703</ele>
        <time>2012-12-29T09:41:51.000Z</time>
      </trkpt>
      <trkpt lat="43.23773" lon="-0.21945">
        <ele>413.20001220703</ele>
        <time>2012-12-29T09:41:56.000Z</time>
      </trkpt>
      <trkpt lat="43.2376" lon="-0.21926">
        <ele>413.20001220703</ele>
        <time>2012-12-29T09:42:02.000Z</time>
      </trkpt>
      <trkpt lat="43.23754" lon="-0.21911">
        <ele>413.60000610352</ele>
        <time>2012-12-29T09:42:07.000Z</time>
      </trkpt>
      <trkpt lat="43.23752" lon="-0.21908">
        <ele>414</ele>
        <time>2012-12-29T09:42:08.000Z</time>
      </trkpt>
      <trkpt lat="43.23751" lon="-0.21905">
        <ele>414.20001220703</ele>
        <time>2012-12-29T09:42:09.000Z</time>
      </trkpt>
      <trkpt lat="43.2375" lon="-0.21901">
        <ele>414.60000610352</ele>
        <time>2012-12-29T09:42:10.000Z</time>
      </trkpt>
      <trkpt lat="43.23747" lon="-0.21897">
        <ele>415.20001220703</ele>
        <time>2012-12-29T09:42:11.000Z</time>
      </trkpt>
      <trkpt lat="43.23745" lon="-0.2189">
        <ele>415.20001220703</ele>
        <time>2012-12-29T09:42:13.000Z</time>
      </trkpt>
      <trkpt lat="43.23735" lon="-0.21871">
        <ele>415.20001220703</ele>
        <time>2012-12-29T09:42:19.000Z</time>
      </trkpt>
      <trkpt lat="43.23727" lon="-0.21856">
        <ele>415.20001220703</ele>
        <time>2012-12-29T09:42:25.000Z</time>
      </trkpt>
      <trkpt lat="43.2372" lon="-0.21837">
        <ele>415.20001220703</ele>
        <time>2012-12-29T09:42:31.000Z</time>
      </trkpt>
      <trkpt lat="43.23714" lon="-0.21819">
        <ele>415.20001220703</ele>
        <time>2012-12-29T09:42:36.000Z</time>
      </trkpt>
      <trkpt lat="43.23708" lon="-0.2181">
        <ele>415.20001220703</ele>
        <time>2012-12-29T09:42:39.000Z</time>
      </trkpt>
      <trkpt lat="43.23706" lon="-0.21807">
        <ele>414.60000610352</ele>
        <time>2012-12-29T09:42:40.000Z</time>
      </trkpt>
      <trkpt lat="43.23704" lon="-0.21804">
        <ele>414.20001220703</ele>
        <time>2012-12-29T09:42:41.000Z</time>
      </trkpt>
      <trkpt lat="43.23702" lon="-0.218">
        <ele>414</ele>
        <time>2012-12-29T09:42:42.000Z</time>
      </trkpt>
      <trkpt lat="43.237" lon="-0.21798">
        <ele>413.60000610352</ele>
        <time>2012-12-29T09:42:43.000Z</time>
      </trkpt>
      <trkpt lat="43.23699" lon="-0.21795">
        <ele>413.20001220703</ele>
        <time>2012-12-29T09:42:44.000Z</time>
      </trkpt>
      <trkpt lat="43.23698" lon="-0.21791">
        <ele>413.20001220703</ele>
        <time>2012-12-29T09:42:45.000Z</time>
      </trkpt>
      <trkpt lat="43.23693" lon="-0.21775">
        <ele>412.60000610352</ele>
        <time>2012-12-29T09:42:50.000Z</time>
      </trkpt>
      <trkpt lat="43.23692" lon="-0.21772">
        <ele>412.20001220703</ele>
        <time>2012-12-29T09:42:51.000Z</time>
      </trkpt>
      <trkpt lat="43.23691" lon="-0.21768">
        <ele>411.60000610352</ele>
        <time>2012-12-29T09:42:52.000Z</time>
      </trkpt>
      <trkpt lat="43.2369" lon="-0.21764">
        <ele>411</ele>
        <time>2012-12-29T09:42:53.000Z</time>
      </trkpt>
      <trkpt lat="43.23688" lon="-0.21761">
        <ele>410.20001220703</ele>
        <time>2012-12-29T09:42:54.000Z</time>
      </trkpt>
      <trkpt lat="43.23686" lon="-0.21757">
        <ele>409.60000610352</ele>
        <time>2012-12-29T09:42:55.000Z</time>
      </trkpt>
      <trkpt lat="43.23684" lon="-0.21754">
        <ele>409.20001220703</ele>
        <time>2012-12-29T09:42:56.000Z</time>
      </trkpt>
      <trkpt lat="43.23682" lon="-0.2175">
        <ele>408.20001220703</ele>
        <time>2012-12-29T09:42:57.000Z</time>
      </trkpt>
      <trkpt lat="43.23679" lon="-0.21742">
        <ele>408</ele>
        <time>2012-12-29T09:42:59.000Z</time>
      </trkpt>
      <trkpt lat="43.23677" lon="-0.21738">
        <ele>407.20001220703</ele>
        <time>2012-12-29T09:43:00.000Z</time>
      </trkpt>
      <trkpt lat="43.23676" lon="-0.21734">
        <ele>407</ele>
        <time>2012-12-29T09:43:01.000Z</time>
      </trkpt>
      <trkpt lat="43.23675" lon="-0.21731">
        <ele>406.60000610352</ele>
        <time>2012-12-29T09:43:02.000Z</time>
      </trkpt>
      <trkpt lat="43.23674" lon="-0.21726">
        <ele>406</ele>
        <time>2012-12-29T09:43:03.000Z</time>
      </trkpt>
      <trkpt lat="43.23673" lon="-0.21724">
        <ele>405.20001220703</ele>
        <time>2012-12-29T09:43:04.000Z</time>
      </trkpt>
      <trkpt lat="43.23671" lon="-0.2172">
        <ele>405</ele>
        <time>2012-12-29T09:43:05.000Z</time>
      </trkpt>
      <trkpt lat="43.2367" lon="-0.21716">
        <ele>404.20001220703</ele>
        <time>2012-12-29T09:43:06.000Z</time>
      </trkpt>
      <trkpt lat="43.23668" lon="-0.21713">
        <ele>404</ele>
        <time>2012-12-29T09:43:07.000Z</time>
      </trkpt>
      <trkpt lat="43.23666" lon="-0.21709">
        <ele>403.20001220703</ele>
        <time>2012-12-29T09:43:08.000Z</time>
      </trkpt>
      <trkpt lat="43.23663" lon="-0.21704">
        <ele>402.60000610352</ele>
        <time>2012-12-29T09:43:09.000Z</time>
      </trkpt>
      <trkpt lat="43.23661" lon="-0.21701">
        <ele>402.20001220703</ele>
        <time>2012-12-29T09:43:10.000Z</time>
      </trkpt>
      <trkpt lat="43.23658" lon="-0.21696">
        <ele>401.60000610352</ele>
        <time>2012-12-29T09:43:11.000Z</time>
      </trkpt>
      <trkpt lat="43.23655" lon="-0.21692">
        <ele>401.20001220703</ele>
        <time>2012-12-29T09:43:12.000Z</time>
      </trkpt>
      <trkpt lat="43.23653" lon="-0.21688">
        <ele>400.60000610352</ele>
        <time>2012-12-29T09:43:13.000Z</time>
      </trkpt>
      <trkpt lat="43.2365" lon="-0.21684">
        <ele>400.20001220703</ele>
        <time>2012-12-29T09:43:14.000Z</time>
      </trkpt>
      <trkpt lat="43.23647" lon="-0.21681">
        <ele>399.60000610352</ele>
        <time>2012-12-29T09:43:15.000Z</time>
      </trkpt>
      <trkpt lat="43.23645" lon="-0.21677">
        <ele>399</ele>
        <time>2012-12-29T09:43:16.000Z</time>
      </trkpt>
      <trkpt lat="43.23642" lon="-0.2167">
        <ele>398.60000610352</ele>
        <time>2012-12-29T09:43:18.000Z</time>
      </trkpt>
      <trkpt lat="43.2364" lon="-0.21666">
        <ele>398</ele>
        <time>2012-12-29T09:43:19.000Z</time>
      </trkpt>
      <trkpt lat="43.23638" lon="-0.21663">
        <ele>397.60000610352</ele>
        <time>2012-12-29T09:43:20.000Z</time>
      </trkpt>
      <trkpt lat="43.23637" lon="-0.21659">
        <ele>397</ele>
        <time>2012-12-29T09:43:21.000Z</time>
      </trkpt>
      <trkpt lat="43.23635" lon="-0.21655">
        <ele>396.20001220703</ele>
        <time>2012-12-29T09:43:22.000Z</time>
      </trkpt>
      <trkpt lat="43.2363" lon="-0.21647">
        <ele>396</ele>
        <time>2012-12-29T09:43:24.000Z</time>
      </trkpt>
      <trkpt lat="43.23628" lon="-0.21644">
        <ele>395.60000610352</ele>
        <time>2012-12-29T09:43:25.000Z</time>
      </trkpt>
      <trkpt lat="43.23626" lon="-0.21641">
        <ele>395.20001220703</ele>
        <time>2012-12-29T09:43:26.000Z</time>
      </trkpt>
      <trkpt lat="43.23624" lon="-0.21639">
        <ele>394.60000610352</ele>
        <time>2012-12-29T09:43:27.000Z</time>
      </trkpt>
      <trkpt lat="43.23622" lon="-0.21636">
        <ele>394.20001220703</ele>
        <time>2012-12-29T09:43:28.000Z</time>
      </trkpt>
      <trkpt lat="43.23619" lon="-0.21632">
        <ele>394.20001220703</ele>
        <time>2012-12-29T09:43:30.000Z</time>
      </trkpt>
      <trkpt lat="43.23614" lon="-0.21623">
        <ele>393.60000610352</ele>
        <time>2012-12-29T09:43:33.000Z</time>
      </trkpt>
      <trkpt lat="43.23612" lon="-0.2162">
        <ele>393.20001220703</ele>
        <time>2012-12-29T09:43:34.000Z</time>
      </trkpt>
      <trkpt lat="43.23609" lon="-0.21616">
        <ele>392.60000610352</ele>
        <time>2012-12-29T09:43:35.000Z</time>
      </trkpt>
      <trkpt lat="43.23607" lon="-0.21613">
        <ele>392.20001220703</ele>
        <time>2012-12-29T09:43:36.000Z</time>
      </trkpt>
      <trkpt lat="43.23605" lon="-0.2161">
        <ele>392</ele>
        <time>2012-12-29T09:43:37.000Z</time>
      </trkpt>
      <trkpt lat="43.23603" lon="-0.21607">
        <ele>392</ele>
        <time>2012-12-29T09:43:38.000Z</time>
      </trkpt>
      <trkpt lat="43.23592" lon="-0.2159">
        <ele>391.60000610352</ele>
        <time>2012-12-29T09:43:44.000Z</time>
      </trkpt>
      <trkpt lat="43.2359" lon="-0.21587">
        <ele>391.20001220703</ele>
        <time>2012-12-29T09:43:45.000Z</time>
      </trkpt>
      <trkpt lat="43.23587" lon="-0.21584">
        <ele>390.60000610352</ele>
        <time>2012-12-29T09:43:46.000Z</time>
      </trkpt>
      <trkpt lat="43.23585" lon="-0.21581">
        <ele>390.20001220703</ele>
        <time>2012-12-29T09:43:47.000Z</time>
      </trkpt>
      <trkpt lat="43.23583" lon="-0.21577">
        <ele>389.60000610352</ele>
        <time>2012-12-29T09:43:48.000Z</time>
      </trkpt>
      <trkpt lat="43.23581" lon="-0.21574">
        <ele>389.60000610352</ele>
        <time>2012-12-29T09:43:49.000Z</time>
      </trkpt>
      <trkpt lat="43.23576" lon="-0.21563">
        <ele>389.20001220703</ele>
        <time>2012-12-29T09:43:52.000Z</time>
      </trkpt>
      <trkpt lat="43.23574" lon="-0.21559">
        <ele>389</ele>
        <time>2012-12-29T09:43:53.000Z</time>
      </trkpt>
      <trkpt lat="43.23573" lon="-0.21557">
        <ele>388.20001220703</ele>
        <time>2012-12-29T09:43:54.000Z</time>
      </trkpt>
      <trkpt lat="43.23572" lon="-0.21554">
        <ele>388</ele>
        <time>2012-12-29T09:43:55.000Z</time>
      </trkpt>
      <trkpt lat="43.23572" lon="-0.21552">
        <ele>387.60000610352</ele>
        <time>2012-12-29T09:43:56.000Z</time>
      </trkpt>
      <trkpt lat="43.23571" lon="-0.21551">
        <ele>387.60000610352</ele>
        <time>2012-12-29T09:43:57.000Z</time>
      </trkpt>
      <trkpt lat="43.23571" lon="-0.2155">
        <ele>387.60000610352</ele>
        <time>2012-12-29T09:43:58.000Z</time>
      </trkpt>
      <trkpt lat="43.23563" lon="-0.21539">
        <ele>387</ele>
        <time>2012-12-29T09:49:12.000Z</time>
      </trkpt>
      <trkpt lat="43.23562" lon="-0.21538">
        <ele>386.60000610352</ele>
        <time>2012-12-29T09:49:13.000Z</time>
      </trkpt>
      <trkpt lat="43.23561" lon="-0.21537">
        <ele>386.20001220703</ele>
        <time>2012-12-29T09:49:14.000Z</time>
      </trkpt>
      <trkpt lat="43.2356" lon="-0.21535">
        <ele>385.60000610352</ele>
        <time>2012-12-29T09:49:15.000Z</time>
      </trkpt>
      <trkpt lat="43.23559" lon="-0.21533">
        <ele>385.20001220703</ele>
        <time>2012-12-29T09:49:16.000Z</time>
      </trkpt>
      <trkpt lat="43.23555" lon="-0.21526">
        <ele>385.20001220703</ele>
        <time>2012-12-29T09:49:19.000Z</time>
      </trkpt>
      <trkpt lat="43.23552" lon="-0.21521">
        <ele>385.20001220703</ele>
        <time>2012-12-29T09:49:21.000Z</time>
      </trkpt>
      <trkpt lat="43.23542" lon="-0.21507">
        <ele>385.20001220703</ele>
        <time>2012-12-29T09:49:28.000Z</time>
      </trkpt>
      <trkpt lat="43.23537" lon="-0.21499">
        <ele>384.60000610352</ele>
        <time>2012-12-29T09:49:32.000Z</time>
      </trkpt>
      <trkpt lat="43.23536" lon="-0.21497">
        <ele>384.20001220703</ele>
        <time>2012-12-29T09:49:33.000Z</time>
      </trkpt>
      <trkpt lat="43.23535" lon="-0.21494">
        <ele>383.60000610352</ele>
        <time>2012-12-29T09:49:34.000Z</time>
      </trkpt>
      <trkpt lat="43.23534" lon="-0.21492">
        <ele>383.20001220703</ele>
        <time>2012-12-29T09:49:35.000Z</time>
      </trkpt>
      <trkpt lat="43.23533" lon="-0.2149">
        <ele>383</ele>
        <time>2012-12-29T09:49:36.000Z</time>
      </trkpt>
      <trkpt lat="43.2353" lon="-0.21486">
        <ele>383</ele>
        <time>2012-12-29T09:49:38.000Z</time>
      </trkpt>
      <trkpt lat="43.23525" lon="-0.21482">
        <ele>383</ele>
        <time>2012-12-29T09:49:40.000Z</time>
      </trkpt>
      <trkpt lat="43.2351" lon="-0.21473">
        <ele>383</ele>
        <time>2012-12-29T09:49:46.000Z</time>
      </trkpt>
      <trkpt lat="43.23501" lon="-0.21469">
        <ele>382.60000610352</ele>
        <time>2012-12-29T09:49:49.000Z</time>
      </trkpt>
      <trkpt lat="43.23498" lon="-0.21468">
        <ele>382</ele>
        <time>2012-12-29T09:49:50.000Z</time>
      </trkpt>
      <trkpt lat="43.23495" lon="-0.21466">
        <ele>381.60000610352</ele>
        <time>2012-12-29T09:49:51.000Z</time>
      </trkpt>
      <trkpt lat="43.23491" lon="-0.21464">
        <ele>381.20001220703</ele>
        <time>2012-12-29T09:49:52.000Z</time>
      </trkpt>
      <trkpt lat="43.23488" lon="-0.21462">
        <ele>380.60000610352</ele>
        <time>2012-12-29T09:49:53.000Z</time>
      </trkpt>
      <trkpt lat="43.23471" lon="-0.21445">
        <ele>380.60000610352</ele>
        <time>2012-12-29T09:49:59.000Z</time>
      </trkpt>
      <trkpt lat="43.23466" lon="-0.2144">
        <ele>380.20001220703</ele>
        <time>2012-12-29T09:50:01.000Z</time>
      </trkpt>
      <trkpt lat="43.23464" lon="-0.21437">
        <ele>379.60000610352</ele>
        <time>2012-12-29T09:50:02.000Z</time>
      </trkpt>
      <trkpt lat="43.23463" lon="-0.21434">
        <ele>379.20001220703</ele>
        <time>2012-12-29T09:50:03.000Z</time>
      </trkpt>
      <trkpt lat="43.23462" lon="-0.21431">
        <ele>378.60000610352</ele>
        <time>2012-12-29T09:50:04.000Z</time>
      </trkpt>
      <trkpt lat="43.23462" lon="-0.21428">
        <ele>378.20001220703</ele>
        <time>2012-12-29T09:50:05.000Z</time>
      </trkpt>
      <trkpt lat="43.23459" lon="-0.21411">
        <ele>378.20001220703</ele>
        <time>2012-12-29T09:50:10.000Z</time>
      </trkpt>
      <trkpt lat="43.23449" lon="-0.21395">
        <ele>378.20001220703</ele>
        <time>2012-12-29T09:50:15.000Z</time>
      </trkpt>
      <trkpt lat="43.23438" lon="-0.21374">
        <ele>378.20001220703</ele>
        <time>2012-12-29T09:50:22.000Z</time>
      </trkpt>
      <trkpt lat="43.23432" lon="-0.21355">
        <ele>378.20001220703</ele>
        <time>2012-12-29T09:50:28.000Z</time>
      </trkpt>
      <trkpt lat="43.23421" lon="-0.21328">
        <ele>378.20001220703</ele>
        <time>2012-12-29T09:50:36.000Z</time>
      </trkpt>
      <trkpt lat="43.23407" lon="-0.21301">
        <ele>378.20001220703</ele>
        <time>2012-12-29T09:50:43.000Z</time>
      </trkpt>
      <trkpt lat="43.23396" lon="-0.21282">
        <ele>378.20001220703</ele>
        <time>2012-12-29T09:50:49.000Z</time>
      </trkpt>
      <trkpt lat="43.23385" lon="-0.21262">
        <ele>378.20001220703</ele>
        <time>2012-12-29T09:50:56.000Z</time>
      </trkpt>
      <trkpt lat="43.23374" lon="-0.21239">
        <ele>378.20001220703</ele>
        <time>2012-12-29T09:51:03.000Z</time>
      </trkpt>
      <trkpt lat="43.23371" lon="-0.21235">
        <ele>378.20001220703</ele>
        <time>2012-12-29T09:51:04.000Z</time>
      </trkpt>
      <trkpt lat="43.23365" lon="-0.21224">
        <ele>378.20001220703</ele>
        <time>2012-12-29T09:51:06.000Z</time>
      </trkpt>
      <trkpt lat="43.23351" lon="-0.2121">
        <ele>378.20001220703</ele>
        <time>2012-12-29T09:51:11.000Z</time>
      </trkpt>
      <trkpt lat="43.2334" lon="-0.21195">
        <ele>378.20001220703</ele>
        <time>2012-12-29T09:51:18.000Z</time>
      </trkpt>
      <trkpt lat="43.23327" lon="-0.21179">
        <ele>378.20001220703</ele>
        <time>2012-12-29T09:51:25.000Z</time>
      </trkpt>
      <trkpt lat="43.23314" lon="-0.21166">
        <ele>378.60000610352</ele>
        <time>2012-12-29T09:51:31.000Z</time>
      </trkpt>
      <trkpt lat="43.23311" lon="-0.21163">
        <ele>379.20001220703</ele>
        <time>2012-12-29T09:51:32.000Z</time>
      </trkpt>
      <trkpt lat="43.23309" lon="-0.21161">
        <ele>379.60000610352</ele>
        <time>2012-12-29T09:51:33.000Z</time>
      </trkpt>
      <trkpt lat="43.23307" lon="-0.21158">
        <ele>380.20001220703</ele>
        <time>2012-12-29T09:51:34.000Z</time>
      </trkpt>
      <trkpt lat="43.23304" lon="-0.21156">
        <ele>380.60000610352</ele>
        <time>2012-12-29T09:51:35.000Z</time>
      </trkpt>
      <trkpt lat="43.23298" lon="-0.21148">
        <ele>380.60000610352</ele>
        <time>2012-12-29T09:51:38.000Z</time>
      </trkpt>
      <trkpt lat="43.23291" lon="-0.21137">
        <ele>380.60000610352</ele>
        <time>2012-12-29T09:51:43.000Z</time>
      </trkpt>
      <trkpt lat="43.23283" lon="-0.21129">
        <ele>381.20001220703</ele>
        <time>2012-12-29T09:51:48.000Z</time>
      </trkpt>
      <trkpt lat="43.23282" lon="-0.21127">
        <ele>381.60000610352</ele>
        <time>2012-12-29T09:51:49.000Z</time>
      </trkpt>
      <trkpt lat="43.2328" lon="-0.21125">
        <ele>382.20001220703</ele>
        <time>2012-12-29T09:51:50.000Z</time>
      </trkpt>
      <trkpt lat="43.23279" lon="-0.21123">
        <ele>382.60000610352</ele>
        <time>2012-12-29T09:51:51.000Z</time>
      </trkpt>
      <trkpt lat="43.23278" lon="-0.21121">
        <ele>383</ele>
        <time>2012-12-29T09:51:52.000Z</time>
      </trkpt>
      <trkpt lat="43.23275" lon="-0.21117">
        <ele>383</ele>
        <time>2012-12-29T09:51:54.000Z</time>
      </trkpt>
      <trkpt lat="43.23267" lon="-0.21104">
        <ele>383</ele>
        <time>2012-12-29T09:52:01.000Z</time>
      </trkpt>
      <trkpt lat="43.23262" lon="-0.21097">
        <ele>383.60000610352</ele>
        <time>2012-12-29T09:52:04.000Z</time>
      </trkpt>
      <trkpt lat="43.2326" lon="-0.21095">
        <ele>384</ele>
        <time>2012-12-29T09:52:05.000Z</time>
      </trkpt>
      <trkpt lat="43.23258" lon="-0.21094">
        <ele>384.60000610352</ele>
        <time>2012-12-29T09:52:06.000Z</time>
      </trkpt>
      <trkpt lat="43.23256" lon="-0.21092">
        <ele>385</ele>
        <time>2012-12-29T09:52:07.000Z</time>
      </trkpt>
      <trkpt lat="43.23254" lon="-0.2109">
        <ele>385.60000610352</ele>
        <time>2012-12-29T09:52:08.000Z</time>
      </trkpt>
      <trkpt lat="43.23245" lon="-0.2108">
        <ele>385.60000610352</ele>
        <time>2012-12-29T09:52:13.000Z</time>
      </trkpt>
      <trkpt lat="43.23233" lon="-0.21068">
        <ele>385.60000610352</ele>
        <time>2012-12-29T09:52:20.000Z</time>
      </trkpt>
      <trkpt lat="43.23231" lon="-0.21067">
        <ele>385.60000610352</ele>
        <time>2012-12-29T09:52:21.000Z</time>
      </trkpt>
      <trkpt lat="43.23225" lon="-0.21063">
        <ele>385.60000610352</ele>
        <time>2012-12-29T09:52:25.000Z</time>
      </trkpt>
      <trkpt lat="43.23221" lon="-0.21058">
        <ele>386</ele>
        <time>2012-12-29T09:52:29.000Z</time>
      </trkpt>
      <trkpt lat="43.23219" lon="-0.21056">
        <ele>386.20001220703</ele>
        <time>2012-12-29T09:52:30.000Z</time>
      </trkpt>
      <trkpt lat="43.23218" lon="-0.21055">
        <ele>386.60000610352</ele>
        <time>2012-12-29T09:52:31.000Z</time>
      </trkpt>
      <trkpt lat="43.23216" lon="-0.21053">
        <ele>387.20001220703</ele>
        <time>2012-12-29T09:52:32.000Z</time>
      </trkpt>
      <trkpt lat="43.23215" lon="-0.21052">
        <ele>387.60000610352</ele>
        <time>2012-12-29T09:52:33.000Z</time>
      </trkpt>
      <trkpt lat="43.23208" lon="-0.21045">
        <ele>387.60000610352</ele>
        <time>2012-12-29T09:52:38.000Z</time>
      </trkpt>
      <trkpt lat="43.23206" lon="-0.21044">
        <ele>387.60000610352</ele>
        <time>2012-12-29T09:52:39.000Z</time>
      </trkpt>
      <trkpt lat="43.23205" lon="-0.21043">
        <ele>388</ele>
        <time>2012-12-29T09:52:40.000Z</time>
      </trkpt>
      <trkpt lat="43.23204" lon="-0.21041">
        <ele>388.60000610352</ele>
        <time>2012-12-29T09:52:41.000Z</time>
      </trkpt>
      <trkpt lat="43.23203" lon="-0.2104">
        <ele>389</ele>
        <time>2012-12-29T09:52:42.000Z</time>
      </trkpt>
      <trkpt lat="43.23201" lon="-0.21039">
        <ele>389.20001220703</ele>
        <time>2012-12-29T09:52:43.000Z</time>
      </trkpt>
      <trkpt lat="43.232" lon="-0.21038">
        <ele>389.60000610352</ele>
        <time>2012-12-29T09:52:44.000Z</time>
      </trkpt>
      <trkpt lat="43.23193" lon="-0.2103">
        <ele>389.60000610352</ele>
        <time>2012-12-29T09:52:49.000Z</time>
      </trkpt>
      <trkpt lat="43.23188" lon="-0.21026">
        <ele>390.20001220703</ele>
        <time>2012-12-29T09:52:53.000Z</time>
      </trkpt>
      <trkpt lat="43.23187" lon="-0.21025">
        <ele>390.60000610352</ele>
        <time>2012-12-29T09:52:54.000Z</time>
      </trkpt>
      <trkpt lat="43.23185" lon="-0.21024">
        <ele>391</ele>
        <time>2012-12-29T09:52:55.000Z</time>
      </trkpt>
      <trkpt lat="43.23184" lon="-0.21022">
        <ele>391.20001220703</ele>
        <time>2012-12-29T09:52:56.000Z</time>
      </trkpt>
      <trkpt lat="43.23182" lon="-0.21021">
        <ele>392</ele>
        <time>2012-12-29T09:52:57.000Z</time>
      </trkpt>
      <trkpt lat="43.23181" lon="-0.2102">
        <ele>392</ele>
        <time>2012-12-29T09:52:58.000Z</time>
      </trkpt>
      <trkpt lat="43.23175" lon="-0.21013">
        <ele>392.20001220703</ele>
        <time>2012-12-29T09:53:03.000Z</time>
      </trkpt>
      <trkpt lat="43.23174" lon="-0.21012">
        <ele>392.60000610352</ele>
        <time>2012-12-29T09:53:04.000Z</time>
      </trkpt>
      <trkpt lat="43.23173" lon="-0.21011">
        <ele>393.20001220703</ele>
        <time>2012-12-29T09:53:05.000Z</time>
      </trkpt>
      <trkpt lat="43.23171" lon="-0.2101">
        <ele>393.60000610352</ele>
        <time>2012-12-29T09:53:06.000Z</time>
      </trkpt>
      <trkpt lat="43.2317" lon="-0.21009">
        <ele>394</ele>
        <time>2012-12-29T09:53:07.000Z</time>
      </trkpt>
      <trkpt lat="43.23167" lon="-0.21008">
        <ele>394.20001220703</ele>
        <time>2012-12-29T09:53:09.000Z</time>
      </trkpt>
      <trkpt lat="43.23165" lon="-0.21007">
        <ele>394.60000610352</ele>
        <time>2012-12-29T09:53:10.000Z</time>
      </trkpt>
      <trkpt lat="43.23164" lon="-0.21006">
        <ele>395.20001220703</ele>
        <time>2012-12-29T09:53:11.000Z</time>
      </trkpt>
      <trkpt lat="43.23162" lon="-0.21005">
        <ele>395.60000610352</ele>
        <time>2012-12-29T09:53:12.000Z</time>
      </trkpt>
      <trkpt lat="43.23161" lon="-0.21004">
        <ele>396.20001220703</ele>
        <time>2012-12-29T09:53:13.000Z</time>
      </trkpt>
      <trkpt lat="43.23151" lon="-0.20998">
        <ele>396.20001220703</ele>
        <time>2012-12-29T09:53:18.000Z</time>
      </trkpt>
      <trkpt lat="43.23138" lon="-0.20988">
        <ele>396.20001220703</ele>
        <time>2012-12-29T09:53:25.000Z</time>
      </trkpt>
      <trkpt lat="43.23126" lon="-0.2098">
        <ele>396.60000610352</ele>
        <time>2012-12-29T09:53:32.000Z</time>
      </trkpt>
      <trkpt lat="43.23125" lon="-0.20979">
        <ele>397</ele>
        <time>2012-12-29T09:53:33.000Z</time>
      </trkpt>
      <trkpt lat="43.23124" lon="-0.20977">
        <ele>397.20001220703</ele>
        <time>2012-12-29T09:53:34.000Z</time>
      </trkpt>
      <trkpt lat="43.23122" lon="-0.20976">
        <ele>398</ele>
        <time>2012-12-29T09:53:35.000Z</time>
      </trkpt>
      <trkpt lat="43.23121" lon="-0.20974">
        <ele>398.20001220703</ele>
        <time>2012-12-29T09:53:36.000Z</time>
      </trkpt>
      <trkpt lat="43.23115" lon="-0.20968">
        <ele>398.20001220703</ele>
        <time>2012-12-29T09:53:40.000Z</time>
      </trkpt>
      <trkpt lat="43.23111" lon="-0.20965">
        <ele>398.60000610352</ele>
        <time>2012-12-29T09:53:43.000Z</time>
      </trkpt>
      <trkpt lat="43.23109" lon="-0.20963">
        <ele>399.20001220703</ele>
        <time>2012-12-29T09:53:44.000Z</time>
      </trkpt>
      <trkpt lat="43.23108" lon="-0.20962">
        <ele>399.60000610352</ele>
        <time>2012-12-29T09:53:45.000Z</time>
      </trkpt>
      <trkpt lat="43.23106" lon="-0.2096">
        <ele>400.20001220703</ele>
        <time>2012-12-29T09:53:46.000Z</time>
      </trkpt>
      <trkpt lat="43.23105" lon="-0.20959">
        <ele>400.60000610352</ele>
        <time>2012-12-29T09:53:47.000Z</time>
      </trkpt>
      <trkpt lat="43.23096" lon="-0.2095">
        <ele>400.60000610352</ele>
        <time>2012-12-29T09:53:53.000Z</time>
      </trkpt>
      <trkpt lat="43.23094" lon="-0.20948">
        <ele>401</ele>
        <time>2012-12-29T09:53:55.000Z</time>
      </trkpt>
      <trkpt lat="43.23093" lon="-0.20946">
        <ele>401.20001220703</ele>
        <time>2012-12-29T09:53:56.000Z</time>
      </trkpt>
      <trkpt lat="43.23091" lon="-0.20945">
        <ele>401.60000610352</ele>
        <time>2012-12-29T09:53:57.000Z</time>
      </trkpt>
      <trkpt lat="43.23088" lon="-0.20942">
        <ele>402.60000610352</ele>
        <time>2012-12-29T09:53:59.000Z</time>
      </trkpt>
      <trkpt lat="43.23078" lon="-0.20936">
        <ele>403</ele>
        <time>2012-12-29T09:54:04.000Z</time>
      </trkpt>
      <trkpt lat="43.23074" lon="-0.20933">
        <ele>404</ele>
        <time>2012-12-29T09:54:06.000Z</time>
      </trkpt>
      <trkpt lat="43.23072" lon="-0.20931">
        <ele>404.20001220703</ele>
        <time>2012-12-29T09:54:07.000Z</time>
      </trkpt>
      <trkpt lat="43.2307" lon="-0.2093">
        <ele>404.60000610352</ele>
        <time>2012-12-29T09:54:08.000Z</time>
      </trkpt>
      <trkpt lat="43.23068" lon="-0.20929">
        <ele>404.60000610352</ele>
        <time>2012-12-29T09:54:09.000Z</time>
      </trkpt>
      <trkpt lat="43.23056" lon="-0.2092">
        <ele>405.20001220703</ele>
        <time>2012-12-29T09:54:15.000Z</time>
      </trkpt>
      <trkpt lat="43.23054" lon="-0.20919">
        <ele>405.60000610352</ele>
        <time>2012-12-29T09:54:16.000Z</time>
      </trkpt>
      <trkpt lat="43.23052" lon="-0.20917">
        <ele>406.20001220703</ele>
        <time>2012-12-29T09:54:17.000Z</time>
      </trkpt>
      <trkpt lat="43.2305" lon="-0.20916">
        <ele>406.60000610352</ele>
        <time>2012-12-29T09:54:18.000Z</time>
      </trkpt>
      <trkpt lat="43.23047" lon="-0.20915">
        <ele>407</ele>
        <time>2012-12-29T09:54:19.000Z</time>
      </trkpt>
      <trkpt lat="43.23041" lon="-0.20911">
        <ele>407</ele>
        <time>2012-12-29T09:54:22.000Z</time>
      </trkpt>
      <trkpt lat="43.23029" lon="-0.20904">
        <ele>407</ele>
        <time>2012-12-29T09:54:28.000Z</time>
      </trkpt>
      <trkpt lat="43.23012" lon="-0.20893">
        <ele>407</ele>
        <time>2012-12-29T09:54:36.000Z</time>
      </trkpt>
      <trkpt lat="43.22995" lon="-0.20884">
        <ele>407</ele>
        <time>2012-12-29T09:54:44.000Z</time>
      </trkpt>
      <trkpt lat="43.22993" lon="-0.20882">
        <ele>407.20001220703</ele>
        <time>2012-12-29T09:54:45.000Z</time>
      </trkpt>
      <trkpt lat="43.2299" lon="-0.2088">
        <ele>408</ele>
        <time>2012-12-29T09:54:47.000Z</time>
      </trkpt>
      <trkpt lat="43.22988" lon="-0.20879">
        <ele>408.20001220703</ele>
        <time>2012-12-29T09:54:48.000Z</time>
      </trkpt>
      <trkpt lat="43.22986" lon="-0.20877">
        <ele>408.60000610352</ele>
        <time>2012-12-29T09:54:49.000Z</time>
      </trkpt>
      <trkpt lat="43.22985" lon="-0.20876">
        <ele>409.20001220703</ele>
        <time>2012-12-29T09:54:50.000Z</time>
      </trkpt>
      <trkpt lat="43.22973" lon="-0.20872">
        <ele>409.20001220703</ele>
        <time>2012-12-29T09:54:55.000Z</time>
      </trkpt>
      <trkpt lat="43.22961" lon="-0.20869">
        <ele>409.20001220703</ele>
        <time>2012-12-29T09:55:00.000Z</time>
      </trkpt>
      <trkpt lat="43.22946" lon="-0.20866">
        <ele>409.20001220703</ele>
        <time>2012-12-29T09:55:06.000Z</time>
      </trkpt>
      <trkpt lat="43.22933" lon="-0.20861">
        <ele>409.20001220703</ele>
        <time>2012-12-29T09:55:12.000Z</time>
      </trkpt>
      <trkpt lat="43.22921" lon="-0.20856">
        <ele>409.20001220703</ele>
        <time>2012-12-29T09:55:17.000Z</time>
      </trkpt>
      <trkpt lat="43.22909" lon="-0.20849">
        <ele>409.20001220703</ele>
        <time>2012-12-29T09:55:22.000Z</time>
      </trkpt>
      <trkpt lat="43.229" lon="-0.20842">
        <ele>409.20001220703</ele>
        <time>2012-12-29T09:55:27.000Z</time>
      </trkpt>
      <trkpt lat="43.22899" lon="-0.20841">
        <ele>409.20001220703</ele>
        <time>2012-12-29T09:55:28.000Z</time>
      </trkpt>
      <trkpt lat="43.22894" lon="-0.20835">
        <ele>409.20001220703</ele>
        <time>2012-12-29T09:55:31.000Z</time>
      </trkpt>
      <trkpt lat="43.22886" lon="-0.20835">
        <ele>409.20001220703</ele>
        <time>2012-12-29T09:55:35.000Z</time>
      </trkpt>
      <trkpt lat="43.22884" lon="-0.20836">
        <ele>409.20001220703</ele>
        <time>2012-12-29T09:55:36.000Z</time>
      </trkpt>
      <trkpt lat="43.22882" lon="-0.20843">
        <ele>409.20001220703</ele>
        <time>2012-12-29T09:56:15.000Z</time>
      </trkpt>
      <trkpt lat="43.2288" lon="-0.20842">
        <ele>409.20001220703</ele>
        <time>2012-12-29T09:56:16.000Z</time>
      </trkpt>
      <trkpt lat="43.22869" lon="-0.20834">
        <ele>409.20001220703</ele>
        <time>2012-12-29T09:56:20.000Z</time>
      </trkpt>
      <trkpt lat="43.22856" lon="-0.20823">
        <ele>409.20001220703</ele>
        <time>2012-12-29T09:56:25.000Z</time>
      </trkpt>
      <trkpt lat="43.22854" lon="-0.20822">
        <ele>409.20001220703</ele>
        <time>2012-12-29T09:56:26.000Z</time>
      </trkpt>
      <trkpt lat="43.22844" lon="-0.20808">
        <ele>409.20001220703</ele>
        <time>2012-12-29T09:56:33.000Z</time>
      </trkpt>
      <trkpt lat="43.22836" lon="-0.20797">
        <ele>409.20001220703</ele>
        <time>2012-12-29T09:56:37.000Z</time>
      </trkpt>
      <trkpt lat="43.22819" lon="-0.20777">
        <ele>409.20001220703</ele>
        <time>2012-12-29T09:56:42.000Z</time>
      </trkpt>
      <trkpt lat="43.22814" lon="-0.20769">
        <ele>409.60000610352</ele>
        <time>2012-12-29T09:56:44.000Z</time>
      </trkpt>
      <trkpt lat="43.22811" lon="-0.20764">
        <ele>410.20001220703</ele>
        <time>2012-12-29T09:56:45.000Z</time>
      </trkpt>
      <trkpt lat="43.22808" lon="-0.2076">
        <ele>410.60000610352</ele>
        <time>2012-12-29T09:56:46.000Z</time>
      </trkpt>
      <trkpt lat="43.22805" lon="-0.20757">
        <ele>411</ele>
        <time>2012-12-29T09:56:47.000Z</time>
      </trkpt>
      <trkpt lat="43.22802" lon="-0.20754">
        <ele>411.20001220703</ele>
        <time>2012-12-29T09:56:48.000Z</time>
      </trkpt>
      <trkpt lat="43.22794" lon="-0.20745">
        <ele>412</ele>
        <time>2012-12-29T09:56:52.000Z</time>
      </trkpt>
      <trkpt lat="43.22792" lon="-0.20742">
        <ele>412.20001220703</ele>
        <time>2012-12-29T09:56:53.000Z</time>
      </trkpt>
      <trkpt lat="43.2279" lon="-0.2074">
        <ele>413</ele>
        <time>2012-12-29T09:56:54.000Z</time>
      </trkpt>
      <trkpt lat="43.22788" lon="-0.20737">
        <ele>413.20001220703</ele>
        <time>2012-12-29T09:56:55.000Z</time>
      </trkpt>
      <trkpt lat="43.22786" lon="-0.20734">
        <ele>414</ele>
        <time>2012-12-29T09:56:56.000Z</time>
      </trkpt>
      <trkpt lat="43.22783" lon="-0.20729">
        <ele>414</ele>
        <time>2012-12-29T09:56:58.000Z</time>
      </trkpt>
      <trkpt lat="43.2278" lon="-0.20723">
        <ele>414</ele>
        <time>2012-12-29T09:57:00.000Z</time>
      </trkpt>
      <trkpt lat="43.22778" lon="-0.2072">
        <ele>414.20001220703</ele>
        <time>2012-12-29T09:57:01.000Z</time>
      </trkpt>
      <trkpt lat="43.22776" lon="-0.20717">
        <ele>415</ele>
        <time>2012-12-29T09:57:02.000Z</time>
      </trkpt>
      <trkpt lat="43.22775" lon="-0.20714">
        <ele>415.20001220703</ele>
        <time>2012-12-29T09:57:03.000Z</time>
      </trkpt>
      <trkpt lat="43.22773" lon="-0.20711">
        <ele>416</ele>
        <time>2012-12-29T09:57:04.000Z</time>
      </trkpt>
      <trkpt lat="43.22772" lon="-0.20709">
        <ele>416.20001220703</ele>
        <time>2012-12-29T09:57:05.000Z</time>
      </trkpt>
      <trkpt lat="43.2277" lon="-0.20703">
        <ele>416.20001220703</ele>
        <time>2012-12-29T09:57:08.000Z</time>
      </trkpt>
      <trkpt lat="43.22763" lon="-0.20697">
        <ele>416.20001220703</ele>
        <time>2012-12-29T09:57:14.000Z</time>
      </trkpt>
      <trkpt lat="43.22762" lon="-0.20696">
        <ele>417</ele>
        <time>2012-12-29T09:57:15.000Z</time>
      </trkpt>
      <trkpt lat="43.2276" lon="-0.20694">
        <ele>417.20001220703</ele>
        <time>2012-12-29T09:57:16.000Z</time>
      </trkpt>
      <trkpt lat="43.22759" lon="-0.20693">
        <ele>417.60000610352</ele>
        <time>2012-12-29T09:57:17.000Z</time>
      </trkpt>
      <trkpt lat="43.22757" lon="-0.20691">
        <ele>418.20001220703</ele>
        <time>2012-12-29T09:57:18.000Z</time>
      </trkpt>
      <trkpt lat="43.22754" lon="-0.20689">
        <ele>418.60000610352</ele>
        <time>2012-12-29T09:57:19.000Z</time>
      </trkpt>
      <trkpt lat="43.2275" lon="-0.20682">
        <ele>419.20001220703</ele>
        <time>2012-12-29T09:57:21.000Z</time>
      </trkpt>
      <trkpt lat="43.22747" lon="-0.20679">
        <ele>419.60000610352</ele>
        <time>2012-12-29T09:57:22.000Z</time>
      </trkpt>
      <trkpt lat="43.22745" lon="-0.20675">
        <ele>420.20001220703</ele>
        <time>2012-12-29T09:57:23.000Z</time>
      </trkpt>
      <trkpt lat="43.22743" lon="-0.20672">
        <ele>420.60000610352</ele>
        <time>2012-12-29T09:57:24.000Z</time>
      </trkpt>
      <trkpt lat="43.22742" lon="-0.20669">
        <ele>421</ele>
        <time>2012-12-29T09:57:25.000Z</time>
      </trkpt>
      <trkpt lat="43.22739" lon="-0.20663">
        <ele>421.60000610352</ele>
        <time>2012-12-29T09:57:27.000Z</time>
      </trkpt>
      <trkpt lat="43.22737" lon="-0.2066">
        <ele>422</ele>
        <time>2012-12-29T09:57:28.000Z</time>
      </trkpt>
      <trkpt lat="43.22735" lon="-0.20657">
        <ele>422.60000610352</ele>
        <time>2012-12-29T09:57:29.000Z</time>
      </trkpt>
      <trkpt lat="43.22733" lon="-0.20654">
        <ele>423</ele>
        <time>2012-12-29T09:57:30.000Z</time>
      </trkpt>
      <trkpt lat="43.22731" lon="-0.20651">
        <ele>423.20001220703</ele>
        <time>2012-12-29T09:57:31.000Z</time>
      </trkpt>
      <trkpt lat="43.22728" lon="-0.20648">
        <ele>423.20001220703</ele>
        <time>2012-12-29T09:57:32.000Z</time>
      </trkpt>
      <trkpt lat="43.22725" lon="-0.20643">
        <ele>423.60000610352</ele>
        <time>2012-12-29T09:57:34.000Z</time>
      </trkpt>
      <trkpt lat="43.22723" lon="-0.20641">
        <ele>424.20001220703</ele>
        <time>2012-12-29T09:57:35.000Z</time>
      </trkpt>
      <trkpt lat="43.22721" lon="-0.20638">
        <ele>424.60000610352</ele>
        <time>2012-12-29T09:57:36.000Z</time>
      </trkpt>
      <trkpt lat="43.22719" lon="-0.20636">
        <ele>425</ele>
        <time>2012-12-29T09:57:37.000Z</time>
      </trkpt>
      <trkpt lat="43.22718" lon="-0.20633">
        <ele>425.20001220703</ele>
        <time>2012-12-29T09:57:38.000Z</time>
      </trkpt>
      <trkpt lat="43.2271" lon="-0.20623">
        <ele>426</ele>
        <time>2012-12-29T09:57:42.000Z</time>
      </trkpt>
      <trkpt lat="43.22709" lon="-0.20621">
        <ele>426.20001220703</ele>
        <time>2012-12-29T09:57:43.000Z</time>
      </trkpt>
      <trkpt lat="43.22708" lon="-0.20618">
        <ele>427</ele>
        <time>2012-12-29T09:57:44.000Z</time>
      </trkpt>
      <trkpt lat="43.22706" lon="-0.20615">
        <ele>427.20001220703</ele>
        <time>2012-12-29T09:57:45.000Z</time>
      </trkpt>
      <trkpt lat="43.22705" lon="-0.20611">
        <ele>428</ele>
        <time>2012-12-29T09:57:46.000Z</time>
      </trkpt>
      <trkpt lat="43.22701" lon="-0.20602">
        <ele>428</ele>
        <time>2012-12-29T09:57:49.000Z</time>
      </trkpt>
      <trkpt lat="43.22699" lon="-0.20599">
        <ele>428.20001220703</ele>
        <time>2012-12-29T09:57:50.000Z</time>
      </trkpt>
      <trkpt lat="43.22698" lon="-0.20596">
        <ele>428.60000610352</ele>
        <time>2012-12-29T09:57:51.000Z</time>
      </trkpt>
      <trkpt lat="43.22696" lon="-0.20594">
        <ele>429.20001220703</ele>
        <time>2012-12-29T09:57:52.000Z</time>
      </trkpt>
      <trkpt lat="43.22694" lon="-0.20591">
        <ele>429.60000610352</ele>
        <time>2012-12-29T09:57:53.000Z</time>
      </trkpt>
      <trkpt lat="43.22692" lon="-0.20589">
        <ele>430</ele>
        <time>2012-12-29T09:57:54.000Z</time>
      </trkpt>
      <trkpt lat="43.2269" lon="-0.20586">
        <ele>430</ele>
        <time>2012-12-29T09:57:55.000Z</time>
      </trkpt>
      <trkpt lat="43.22681" lon="-0.20574">
        <ele>430.20001220703</ele>
        <time>2012-12-29T09:57:59.000Z</time>
      </trkpt>
      <trkpt lat="43.22679" lon="-0.20572">
        <ele>430.60000610352</ele>
        <time>2012-12-29T09:58:00.000Z</time>
      </trkpt>
      <trkpt lat="43.22677" lon="-0.20569">
        <ele>431.20001220703</ele>
        <time>2012-12-29T09:58:01.000Z</time>
      </trkpt>
      <trkpt lat="43.22675" lon="-0.20566">
        <ele>431.60000610352</ele>
        <time>2012-12-29T09:58:02.000Z</time>
      </trkpt>
      <trkpt lat="43.22673" lon="-0.20563">
        <ele>432.20001220703</ele>
        <time>2012-12-29T09:58:03.000Z</time>
      </trkpt>
      <trkpt lat="43.2267" lon="-0.20559">
        <ele>432.20001220703</ele>
        <time>2012-12-29T09:58:05.000Z</time>
      </trkpt>
      <trkpt lat="43.22662" lon="-0.20552">
        <ele>432.20001220703</ele>
        <time>2012-12-29T09:58:10.000Z</time>
      </trkpt>
      <trkpt lat="43.22657" lon="-0.2055">
        <ele>432.20001220703</ele>
        <time>2012-12-29T09:58:17.000Z</time>
      </trkpt>
      <trkpt lat="43.22652" lon="-0.2055">
        <ele>434.20001220703</ele>
        <time>2012-12-29T10:01:32.000Z</time>
      </trkpt>
      <trkpt lat="43.22653" lon="-0.20551">
        <ele>434.20001220703</ele>
        <time>2012-12-29T10:01:33.000Z</time>
      </trkpt>
      <trkpt lat="43.22661" lon="-0.20567">
        <ele>434.20001220703</ele>
        <time>2012-12-29T10:01:39.000Z</time>
      </trkpt>
      <trkpt lat="43.22662" lon="-0.2057">
        <ele>434.20001220703</ele>
        <time>2012-12-29T10:01:40.000Z</time>
      </trkpt>
      <trkpt lat="43.22669" lon="-0.20581">
        <ele>434.20001220703</ele>
        <time>2012-12-29T10:01:45.000Z</time>
      </trkpt>
      <trkpt lat="43.22673" lon="-0.20589">
        <ele>434</ele>
        <time>2012-12-29T10:01:49.000Z</time>
      </trkpt>
      <trkpt lat="43.22674" lon="-0.20592">
        <ele>433.60000610352</ele>
        <time>2012-12-29T10:01:50.000Z</time>
      </trkpt>
      <trkpt lat="43.22675" lon="-0.20594">
        <ele>433.20001220703</ele>
        <time>2012-12-29T10:01:51.000Z</time>
      </trkpt>
      <trkpt lat="43.22677" lon="-0.20597">
        <ele>432.60000610352</ele>
        <time>2012-12-29T10:01:52.000Z</time>
      </trkpt>
      <trkpt lat="43.22678" lon="-0.20599">
        <ele>432.20001220703</ele>
        <time>2012-12-29T10:01:53.000Z</time>
      </trkpt>
      <trkpt lat="43.22687" lon="-0.20608">
        <ele>432</ele>
        <time>2012-12-29T10:01:58.000Z</time>
      </trkpt>
      <trkpt lat="43.22689" lon="-0.20611">
        <ele>431.20001220703</ele>
        <time>2012-12-29T10:01:59.000Z</time>
      </trkpt>
      <trkpt lat="43.2269" lon="-0.20614">
        <ele>431</ele>
        <time>2012-12-29T10:02:00.000Z</time>
      </trkpt>
      <trkpt lat="43.22691" lon="-0.20617">
        <ele>430.60000610352</ele>
        <time>2012-12-29T10:02:01.000Z</time>
      </trkpt>
      <trkpt lat="43.22692" lon="-0.2062">
        <ele>430.20001220703</ele>
        <time>2012-12-29T10:02:02.000Z</time>
      </trkpt>
      <trkpt lat="43.22696" lon="-0.2063">
        <ele>430.20001220703</ele>
        <time>2012-12-29T10:02:05.000Z</time>
      </trkpt>
      <trkpt lat="43.22702" lon="-0.20638">
        <ele>429.60000610352</ele>
        <time>2012-12-29T10:02:08.000Z</time>
      </trkpt>
      <trkpt lat="43.22704" lon="-0.2064">
        <ele>429.20001220703</ele>
        <time>2012-12-29T10:02:09.000Z</time>
      </trkpt>
      <trkpt lat="43.22706" lon="-0.20642">
        <ele>428.60000610352</ele>
        <time>2012-12-29T10:02:10.000Z</time>
      </trkpt>
      <trkpt lat="43.22708" lon="-0.20644">
        <ele>428.20001220703</ele>
        <time>2012-12-29T10:02:11.000Z</time>
      </trkpt>
      <trkpt lat="43.2271" lon="-0.20645">
        <ele>427.60000610352</ele>
        <time>2012-12-29T10:02:12.000Z</time>
      </trkpt>
      <trkpt lat="43.22717" lon="-0.20652">
        <ele>427.60000610352</ele>
        <time>2012-12-29T10:02:16.000Z</time>
      </trkpt>
      <trkpt lat="43.22721" lon="-0.20656">
        <ele>427.20001220703</ele>
        <time>2012-12-29T10:02:18.000Z</time>
      </trkpt>
      <trkpt lat="43.22722" lon="-0.20658">
        <ele>427</ele>
        <time>2012-12-29T10:02:19.000Z</time>
      </trkpt>
      <trkpt lat="43.22724" lon="-0.20661">
        <ele>426.60000610352</ele>
        <time>2012-12-29T10:02:20.000Z</time>
      </trkpt>
      <trkpt lat="43.22727" lon="-0.20663">
        <ele>426.20001220703</ele>
        <time>2012-12-29T10:02:21.000Z</time>
      </trkpt>
      <trkpt lat="43.22729" lon="-0.20665">
        <ele>425.60000610352</ele>
        <time>2012-12-29T10:02:22.000Z</time>
      </trkpt>
      <trkpt lat="43.22735" lon="-0.20671">
        <ele>425.20001220703</ele>
        <time>2012-12-29T10:02:25.000Z</time>
      </trkpt>
      <trkpt lat="43.22737" lon="-0.20674">
        <ele>425</ele>
        <time>2012-12-29T10:02:26.000Z</time>
      </trkpt>
      <trkpt lat="43.22739" lon="-0.20678">
        <ele>424.20001220703</ele>
        <time>2012-12-29T10:02:27.000Z</time>
      </trkpt>
      <trkpt lat="43.22741" lon="-0.20681">
        <ele>424</ele>
        <time>2012-12-29T10:02:28.000Z</time>
      </trkpt>
      <trkpt lat="43.22744" lon="-0.20686">
        <ele>423.60000610352</ele>
        <time>2012-12-29T10:02:29.000Z</time>
      </trkpt>
      <trkpt lat="43.22749" lon="-0.20694">
        <ele>423.20001220703</ele>
        <time>2012-12-29T10:02:31.000Z</time>
      </trkpt>
      <trkpt lat="43.22751" lon="-0.20698">
        <ele>422.60000610352</ele>
        <time>2012-12-29T10:02:32.000Z</time>
      </trkpt>
      <trkpt lat="43.22754" lon="-0.20702">
        <ele>422.20001220703</ele>
        <time>2012-12-29T10:02:33.000Z</time>
      </trkpt>
      <trkpt lat="43.22756" lon="-0.20706">
        <ele>421.60000610352</ele>
        <time>2012-12-29T10:02:34.000Z</time>
      </trkpt>
      <trkpt lat="43.22759" lon="-0.2071">
        <ele>421</ele>
        <time>2012-12-29T10:02:35.000Z</time>
      </trkpt>
      <trkpt lat="43.22761" lon="-0.20714">
        <ele>420.20001220703</ele>
        <time>2012-12-29T10:02:36.000Z</time>
      </trkpt>
      <trkpt lat="43.22764" lon="-0.20718">
        <ele>419.60000610352</ele>
        <time>2012-12-29T10:02:37.000Z</time>
      </trkpt>
      <trkpt lat="43.22765" lon="-0.20722">
        <ele>419.20001220703</ele>
        <time>2012-12-29T10:02:38.000Z</time>
      </trkpt>
      <trkpt lat="43.22768" lon="-0.20726">
        <ele>418.60000610352</ele>
        <time>2012-12-29T10:02:39.000Z</time>
      </trkpt>
      <trkpt lat="43.22774" lon="-0.20739">
        <ele>418.20001220703</ele>
        <time>2012-12-29T10:02:42.000Z</time>
      </trkpt>
      <trkpt lat="43.22777" lon="-0.20743">
        <ele>417.60000610352</ele>
        <time>2012-12-29T10:02:43.000Z</time>
      </trkpt>
      <trkpt lat="43.22779" lon="-0.20747">
        <ele>417.20001220703</ele>
        <time>2012-12-29T10:02:44.000Z</time>
      </trkpt>
      <trkpt lat="43.22781" lon="-0.2075">
        <ele>417</ele>
        <time>2012-12-29T10:02:45.000Z</time>
      </trkpt>
      <trkpt lat="43.22783" lon="-0.20754">
        <ele>416.20001220703</ele>
        <time>2012-12-29T10:02:46.000Z</time>
      </trkpt>
      <trkpt lat="43.22785" lon="-0.20758">
        <ele>416</ele>
        <time>2012-12-29T10:02:47.000Z</time>
      </trkpt>
      <trkpt lat="43.22788" lon="-0.20762">
        <ele>415.60000610352</ele>
        <time>2012-12-29T10:02:48.000Z</time>
      </trkpt>
      <trkpt lat="43.2279" lon="-0.20766">
        <ele>415.20001220703</ele>
        <time>2012-12-29T10:02:49.000Z</time>
      </trkpt>
      <trkpt lat="43.22793" lon="-0.2077">
        <ele>414.60000610352</ele>
        <time>2012-12-29T10:02:50.000Z</time>
      </trkpt>
      <trkpt lat="43.22796" lon="-0.20774">
        <ele>414.20001220703</ele>
        <time>2012-12-29T10:02:51.000Z</time>
      </trkpt>
      <trkpt lat="43.22807" lon="-0.2079">
        <ele>413.60000610352</ele>
        <time>2012-12-29T10:02:55.000Z</time>
      </trkpt>
      <trkpt lat="43.22809" lon="-0.20793">
        <ele>413.20001220703</ele>
        <time>2012-12-29T10:02:56.000Z</time>
      </trkpt>
      <trkpt lat="43.22812" lon="-0.20796">
        <ele>412.60000610352</ele>
        <time>2012-12-29T10:02:57.000Z</time>
      </trkpt>
      <trkpt lat="43.22815" lon="-0.20799">
        <ele>412.20001220703</ele>
        <time>2012-12-29T10:02:58.000Z</time>
      </trkpt>
      <trkpt lat="43.22818" lon="-0.20802">
        <ele>411.60000610352</ele>
        <time>2012-12-29T10:02:59.000Z</time>
      </trkpt>
      <trkpt lat="43.22823" lon="-0.20808">
        <ele>411.60000610352</ele>
        <time>2012-12-29T10:03:01.000Z</time>
      </trkpt>
      <trkpt lat="43.2284" lon="-0.20825">
        <ele>411.60000610352</ele>
        <time>2012-12-29T10:03:07.000Z</time>
      </trkpt>
      <trkpt lat="43.22859" lon="-0.20839">
        <ele>411.20001220703</ele>
        <time>2012-12-29T10:03:13.000Z</time>
      </trkpt>
      <trkpt lat="43.22861" lon="-0.2084">
        <ele>411</ele>
        <time>2012-12-29T10:03:14.000Z</time>
      </trkpt>
      <trkpt lat="43.22865" lon="-0.20842">
        <ele>410.60000610352</ele>
        <time>2012-12-29T10:03:15.000Z</time>
      </trkpt>
      <trkpt lat="43.22867" lon="-0.20843">
        <ele>410.20001220703</ele>
        <time>2012-12-29T10:03:16.000Z</time>
      </trkpt>
      <trkpt lat="43.2287" lon="-0.20844">
        <ele>409.60000610352</ele>
        <time>2012-12-29T10:03:17.000Z</time>
      </trkpt>
      <trkpt lat="43.22876" lon="-0.20846">
        <ele>409.60000610352</ele>
        <time>2012-12-29T10:03:19.000Z</time>
      </trkpt>
      <trkpt lat="43.22892" lon="-0.20852">
        <ele>409.60000610352</ele>
        <time>2012-12-29T10:03:24.000Z</time>
      </trkpt>
      <trkpt lat="43.22906" lon="-0.2086">
        <ele>409.60000610352</ele>
        <time>2012-12-29T10:03:29.000Z</time>
      </trkpt>
      <trkpt lat="43.22923" lon="-0.20869">
        <ele>409.60000610352</ele>
        <time>2012-12-29T10:03:35.000Z</time>
      </trkpt>
      <trkpt lat="43.22938" lon="-0.20875">
        <ele>409.60000610352</ele>
        <time>2012-12-29T10:03:40.000Z</time>
      </trkpt>
      <trkpt lat="43.22953" lon="-0.20875">
        <ele>409.60000610352</ele>
        <time>2012-12-29T10:03:44.000Z</time>
      </trkpt>
      <trkpt lat="43.22967" lon="-0.20879">
        <ele>409.60000610352</ele>
        <time>2012-12-29T10:03:49.000Z</time>
      </trkpt>
      <trkpt lat="43.22982" lon="-0.20886">
        <ele>409.60000610352</ele>
        <time>2012-12-29T10:03:54.000Z</time>
      </trkpt>
      <trkpt lat="43.22995" lon="-0.2089">
        <ele>409.60000610352</ele>
        <time>2012-12-29T10:03:58.000Z</time>
      </trkpt>
      <trkpt lat="43.23012" lon="-0.20901">
        <ele>409.60000610352</ele>
        <time>2012-12-29T10:04:04.000Z</time>
      </trkpt>
      <trkpt lat="43.23026" lon="-0.20909">
        <ele>409.60000610352</ele>
        <time>2012-12-29T10:04:09.000Z</time>
      </trkpt>
      <trkpt lat="43.23043" lon="-0.20924">
        <ele>409.60000610352</ele>
        <time>2012-12-29T10:04:15.000Z</time>
      </trkpt>
      <trkpt lat="43.23048" lon="-0.20929">
        <ele>409.20001220703</ele>
        <time>2012-12-29T10:04:17.000Z</time>
      </trkpt>
      <trkpt lat="43.23051" lon="-0.20931">
        <ele>408.60000610352</ele>
        <time>2012-12-29T10:04:18.000Z</time>
      </trkpt>
      <trkpt lat="43.23054" lon="-0.20934">
        <ele>408.20001220703</ele>
        <time>2012-12-29T10:04:19.000Z</time>
      </trkpt>
      <trkpt lat="43.23058" lon="-0.20937">
        <ele>408</ele>
        <time>2012-12-29T10:04:20.000Z</time>
      </trkpt>
      <trkpt lat="43.23061" lon="-0.2094">
        <ele>407.60000610352</ele>
        <time>2012-12-29T10:04:21.000Z</time>
      </trkpt>
      <trkpt lat="43.23068" lon="-0.20946">
        <ele>407</ele>
        <time>2012-12-29T10:04:23.000Z</time>
      </trkpt>
      <trkpt lat="43.23072" lon="-0.20949">
        <ele>406.60000610352</ele>
        <time>2012-12-29T10:04:24.000Z</time>
      </trkpt>
      <trkpt lat="43.23075" lon="-0.20952">
        <ele>406</ele>
        <time>2012-12-29T10:04:25.000Z</time>
      </trkpt>
      <trkpt lat="43.23079" lon="-0.20955">
        <ele>405.60000610352</ele>
        <time>2012-12-29T10:04:26.000Z</time>
      </trkpt>
      <trkpt lat="43.23082" lon="-0.20959">
        <ele>405.20001220703</ele>
        <time>2012-12-29T10:04:27.000Z</time>
      </trkpt>
      <trkpt lat="43.23092" lon="-0.20969">
        <ele>404.60000610352</ele>
        <time>2012-12-29T10:04:30.000Z</time>
      </trkpt>
      <trkpt lat="43.23095" lon="-0.20971">
        <ele>404.20001220703</ele>
        <time>2012-12-29T10:04:31.000Z</time>
      </trkpt>
      <trkpt lat="43.23098" lon="-0.20974">
        <ele>403.60000610352</ele>
        <time>2012-12-29T10:04:32.000Z</time>
      </trkpt>
      <trkpt lat="43.23101" lon="-0.20976">
        <ele>403.20001220703</ele>
        <time>2012-12-29T10:04:33.000Z</time>
      </trkpt>
      <trkpt lat="43.23104" lon="-0.20979">
        <ele>403</ele>
        <time>2012-12-29T10:04:34.000Z</time>
      </trkpt>
      <trkpt lat="43.23108" lon="-0.20981">
        <ele>402.60000610352</ele>
        <time>2012-12-29T10:04:35.000Z</time>
      </trkpt>
      <trkpt lat="43.23111" lon="-0.20984">
        <ele>402.20001220703</ele>
        <time>2012-12-29T10:04:36.000Z</time>
      </trkpt>
      <trkpt lat="43.23115" lon="-0.20986">
        <ele>401.60000610352</ele>
        <time>2012-12-29T10:04:37.000Z</time>
      </trkpt>
      <trkpt lat="43.23119" lon="-0.20988">
        <ele>401.20001220703</ele>
        <time>2012-12-29T10:04:38.000Z</time>
      </trkpt>
      <trkpt lat="43.23122" lon="-0.2099">
        <ele>400.60000610352</ele>
        <time>2012-12-29T10:04:39.000Z</time>
      </trkpt>
      <trkpt lat="43.23126" lon="-0.20992">
        <ele>400.20001220703</ele>
        <time>2012-12-29T10:04:40.000Z</time>
      </trkpt>
      <trkpt lat="43.2313" lon="-0.20994">
        <ele>399.60000610352</ele>
        <time>2012-12-29T10:04:41.000Z</time>
      </trkpt>
      <trkpt lat="43.23133" lon="-0.20996">
        <ele>399.20001220703</ele>
        <time>2012-12-29T10:04:42.000Z</time>
      </trkpt>
      <trkpt lat="43.23137" lon="-0.20998">
        <ele>398.60000610352</ele>
        <time>2012-12-29T10:04:43.000Z</time>
      </trkpt>
      <trkpt lat="43.2314" lon="-0.21001">
        <ele>398.20001220703</ele>
        <time>2012-12-29T10:04:44.000Z</time>
      </trkpt>
      <trkpt lat="43.23144" lon="-0.21003">
        <ele>398.20001220703</ele>
        <time>2012-12-29T10:04:45.000Z</time>
      </trkpt>
      <trkpt lat="43.23163" lon="-0.21021">
        <ele>398</ele>
        <time>2012-12-29T10:04:51.000Z</time>
      </trkpt>
      <trkpt lat="43.23167" lon="-0.21024">
        <ele>397.60000610352</ele>
        <time>2012-12-29T10:04:52.000Z</time>
      </trkpt>
      <trkpt lat="43.2317" lon="-0.21028">
        <ele>397</ele>
        <time>2012-12-29T10:04:53.000Z</time>
      </trkpt>
      <trkpt lat="43.23174" lon="-0.21031">
        <ele>396.20001220703</ele>
        <time>2012-12-29T10:04:54.000Z</time>
      </trkpt>
      <trkpt lat="43.23178" lon="-0.21034">
        <ele>396</ele>
        <time>2012-12-29T10:04:55.000Z</time>
      </trkpt>
      <trkpt lat="43.23182" lon="-0.21037">
        <ele>395.20001220703</ele>
        <time>2012-12-29T10:04:56.000Z</time>
      </trkpt>
      <trkpt lat="43.23186" lon="-0.2104">
        <ele>394.60000610352</ele>
        <time>2012-12-29T10:04:57.000Z</time>
      </trkpt>
      <trkpt lat="43.23189" lon="-0.21043">
        <ele>394</ele>
        <time>2012-12-29T10:04:58.000Z</time>
      </trkpt>
      <trkpt lat="43.23193" lon="-0.21046">
        <ele>393.20001220703</ele>
        <time>2012-12-29T10:04:59.000Z</time>
      </trkpt>
      <trkpt lat="43.23196" lon="-0.21048">
        <ele>392.60000610352</ele>
        <time>2012-12-29T10:05:00.000Z</time>
      </trkpt>
      <trkpt lat="43.23199" lon="-0.21051">
        <ele>391.60000610352</ele>
        <time>2012-12-29T10:05:01.000Z</time>
      </trkpt>
      <trkpt lat="43.23202" lon="-0.21055">
        <ele>391.60000610352</ele>
        <time>2012-12-29T10:05:02.000Z</time>
      </trkpt>
      <trkpt lat="43.23205" lon="-0.21058">
        <ele>391.20001220703</ele>
        <time>2012-12-29T10:05:03.000Z</time>
      </trkpt>
      <trkpt lat="43.23208" lon="-0.21061">
        <ele>391</ele>
        <time>2012-12-29T10:05:04.000Z</time>
      </trkpt>
      <trkpt lat="43.23211" lon="-0.21064">
        <ele>390.60000610352</ele>
        <time>2012-12-29T10:05:05.000Z</time>
      </trkpt>
      <trkpt lat="43.23215" lon="-0.21067">
        <ele>390</ele>
        <time>2012-12-29T10:05:06.000Z</time>
      </trkpt>
      <trkpt lat="43.23219" lon="-0.2107">
        <ele>389.60000610352</ele>
        <time>2012-12-29T10:05:07.000Z</time>
      </trkpt>
      <trkpt lat="43.23233" lon="-0.21082">
        <ele>389.20001220703</ele>
        <time>2012-12-29T10:05:11.000Z</time>
      </trkpt>
      <trkpt lat="43.23236" lon="-0.21085">
        <ele>388.60000610352</ele>
        <time>2012-12-29T10:05:12.000Z</time>
      </trkpt>
      <trkpt lat="43.23239" lon="-0.21088">
        <ele>388.20001220703</ele>
        <time>2012-12-29T10:05:13.000Z</time>
      </trkpt>
      <trkpt lat="43.23242" lon="-0.21091">
        <ele>388</ele>
        <time>2012-12-29T10:05:14.000Z</time>
      </trkpt>
      <trkpt lat="43.23245" lon="-0.21094">
        <ele>387.60000610352</ele>
        <time>2012-12-29T10:05:15.000Z</time>
      </trkpt>
      <trkpt lat="43.23254" lon="-0.21104">
        <ele>387.60000610352</ele>
        <time>2012-12-29T10:05:18.000Z</time>
      </trkpt>
      <trkpt lat="43.2326" lon="-0.21112">
        <ele>387.60000610352</ele>
        <time>2012-12-29T10:05:20.000Z</time>
      </trkpt>
      <trkpt lat="43.23264" lon="-0.21115">
        <ele>387.60000610352</ele>
        <time>2012-12-29T10:05:21.000Z</time>
      </trkpt>
      <trkpt lat="43.23271" lon="-0.21124">
        <ele>387</ele>
        <time>2012-12-29T10:05:23.000Z</time>
      </trkpt>
      <trkpt lat="43.23274" lon="-0.21128">
        <ele>386.60000610352</ele>
        <time>2012-12-29T10:05:24.000Z</time>
      </trkpt>
      <trkpt lat="43.23278" lon="-0.21133">
        <ele>386.20001220703</ele>
        <time>2012-12-29T10:05:25.000Z</time>
      </trkpt>
      <trkpt lat="43.23281" lon="-0.21137">
        <ele>385.60000610352</ele>
        <time>2012-12-29T10:05:26.000Z</time>
      </trkpt>
      <trkpt lat="43.23284" lon="-0.21142">
        <ele>385.20001220703</ele>
        <time>2012-12-29T10:05:27.000Z</time>
      </trkpt>
      <trkpt lat="43.2329" lon="-0.2115">
        <ele>385</ele>
        <time>2012-12-29T10:05:29.000Z</time>
      </trkpt>
      <trkpt lat="43.23294" lon="-0.21153">
        <ele>384.60000610352</ele>
        <time>2012-12-29T10:05:30.000Z</time>
      </trkpt>
      <trkpt lat="43.23297" lon="-0.21157">
        <ele>384</ele>
        <time>2012-12-29T10:05:31.000Z</time>
      </trkpt>
      <trkpt lat="43.23301" lon="-0.2116">
        <ele>383.60000610352</ele>
        <time>2012-12-29T10:05:32.000Z</time>
      </trkpt>
      <trkpt lat="43.23304" lon="-0.21164">
        <ele>383.20001220703</ele>
        <time>2012-12-29T10:05:33.000Z</time>
      </trkpt>
      <trkpt lat="43.2331" lon="-0.21171">
        <ele>383.20001220703</ele>
        <time>2012-12-29T10:05:35.000Z</time>
      </trkpt>
      <trkpt lat="43.23323" lon="-0.21186">
        <ele>382.60000610352</ele>
        <time>2012-12-29T10:05:39.000Z</time>
      </trkpt>
      <trkpt lat="43.23326" lon="-0.2119">
        <ele>382.20001220703</ele>
        <time>2012-12-29T10:05:40.000Z</time>
      </trkpt>
      <trkpt lat="43.2333" lon="-0.21194">
        <ele>381.60000610352</ele>
        <time>2012-12-29T10:05:41.000Z</time>
      </trkpt>
      <trkpt lat="43.23335" lon="-0.21201">
        <ele>381.20001220703</ele>
        <time>2012-12-29T10:05:42.000Z</time>
      </trkpt>
      <trkpt lat="43.2334" lon="-0.21208">
        <ele>381</ele>
        <time>2012-12-29T10:05:43.000Z</time>
      </trkpt>
      <trkpt lat="43.23344" lon="-0.21216">
        <ele>381</ele>
        <time>2012-12-29T10:05:44.000Z</time>
      </trkpt>
      <trkpt lat="43.23349" lon="-0.21223">
        <ele>381</ele>
        <time>2012-12-29T10:05:45.000Z</time>
      </trkpt>
      <trkpt lat="43.23356" lon="-0.21236">
        <ele>381</ele>
        <time>2012-12-29T10:05:47.000Z</time>
      </trkpt>
      <trkpt lat="43.23365" lon="-0.2125">
        <ele>381</ele>
        <time>2012-12-29T10:05:51.000Z</time>
      </trkpt>
      <trkpt lat="43.23366" lon="-0.2125">
        <ele>381</ele>
        <time>2012-12-29T10:05:52.000Z</time>
      </trkpt>
      <trkpt lat="43.2337" lon="-0.21257">
        <ele>381</ele>
        <time>2012-12-29T10:06:02.000Z</time>
      </trkpt>
      <trkpt lat="43.23371" lon="-0.21259">
        <ele>381</ele>
        <time>2012-12-29T10:06:03.000Z</time>
      </trkpt>
      <trkpt lat="43.23375" lon="-0.21268">
        <ele>380.60000610352</ele>
        <time>2012-12-29T10:06:07.000Z</time>
      </trkpt>
      <trkpt lat="43.23376" lon="-0.21269">
        <ele>380.20001220703</ele>
        <time>2012-12-29T10:06:08.000Z</time>
      </trkpt>
      <trkpt lat="43.23376" lon="-0.21272">
        <ele>379.60000610352</ele>
        <time>2012-12-29T10:06:09.000Z</time>
      </trkpt>
      <trkpt lat="43.23377" lon="-0.21274">
        <ele>379.20001220703</ele>
        <time>2012-12-29T10:06:10.000Z</time>
      </trkpt>
      <trkpt lat="43.23378" lon="-0.21276">
        <ele>379</ele>
        <time>2012-12-29T10:06:11.000Z</time>
      </trkpt>
      <trkpt lat="43.23379" lon="-0.21278">
        <ele>379</ele>
        <time>2012-12-29T10:06:12.000Z</time>
      </trkpt>
      <trkpt lat="43.23381" lon="-0.21281">
        <ele>379</ele>
        <time>2012-12-29T10:06:14.000Z</time>
      </trkpt>
      <trkpt lat="43.23388" lon="-0.2129">
        <ele>379</ele>
        <time>2012-12-29T10:06:21.000Z</time>
      </trkpt>
      <trkpt lat="43.2339" lon="-0.21295">
        <ele>379</ele>
        <time>2012-12-29T10:06:24.000Z</time>
      </trkpt>
      <trkpt lat="43.23391" lon="-0.21296">
        <ele>379</ele>
        <time>2012-12-29T10:06:25.000Z</time>
      </trkpt>
      <trkpt lat="43.23393" lon="-0.21299">
        <ele>379</ele>
        <time>2012-12-29T10:06:28.000Z</time>
      </trkpt>
      <trkpt lat="43.23394" lon="-0.21306">
        <ele>379</ele>
        <time>2012-12-29T10:06:32.000Z</time>
      </trkpt>
      <trkpt lat="43.23397" lon="-0.21311">
        <ele>379</ele>
        <time>2012-12-29T10:06:36.000Z</time>
      </trkpt>
      <trkpt lat="43.23397" lon="-0.21313">
        <ele>379</ele>
        <time>2012-12-29T10:06:37.000Z</time>
      </trkpt>
      <trkpt lat="43.23398" lon="-0.21315">
        <ele>379</ele>
        <time>2012-12-29T10:06:38.000Z</time>
      </trkpt>
      <trkpt lat="43.23399" lon="-0.21321">
        <ele>379</ele>
        <time>2012-12-29T10:06:42.000Z</time>
      </trkpt>
      <trkpt lat="43.23399" lon="-0.21323">
        <ele>379</ele>
        <time>2012-12-29T10:06:44.000Z</time>
      </trkpt>
      <trkpt lat="43.23423" lon="-0.21376">
        <ele>379</ele>
        <time>2012-12-29T10:07:24.000Z</time>
      </trkpt>
      <trkpt lat="43.23424" lon="-0.21377">
        <ele>379</ele>
        <time>2012-12-29T10:07:25.000Z</time>
      </trkpt>
      <trkpt lat="43.23426" lon="-0.21385">
        <ele>379</ele>
        <time>2012-12-29T10:07:31.000Z</time>
      </trkpt>
      <trkpt lat="43.23431" lon="-0.21393">
        <ele>379</ele>
        <time>2012-12-29T10:07:38.000Z</time>
      </trkpt>
      <trkpt lat="43.23432" lon="-0.21395">
        <ele>379</ele>
        <time>2012-12-29T10:07:39.000Z</time>
      </trkpt>
      <trkpt lat="43.23432" lon="-0.21403">
        <ele>379</ele>
        <time>2012-12-29T10:07:46.000Z</time>
      </trkpt>
      <trkpt lat="43.23429" lon="-0.21415">
        <ele>378.20001220703</ele>
        <time>2012-12-29T10:07:54.000Z</time>
      </trkpt>
      <trkpt lat="43.23429" lon="-0.21418">
        <ele>378</ele>
        <time>2012-12-29T10:07:55.000Z</time>
      </trkpt>
      <trkpt lat="43.23429" lon="-0.21421">
        <ele>377.20001220703</ele>
        <time>2012-12-29T10:07:56.000Z</time>
      </trkpt>
      <trkpt lat="43.23428" lon="-0.21423">
        <ele>377</ele>
        <time>2012-12-29T10:07:57.000Z</time>
      </trkpt>
      <trkpt lat="43.23427" lon="-0.21425">
        <ele>376.60000610352</ele>
        <time>2012-12-29T10:07:58.000Z</time>
      </trkpt>
      <trkpt lat="43.23427" lon="-0.21427">
        <ele>376.60000610352</ele>
        <time>2012-12-29T10:07:59.000Z</time>
      </trkpt>
      <trkpt lat="43.23429" lon="-0.21442">
        <ele>376.60000610352</ele>
        <time>2012-12-29T10:08:04.000Z</time>
      </trkpt>
      <trkpt lat="43.2343" lon="-0.21448">
        <ele>376.60000610352</ele>
        <time>2012-12-29T10:08:06.000Z</time>
      </trkpt>
      <trkpt lat="43.23431" lon="-0.21454">
        <ele>376.60000610352</ele>
        <time>2012-12-29T10:08:08.000Z</time>
      </trkpt>
      <trkpt lat="43.23432" lon="-0.21464">
        <ele>376.60000610352</ele>
        <time>2012-12-29T10:08:11.000Z</time>
      </trkpt>
      <trkpt lat="43.23433" lon="-0.21474">
        <ele>376.60000610352</ele>
        <time>2012-12-29T10:08:14.000Z</time>
      </trkpt>
      <trkpt lat="43.23436" lon="-0.21479">
        <ele>376.60000610352</ele>
        <time>2012-12-29T10:08:16.000Z</time>
      </trkpt>
      <trkpt lat="43.23437" lon="-0.21483">
        <ele>376.60000610352</ele>
        <time>2012-12-29T10:08:18.000Z</time>
      </trkpt>
      <trkpt lat="43.23441" lon="-0.21502">
        <ele>376.60000610352</ele>
        <time>2012-12-29T10:08:24.000Z</time>
      </trkpt>
      <trkpt lat="43.23446" lon="-0.21518">
        <ele>376.60000610352</ele>
        <time>2012-12-29T10:08:29.000Z</time>
      </trkpt>
      <trkpt lat="43.23448" lon="-0.21522">
        <ele>376.60000610352</ele>
        <time>2012-12-29T10:08:30.000Z</time>
      </trkpt>
      <trkpt lat="43.23451" lon="-0.21527">
        <ele>376.60000610352</ele>
        <time>2012-12-29T10:08:32.000Z</time>
      </trkpt>
      <trkpt lat="43.23452" lon="-0.21529">
        <ele>376</ele>
        <time>2012-12-29T10:08:33.000Z</time>
      </trkpt>
      <trkpt lat="43.23453" lon="-0.21531">
        <ele>375.60000610352</ele>
        <time>2012-12-29T10:08:34.000Z</time>
      </trkpt>
      <trkpt lat="43.23454" lon="-0.21534">
        <ele>375.20001220703</ele>
        <time>2012-12-29T10:08:35.000Z</time>
      </trkpt>
      <trkpt lat="43.23455" lon="-0.21537">
        <ele>374.60000610352</ele>
        <time>2012-12-29T10:08:36.000Z</time>
      </trkpt>
      <trkpt lat="43.23457" lon="-0.21541">
        <ele>374.20001220703</ele>
        <time>2012-12-29T10:08:37.000Z</time>
      </trkpt>
      <trkpt lat="43.23458" lon="-0.21547">
        <ele>374.20001220703</ele>
        <time>2012-12-29T10:08:39.000Z</time>
      </trkpt>
      <trkpt lat="43.23464" lon="-0.21568">
        <ele>374.20001220703</ele>
        <time>2012-12-29T10:08:44.000Z</time>
      </trkpt>
      <trkpt lat="43.23464" lon="-0.21577">
        <ele>374.20001220703</ele>
        <time>2012-12-29T10:08:46.000Z</time>
      </trkpt>
      <trkpt lat="43.23463" lon="-0.21582">
        <ele>374.20001220703</ele>
        <time>2012-12-29T10:08:48.000Z</time>
      </trkpt>
      <trkpt lat="43.23462" lon="-0.21596">
        <ele>374.20001220703</ele>
        <time>2012-12-29T10:08:53.000Z</time>
      </trkpt>
      <trkpt lat="43.23463" lon="-0.21606">
        <ele>374.20001220703</ele>
        <time>2012-12-29T10:08:56.000Z</time>
      </trkpt>
      <trkpt lat="43.23464" lon="-0.2162">
        <ele>374.20001220703</ele>
        <time>2012-12-29T10:09:00.000Z</time>
      </trkpt>
      <trkpt lat="43.23464" lon="-0.21624">
        <ele>374</ele>
        <time>2012-12-29T10:09:01.000Z</time>
      </trkpt>
      <trkpt lat="43.23464" lon="-0.21628">
        <ele>373.60000610352</ele>
        <time>2012-12-29T10:09:02.000Z</time>
      </trkpt>
      <trkpt lat="43.23464" lon="-0.21633">
        <ele>373.20001220703</ele>
        <time>2012-12-29T10:09:03.000Z</time>
      </trkpt>
      <trkpt lat="43.23465" lon="-0.21637">
        <ele>372.60000610352</ele>
        <time>2012-12-29T10:09:04.000Z</time>
      </trkpt>
      <trkpt lat="43.23465" lon="-0.21641">
        <ele>372.20001220703</ele>
        <time>2012-12-29T10:09:05.000Z</time>
      </trkpt>
      <trkpt lat="43.23462" lon="-0.21653">
        <ele>372.20001220703</ele>
        <time>2012-12-29T10:09:09.000Z</time>
      </trkpt>
      <trkpt lat="43.23461" lon="-0.21664">
        <ele>371.60000610352</ele>
        <time>2012-12-29T10:09:12.000Z</time>
      </trkpt>
      <trkpt lat="43.23461" lon="-0.21668">
        <ele>371.20001220703</ele>
        <time>2012-12-29T10:09:13.000Z</time>
      </trkpt>
      <trkpt lat="43.23461" lon="-0.21671">
        <ele>370.60000610352</ele>
        <time>2012-12-29T10:09:14.000Z</time>
      </trkpt>
      <trkpt lat="43.23462" lon="-0.21675">
        <ele>370.20001220703</ele>
        <time>2012-12-29T10:09:15.000Z</time>
      </trkpt>
      <trkpt lat="43.23462" lon="-0.21677">
        <ele>369.60000610352</ele>
        <time>2012-12-29T10:09:16.000Z</time>
      </trkpt>
      <trkpt lat="43.23462" lon="-0.2168">
        <ele>369.60000610352</ele>
        <time>2012-12-29T10:09:17.000Z</time>
      </trkpt>
      <trkpt lat="43.23462" lon="-0.21681">
        <ele>369.60000610352</ele>
        <time>2012-12-29T10:09:18.000Z</time>
      </trkpt>
      <trkpt lat="43.23461" lon="-0.21683">
        <ele>369.60000610352</ele>
        <time>2012-12-29T10:09:19.000Z</time>
      </trkpt>
      <trkpt lat="43.2346" lon="-0.21685">
        <ele>369.60000610352</ele>
        <time>2012-12-29T10:09:20.000Z</time>
      </trkpt>
      <trkpt lat="43.23461" lon="-0.21698">
        <ele>369.60000610352</ele>
        <time>2012-12-29T10:09:23.000Z</time>
      </trkpt>
      <trkpt lat="43.23461" lon="-0.2171">
        <ele>369.60000610352</ele>
        <time>2012-12-29T10:09:26.000Z</time>
      </trkpt>
      <trkpt lat="43.23461" lon="-0.21723">
        <ele>369.60000610352</ele>
        <time>2012-12-29T10:09:31.000Z</time>
      </trkpt>
      <trkpt lat="43.23464" lon="-0.21733">
        <ele>369.60000610352</ele>
        <time>2012-12-29T10:09:36.000Z</time>
      </trkpt>
      <trkpt lat="43.23465" lon="-0.21739">
        <ele>369.60000610352</ele>
        <time>2012-12-29T10:09:40.000Z</time>
      </trkpt>
      <trkpt lat="43.23462" lon="-0.21754">
        <ele>369.60000610352</ele>
        <time>2012-12-29T10:09:46.000Z</time>
      </trkpt>
      <trkpt lat="43.23458" lon="-0.21771">
        <ele>369.60000610352</ele>
        <time>2012-12-29T10:09:50.000Z</time>
      </trkpt>
      <trkpt lat="43.23454" lon="-0.21789">
        <ele>369.60000610352</ele>
        <time>2012-12-29T10:09:54.000Z</time>
      </trkpt>
      <trkpt lat="43.2345" lon="-0.21797">
        <ele>369.60000610352</ele>
        <time>2012-12-29T10:09:57.000Z</time>
      </trkpt>
      <trkpt lat="43.2345" lon="-0.218">
        <ele>369.60000610352</ele>
        <time>2012-12-29T10:09:58.000Z</time>
      </trkpt>
      <trkpt lat="43.23446" lon="-0.21828">
        <ele>369.60000610352</ele>
        <time>2012-12-29T10:10:04.000Z</time>
      </trkpt>
      <trkpt lat="43.23443" lon="-0.21839">
        <ele>369.60000610352</ele>
        <time>2012-12-29T10:10:06.000Z</time>
      </trkpt>
      <trkpt lat="43.2344" lon="-0.21851">
        <ele>369.20001220703</ele>
        <time>2012-12-29T10:10:08.000Z</time>
      </trkpt>
      <trkpt lat="43.2344" lon="-0.21857">
        <ele>369</ele>
        <time>2012-12-29T10:10:09.000Z</time>
      </trkpt>
      <trkpt lat="43.23439" lon="-0.21863">
        <ele>368.20001220703</ele>
        <time>2012-12-29T10:10:10.000Z</time>
      </trkpt>
      <trkpt lat="43.23438" lon="-0.21869">
        <ele>368</ele>
        <time>2012-12-29T10:10:11.000Z</time>
      </trkpt>
      <trkpt lat="43.23438" lon="-0.21875">
        <ele>367.20001220703</ele>
        <time>2012-12-29T10:10:12.000Z</time>
      </trkpt>
      <trkpt lat="43.23438" lon="-0.21881">
        <ele>367</ele>
        <time>2012-12-29T10:10:13.000Z</time>
      </trkpt>
      <trkpt lat="43.23438" lon="-0.21887">
        <ele>366.20001220703</ele>
        <time>2012-12-29T10:10:14.000Z</time>
      </trkpt>
      <trkpt lat="43.23438" lon="-0.21892">
        <ele>366</ele>
        <time>2012-12-29T10:10:15.000Z</time>
      </trkpt>
      <trkpt lat="43.23437" lon="-0.21898">
        <ele>365.20001220703</ele>
        <time>2012-12-29T10:10:16.000Z</time>
      </trkpt>
      <trkpt lat="43.23436" lon="-0.21914">
        <ele>365.20001220703</ele>
        <time>2012-12-29T10:10:19.000Z</time>
      </trkpt>
      <trkpt lat="43.23436" lon="-0.21937">
        <ele>365.20001220703</ele>
        <time>2012-12-29T10:10:25.000Z</time>
      </trkpt>
      <trkpt lat="43.23444" lon="-0.2196">
        <ele>365.20001220703</ele>
        <time>2012-12-29T10:10:30.000Z</time>
      </trkpt>
      <trkpt lat="43.23457" lon="-0.21976">
        <ele>365.20001220703</ele>
        <time>2012-12-29T10:10:35.000Z</time>
      </trkpt>
      <trkpt lat="43.23469" lon="-0.2199">
        <ele>365.20001220703</ele>
        <time>2012-12-29T10:10:40.000Z</time>
      </trkpt>
      <trkpt lat="43.23482" lon="-0.22002">
        <ele>365.20001220703</ele>
        <time>2012-12-29T10:10:45.000Z</time>
      </trkpt>
      <trkpt lat="43.23498" lon="-0.22019">
        <ele>365.20001220703</ele>
        <time>2012-12-29T10:10:51.000Z</time>
      </trkpt>
      <trkpt lat="43.23511" lon="-0.22034">
        <ele>365.20001220703</ele>
        <time>2012-12-29T10:10:57.000Z</time>
      </trkpt>
      <trkpt lat="43.23525" lon="-0.22043">
        <ele>365.20001220703</ele>
        <time>2012-12-29T10:11:02.000Z</time>
      </trkpt>
      <trkpt lat="43.23537" lon="-0.22057">
        <ele>365.20001220703</ele>
        <time>2012-12-29T10:11:07.000Z</time>
      </trkpt>
      <trkpt lat="43.23549" lon="-0.22072">
        <ele>365.20001220703</ele>
        <time>2012-12-29T10:11:12.000Z</time>
      </trkpt>
      <trkpt lat="43.23559" lon="-0.22087">
        <ele>365</ele>
        <time>2012-12-29T10:11:16.000Z</time>
      </trkpt>
      <trkpt lat="43.2356" lon="-0.22091">
        <ele>364.60000610352</ele>
        <time>2012-12-29T10:11:17.000Z</time>
      </trkpt>
      <trkpt lat="43.23561" lon="-0.22094">
        <ele>364.20001220703</ele>
        <time>2012-12-29T10:11:18.000Z</time>
      </trkpt>
      <trkpt lat="43.23562" lon="-0.22097">
        <ele>363.60000610352</ele>
        <time>2012-12-29T10:11:19.000Z</time>
      </trkpt>
      <trkpt lat="43.23562" lon="-0.221">
        <ele>363.20001220703</ele>
        <time>2012-12-29T10:11:20.000Z</time>
      </trkpt>
      <trkpt lat="43.23561" lon="-0.22106">
        <ele>363.20001220703</ele>
        <time>2012-12-29T10:11:22.000Z</time>
      </trkpt>
      <trkpt lat="43.2356" lon="-0.22121">
        <ele>362.60000610352</ele>
        <time>2012-12-29T10:11:26.000Z</time>
      </trkpt>
      <trkpt lat="43.2356" lon="-0.22124">
        <ele>362.20001220703</ele>
        <time>2012-12-29T10:11:27.000Z</time>
      </trkpt>
      <trkpt lat="43.23559" lon="-0.22129">
        <ele>361.60000610352</ele>
        <time>2012-12-29T10:11:28.000Z</time>
      </trkpt>
      <trkpt lat="43.23559" lon="-0.22133">
        <ele>361.20001220703</ele>
        <time>2012-12-29T10:11:29.000Z</time>
      </trkpt>
      <trkpt lat="43.23559" lon="-0.22137">
        <ele>360.60000610352</ele>
        <time>2012-12-29T10:11:30.000Z</time>
      </trkpt>
      <trkpt lat="43.23559" lon="-0.22142">
        <ele>360.60000610352</ele>
        <time>2012-12-29T10:11:31.000Z</time>
      </trkpt>
      <trkpt lat="43.23558" lon="-0.22154">
        <ele>360.60000610352</ele>
        <time>2012-12-29T10:11:34.000Z</time>
      </trkpt>
      <trkpt lat="43.23558" lon="-0.22159">
        <ele>360.60000610352</ele>
        <time>2012-12-29T10:11:35.000Z</time>
      </trkpt>
      <trkpt lat="43.23557" lon="-0.22163">
        <ele>360.20001220703</ele>
        <time>2012-12-29T10:11:36.000Z</time>
      </trkpt>
      <trkpt lat="43.23558" lon="-0.22168">
        <ele>359.60000610352</ele>
        <time>2012-12-29T10:11:37.000Z</time>
      </trkpt>
      <trkpt lat="43.23558" lon="-0.22173">
        <ele>359.20001220703</ele>
        <time>2012-12-29T10:11:38.000Z</time>
      </trkpt>
      <trkpt lat="43.23559" lon="-0.22178">
        <ele>359</ele>
        <time>2012-12-29T10:11:39.000Z</time>
      </trkpt>
      <trkpt lat="43.2356" lon="-0.22183">
        <ele>358.60000610352</ele>
        <time>2012-12-29T10:11:40.000Z</time>
      </trkpt>
      <trkpt lat="43.23563" lon="-0.22196">
        <ele>358.60000610352</ele>
        <time>2012-12-29T10:11:43.000Z</time>
      </trkpt>
      <trkpt lat="43.23564" lon="-0.22201">
        <ele>358.20001220703</ele>
        <time>2012-12-29T10:11:44.000Z</time>
      </trkpt>
      <trkpt lat="43.23566" lon="-0.22205">
        <ele>357.60000610352</ele>
        <time>2012-12-29T10:11:45.000Z</time>
      </trkpt>
      <trkpt lat="43.23568" lon="-0.22209">
        <ele>357.20001220703</ele>
        <time>2012-12-29T10:11:46.000Z</time>
      </trkpt>
      <trkpt lat="43.2357" lon="-0.22213">
        <ele>356.60000610352</ele>
        <time>2012-12-29T10:11:47.000Z</time>
      </trkpt>
      <trkpt lat="43.23572" lon="-0.22217">
        <ele>356</ele>
        <time>2012-12-29T10:11:48.000Z</time>
      </trkpt>
      <trkpt lat="43.23575" lon="-0.22221">
        <ele>355.20001220703</ele>
        <time>2012-12-29T10:11:49.000Z</time>
      </trkpt>
      <trkpt lat="43.23577" lon="-0.22226">
        <ele>354.60000610352</ele>
        <time>2012-12-29T10:11:50.000Z</time>
      </trkpt>
      <trkpt lat="43.2358" lon="-0.22231">
        <ele>354.20001220703</ele>
        <time>2012-12-29T10:11:51.000Z</time>
      </trkpt>
      <trkpt lat="43.23585" lon="-0.2224">
        <ele>353.60000610352</ele>
        <time>2012-12-29T10:11:53.000Z</time>
      </trkpt>
      <trkpt lat="43.23587" lon="-0.22245">
        <ele>353.20001220703</ele>
        <time>2012-12-29T10:11:54.000Z</time>
      </trkpt>
      <trkpt lat="43.2359" lon="-0.22249">
        <ele>352.60000610352</ele>
        <time>2012-12-29T10:11:55.000Z</time>
      </trkpt>
      <trkpt lat="43.23592" lon="-0.22253">
        <ele>352.20001220703</ele>
        <time>2012-12-29T10:11:56.000Z</time>
      </trkpt>
      <trkpt lat="43.23594" lon="-0.22257">
        <ele>351.60000610352</ele>
        <time>2012-12-29T10:11:57.000Z</time>
      </trkpt>
      <trkpt lat="43.23596" lon="-0.22261">
        <ele>351.20001220703</ele>
        <time>2012-12-29T10:11:58.000Z</time>
      </trkpt>
      <trkpt lat="43.23598" lon="-0.22265">
        <ele>350.60000610352</ele>
        <time>2012-12-29T10:11:59.000Z</time>
      </trkpt>
      <trkpt lat="43.236" lon="-0.22269">
        <ele>350</ele>
        <time>2012-12-29T10:12:00.000Z</time>
      </trkpt>
      <trkpt lat="43.23603" lon="-0.22272">
        <ele>349.20001220703</ele>
        <time>2012-12-29T10:12:01.000Z</time>
      </trkpt>
      <trkpt lat="43.23608" lon="-0.22279">
        <ele>349</ele>
        <time>2012-12-29T10:12:03.000Z</time>
      </trkpt>
      <trkpt lat="43.23611" lon="-0.22283">
        <ele>348.60000610352</ele>
        <time>2012-12-29T10:12:04.000Z</time>
      </trkpt>
      <trkpt lat="43.23614" lon="-0.22286">
        <ele>348.20001220703</ele>
        <time>2012-12-29T10:12:05.000Z</time>
      </trkpt>
      <trkpt lat="43.23617" lon="-0.22289">
        <ele>347.60000610352</ele>
        <time>2012-12-29T10:12:06.000Z</time>
      </trkpt>
      <trkpt lat="43.2362" lon="-0.22291">
        <ele>347.20001220703</ele>
        <time>2012-12-29T10:12:07.000Z</time>
      </trkpt>
      <trkpt lat="43.23623" lon="-0.22294">
        <ele>346.60000610352</ele>
        <time>2012-12-29T10:12:08.000Z</time>
      </trkpt>
      <trkpt lat="43.23625" lon="-0.22296">
        <ele>346.20001220703</ele>
        <time>2012-12-29T10:12:09.000Z</time>
      </trkpt>
      <trkpt lat="43.23627" lon="-0.22299">
        <ele>346</ele>
        <time>2012-12-29T10:12:10.000Z</time>
      </trkpt>
      <trkpt lat="43.23628" lon="-0.22302">
        <ele>345.20001220703</ele>
        <time>2012-12-29T10:12:11.000Z</time>
      </trkpt>
      <trkpt lat="43.23628" lon="-0.22306">
        <ele>345</ele>
        <time>2012-12-29T10:12:12.000Z</time>
      </trkpt>
      <trkpt lat="43.23629" lon="-0.22317">
        <ele>345</ele>
        <time>2012-12-29T10:12:15.000Z</time>
      </trkpt>
      <trkpt lat="43.23628" lon="-0.22338">
        <ele>344.60000610352</ele>
        <time>2012-12-29T10:12:20.000Z</time>
      </trkpt>
      <trkpt lat="43.23628" lon="-0.22341">
        <ele>344.20001220703</ele>
        <time>2012-12-29T10:12:21.000Z</time>
      </trkpt>
      <trkpt lat="43.23626" lon="-0.22345">
        <ele>343.60000610352</ele>
        <time>2012-12-29T10:12:22.000Z</time>
      </trkpt>
      <trkpt lat="43.23625" lon="-0.22348">
        <ele>343.20001220703</ele>
        <time>2012-12-29T10:12:23.000Z</time>
      </trkpt>
      <trkpt lat="43.23623" lon="-0.22351">
        <ele>342.60000610352</ele>
        <time>2012-12-29T10:12:24.000Z</time>
      </trkpt>
      <trkpt lat="43.23616" lon="-0.22369">
        <ele>342.20001220703</ele>
        <time>2012-12-29T10:12:29.000Z</time>
      </trkpt>
      <trkpt lat="43.23615" lon="-0.22373">
        <ele>341.60000610352</ele>
        <time>2012-12-29T10:12:30.000Z</time>
      </trkpt>
      <trkpt lat="43.23614" lon="-0.22377">
        <ele>341.20001220703</ele>
        <time>2012-12-29T10:12:31.000Z</time>
      </trkpt>
      <trkpt lat="43.23613" lon="-0.2238">
        <ele>340.60000610352</ele>
        <time>2012-12-29T10:12:32.000Z</time>
      </trkpt>
      <trkpt lat="43.23612" lon="-0.22384">
        <ele>340.20001220703</ele>
        <time>2012-12-29T10:12:33.000Z</time>
      </trkpt>
      <trkpt lat="43.23611" lon="-0.22388">
        <ele>339.60000610352</ele>
        <time>2012-12-29T10:12:34.000Z</time>
      </trkpt>
      <trkpt lat="43.2361" lon="-0.22391">
        <ele>339.20001220703</ele>
        <time>2012-12-29T10:12:35.000Z</time>
      </trkpt>
      <trkpt lat="43.2361" lon="-0.22395">
        <ele>338.60000610352</ele>
        <time>2012-12-29T10:12:36.000Z</time>
      </trkpt>
      <trkpt lat="43.23609" lon="-0.22399">
        <ele>338.20001220703</ele>
        <time>2012-12-29T10:12:37.000Z</time>
      </trkpt>
      <trkpt lat="43.23608" lon="-0.22402">
        <ele>337.60000610352</ele>
        <time>2012-12-29T10:12:38.000Z</time>
      </trkpt>
      <trkpt lat="43.23607" lon="-0.22405">
        <ele>337.20001220703</ele>
        <time>2012-12-29T10:12:39.000Z</time>
      </trkpt>
      <trkpt lat="43.23606" lon="-0.22409">
        <ele>336.60000610352</ele>
        <time>2012-12-29T10:12:40.000Z</time>
      </trkpt>
      <trkpt lat="43.23605" lon="-0.22413">
        <ele>336</ele>
        <time>2012-12-29T10:12:41.000Z</time>
      </trkpt>
      <trkpt lat="43.23603" lon="-0.22416">
        <ele>335.20001220703</ele>
        <time>2012-12-29T10:12:42.000Z</time>
      </trkpt>
      <trkpt lat="43.236" lon="-0.22421">
        <ele>335.20001220703</ele>
        <time>2012-12-29T10:12:46.000Z</time>
      </trkpt>
      <trkpt lat="43.23599" lon="-0.22421">
        <ele>335</ele>
        <time>2012-12-29T10:12:48.000Z</time>
      </trkpt>
      <trkpt lat="43.23599" lon="-0.22422">
        <ele>334.20001220703</ele>
        <time>2012-12-29T10:12:49.000Z</time>
      </trkpt>
      <trkpt lat="43.23608" lon="-0.22431">
        <ele>333</ele>
        <time>2012-12-29T10:14:14.000Z</time>
      </trkpt>
      <trkpt lat="43.23608" lon="-0.22432">
        <ele>333</ele>
        <time>2012-12-29T10:14:15.000Z</time>
      </trkpt>
      <trkpt lat="43.2362" lon="-0.22432">
        <ele>333</ele>
        <time>2012-12-29T10:14:19.000Z</time>
      </trkpt>
      <trkpt lat="43.23624" lon="-0.22431">
        <ele>333</ele>
        <time>2012-12-29T10:14:20.000Z</time>
      </trkpt>
      <trkpt lat="43.23637" lon="-0.22421">
        <ele>333</ele>
        <time>2012-12-29T10:14:25.000Z</time>
      </trkpt>
      <trkpt lat="43.23639" lon="-0.22418">
        <ele>333</ele>
        <time>2012-12-29T10:14:26.000Z</time>
      </trkpt>
      <trkpt lat="43.23645" lon="-0.22409">
        <ele>333</ele>
        <time>2012-12-29T10:14:29.000Z</time>
      </trkpt>
      <trkpt lat="43.23649" lon="-0.22403">
        <ele>333.60000610352</ele>
        <time>2012-12-29T10:14:31.000Z</time>
      </trkpt>
      <trkpt lat="43.23651" lon="-0.224">
        <ele>334</ele>
        <time>2012-12-29T10:14:32.000Z</time>
      </trkpt>
      <trkpt lat="43.23653" lon="-0.22397">
        <ele>334.20001220703</ele>
        <time>2012-12-29T10:14:33.000Z</time>
      </trkpt>
      <trkpt lat="43.23655" lon="-0.22394">
        <ele>335</ele>
        <time>2012-12-29T10:14:34.000Z</time>
      </trkpt>
      <trkpt lat="43.23658" lon="-0.22392">
        <ele>335.20001220703</ele>
        <time>2012-12-29T10:14:35.000Z</time>
      </trkpt>
      <trkpt lat="43.2366" lon="-0.2239">
        <ele>335.60000610352</ele>
        <time>2012-12-29T10:14:36.000Z</time>
      </trkpt>
      <trkpt lat="43.23662" lon="-0.22388">
        <ele>336.20001220703</ele>
        <time>2012-12-29T10:14:37.000Z</time>
      </trkpt>
      <trkpt lat="43.23664" lon="-0.22388">
        <ele>336.60000610352</ele>
        <time>2012-12-29T10:14:38.000Z</time>
      </trkpt>
      <trkpt lat="43.23666" lon="-0.22388">
        <ele>337.20001220703</ele>
        <time>2012-12-29T10:14:39.000Z</time>
      </trkpt>
      <trkpt lat="43.23668" lon="-0.22388">
        <ele>337.60000610352</ele>
        <time>2012-12-29T10:14:40.000Z</time>
      </trkpt>
      <trkpt lat="43.23672" lon="-0.2239">
        <ele>337.60000610352</ele>
        <time>2012-12-29T10:14:42.000Z</time>
      </trkpt>
      <trkpt lat="43.23678" lon="-0.22396">
        <ele>337.60000610352</ele>
        <time>2012-12-29T10:14:45.000Z</time>
      </trkpt>
      <trkpt lat="43.23687" lon="-0.22404">
        <ele>337.60000610352</ele>
        <time>2012-12-29T10:14:49.000Z</time>
      </trkpt>
      <trkpt lat="43.23694" lon="-0.22415">
        <ele>337.60000610352</ele>
        <time>2012-12-29T10:14:54.000Z</time>
      </trkpt>
      <trkpt lat="43.23699" lon="-0.22421">
        <ele>337.60000610352</ele>
        <time>2012-12-29T10:14:58.000Z</time>
      </trkpt>
      <trkpt lat="43.23703" lon="-0.22424">
        <ele>337.60000610352</ele>
        <time>2012-12-29T10:15:00.000Z</time>
      </trkpt>
      <trkpt lat="43.23706" lon="-0.22426">
        <ele>338</ele>
        <time>2012-12-29T10:15:02.000Z</time>
      </trkpt>
      <trkpt lat="43.23709" lon="-0.22428">
        <ele>338.60000610352</ele>
        <time>2012-12-29T10:15:03.000Z</time>
      </trkpt>
      <trkpt lat="43.23711" lon="-0.2243">
        <ele>339</ele>
        <time>2012-12-29T10:15:04.000Z</time>
      </trkpt>
      <trkpt lat="43.23713" lon="-0.22432">
        <ele>339.20001220703</ele>
        <time>2012-12-29T10:15:05.000Z</time>
      </trkpt>
      <trkpt lat="43.23714" lon="-0.22435">
        <ele>340</ele>
        <time>2012-12-29T10:15:06.000Z</time>
      </trkpt>
      <trkpt lat="43.23716" lon="-0.2244">
        <ele>340</ele>
        <time>2012-12-29T10:15:08.000Z</time>
      </trkpt>
      <trkpt lat="43.23716" lon="-0.22444">
        <ele>340</ele>
        <time>2012-12-29T10:15:09.000Z</time>
      </trkpt>
      <trkpt lat="43.23716" lon="-0.22456">
        <ele>340</ele>
        <time>2012-12-29T10:15:13.000Z</time>
      </trkpt>
      <trkpt lat="43.23714" lon="-0.22466">
        <ele>340</ele>
        <time>2012-12-29T10:15:16.000Z</time>
      </trkpt>
      <trkpt lat="43.23715" lon="-0.22477">
        <ele>340</ele>
        <time>2012-12-29T10:15:19.000Z</time>
      </trkpt>
      <trkpt lat="43.23715" lon="-0.22485">
        <ele>340</ele>
        <time>2012-12-29T10:15:21.000Z</time>
      </trkpt>
      <trkpt lat="43.23715" lon="-0.22489">
        <ele>340</ele>
        <time>2012-12-29T10:15:22.000Z</time>
      </trkpt>
      <trkpt lat="43.23715" lon="-0.22499">
        <ele>340</ele>
        <time>2012-12-29T10:15:25.000Z</time>
      </trkpt>
      <trkpt lat="43.23715" lon="-0.22509">
        <ele>340</ele>
        <time>2012-12-29T10:15:28.000Z</time>
      </trkpt>
      <trkpt lat="43.23714" lon="-0.22513">
        <ele>339.60000610352</ele>
        <time>2012-12-29T10:15:29.000Z</time>
      </trkpt>
      <trkpt lat="43.23713" lon="-0.22517">
        <ele>339.20001220703</ele>
        <time>2012-12-29T10:15:30.000Z</time>
      </trkpt>
      <trkpt lat="43.23712" lon="-0.22522">
        <ele>338.60000610352</ele>
        <time>2012-12-29T10:15:31.000Z</time>
      </trkpt>
      <trkpt lat="43.23711" lon="-0.22527">
        <ele>338.20001220703</ele>
        <time>2012-12-29T10:15:32.000Z</time>
      </trkpt>
      <trkpt lat="43.23709" lon="-0.22532">
        <ele>337.60000610352</ele>
        <time>2012-12-29T10:15:33.000Z</time>
      </trkpt>
      <trkpt lat="43.23706" lon="-0.2254">
        <ele>337.20001220703</ele>
        <time>2012-12-29T10:15:35.000Z</time>
      </trkpt>
      <trkpt lat="43.23704" lon="-0.22544">
        <ele>336.60000610352</ele>
        <time>2012-12-29T10:15:36.000Z</time>
      </trkpt>
      <trkpt lat="43.23703" lon="-0.22549">
        <ele>336.20001220703</ele>
        <time>2012-12-29T10:15:37.000Z</time>
      </trkpt>
      <trkpt lat="43.23702" lon="-0.22553">
        <ele>336</ele>
        <time>2012-12-29T10:15:38.000Z</time>
      </trkpt>
      <trkpt lat="43.23701" lon="-0.22558">
        <ele>335.20001220703</ele>
        <time>2012-12-29T10:15:39.000Z</time>
      </trkpt>
      <trkpt lat="43.23701" lon="-0.22562">
        <ele>334.60000610352</ele>
        <time>2012-12-29T10:15:40.000Z</time>
      </trkpt>
      <trkpt lat="43.237" lon="-0.22566">
        <ele>334.20001220703</ele>
        <time>2012-12-29T10:15:41.000Z</time>
      </trkpt>
      <trkpt lat="43.237" lon="-0.22569">
        <ele>333.60000610352</ele>
        <time>2012-12-29T10:15:42.000Z</time>
      </trkpt>
      <trkpt lat="43.23699" lon="-0.22573">
        <ele>333</ele>
        <time>2012-12-29T10:15:43.000Z</time>
      </trkpt>
      <trkpt lat="43.23699" lon="-0.22576">
        <ele>332.60000610352</ele>
        <time>2012-12-29T10:15:44.000Z</time>
      </trkpt>
      <trkpt lat="43.23698" lon="-0.2258">
        <ele>332.20001220703</ele>
        <time>2012-12-29T10:15:45.000Z</time>
      </trkpt>
      <trkpt lat="43.23699" lon="-0.22584">
        <ele>331.60000610352</ele>
        <time>2012-12-29T10:15:46.000Z</time>
      </trkpt>
      <trkpt lat="43.23699" lon="-0.22589">
        <ele>331.20001220703</ele>
        <time>2012-12-29T10:15:47.000Z</time>
      </trkpt>
      <trkpt lat="43.23699" lon="-0.22593">
        <ele>330.60000610352</ele>
        <time>2012-12-29T10:15:48.000Z</time>
      </trkpt>
      <trkpt lat="43.23702" lon="-0.2261">
        <ele>330.60000610352</ele>
        <time>2012-12-29T10:15:52.000Z</time>
      </trkpt>
      <trkpt lat="43.23705" lon="-0.22619">
        <ele>330.60000610352</ele>
        <time>2012-12-29T10:15:55.000Z</time>
      </trkpt>
      <trkpt lat="43.23708" lon="-0.22625">
        <ele>330.60000610352</ele>
        <time>2012-12-29T10:15:57.000Z</time>
      </trkpt>
      <trkpt lat="43.2371" lon="-0.2263">
        <ele>330.60000610352</ele>
        <time>2012-12-29T10:15:59.000Z</time>
      </trkpt>
      <trkpt lat="43.23711" lon="-0.22641">
        <ele>330.60000610352</ele>
        <time>2012-12-29T10:16:02.000Z</time>
      </trkpt>
      <trkpt lat="43.23711" lon="-0.22644">
        <ele>330.60000610352</ele>
        <time>2012-12-29T10:16:03.000Z</time>
      </trkpt>
      <trkpt lat="43.23709" lon="-0.2266">
        <ele>330.60000610352</ele>
        <time>2012-12-29T10:16:08.000Z</time>
      </trkpt>
      <trkpt lat="43.23705" lon="-0.22675">
        <ele>331.20001220703</ele>
        <time>2012-12-29T10:16:12.000Z</time>
      </trkpt>
      <trkpt lat="43.23704" lon="-0.22678">
        <ele>331.60000610352</ele>
        <time>2012-12-29T10:16:13.000Z</time>
      </trkpt>
      <trkpt lat="43.23704" lon="-0.22681">
        <ele>332</ele>
        <time>2012-12-29T10:16:14.000Z</time>
      </trkpt>
      <trkpt lat="43.23703" lon="-0.22684">
        <ele>332.20001220703</ele>
        <time>2012-12-29T10:16:15.000Z</time>
      </trkpt>
      <trkpt lat="43.23702" lon="-0.22686">
        <ele>332.60000610352</ele>
        <time>2012-12-29T10:16:16.000Z</time>
      </trkpt>
      <trkpt lat="43.23701" lon="-0.22691">
        <ele>332.60000610352</ele>
        <time>2012-12-29T10:16:18.000Z</time>
      </trkpt>
      <trkpt lat="43.23701" lon="-0.22694">
        <ele>332.60000610352</ele>
        <time>2012-12-29T10:16:19.000Z</time>
      </trkpt>
      <trkpt lat="43.23698" lon="-0.22703">
        <ele>332.60000610352</ele>
        <time>2012-12-29T10:16:22.000Z</time>
      </trkpt>
      <trkpt lat="43.23697" lon="-0.22707">
        <ele>332.60000610352</ele>
        <time>2012-12-29T10:16:23.000Z</time>
      </trkpt>
      <trkpt lat="43.2369" lon="-0.22727">
        <ele>332.60000610352</ele>
        <time>2012-12-29T10:16:28.000Z</time>
      </trkpt>
      <trkpt lat="43.23684" lon="-0.22741">
        <ele>332.60000610352</ele>
        <time>2012-12-29T10:16:32.000Z</time>
      </trkpt>
      <trkpt lat="43.23682" lon="-0.22747">
        <ele>332.20001220703</ele>
        <time>2012-12-29T10:16:34.000Z</time>
      </trkpt>
      <trkpt lat="43.2368" lon="-0.2275">
        <ele>331.60000610352</ele>
        <time>2012-12-29T10:16:35.000Z</time>
      </trkpt>
      <trkpt lat="43.23679" lon="-0.22753">
        <ele>331.20001220703</ele>
        <time>2012-12-29T10:16:36.000Z</time>
      </trkpt>
      <trkpt lat="43.23679" lon="-0.22756">
        <ele>330.60000610352</ele>
        <time>2012-12-29T10:16:37.000Z</time>
      </trkpt>
      <trkpt lat="43.23678" lon="-0.2276">
        <ele>330.20001220703</ele>
        <time>2012-12-29T10:16:38.000Z</time>
      </trkpt>
      <trkpt lat="43.23677" lon="-0.22771">
        <ele>330.20001220703</ele>
        <time>2012-12-29T10:16:41.000Z</time>
      </trkpt>
      <trkpt lat="43.23673" lon="-0.22782">
        <ele>330.20001220703</ele>
        <time>2012-12-29T10:16:44.000Z</time>
      </trkpt>
      <trkpt lat="43.23671" lon="-0.22785">
        <ele>330.20001220703</ele>
        <time>2012-12-29T10:16:45.000Z</time>
      </trkpt>
      <trkpt lat="43.23668" lon="-0.22794">
        <ele>330.20001220703</ele>
        <time>2012-12-29T10:16:48.000Z</time>
      </trkpt>
      <trkpt lat="43.23667" lon="-0.22797">
        <ele>330.20001220703</ele>
        <time>2012-12-29T10:16:49.000Z</time>
      </trkpt>
      <trkpt lat="43.23666" lon="-0.22809">
        <ele>330.20001220703</ele>
        <time>2012-12-29T10:16:54.000Z</time>
      </trkpt>
      <trkpt lat="43.23666" lon="-0.22811">
        <ele>330.20001220703</ele>
        <time>2012-12-29T10:16:55.000Z</time>
      </trkpt>
      <trkpt lat="43.23665" lon="-0.22814">
        <ele>330.20001220703</ele>
        <time>2012-12-29T10:16:57.000Z</time>
      </trkpt>
      <trkpt lat="43.23666" lon="-0.22819">
        <ele>330.60000610352</ele>
        <time>2012-12-29T10:16:59.000Z</time>
      </trkpt>
      <trkpt lat="43.23667" lon="-0.22822">
        <ele>331.20001220703</ele>
        <time>2012-12-29T10:17:00.000Z</time>
      </trkpt>
      <trkpt lat="43.23667" lon="-0.22825">
        <ele>331.60000610352</ele>
        <time>2012-12-29T10:17:01.000Z</time>
      </trkpt>
      <trkpt lat="43.23667" lon="-0.22828">
        <ele>332.20001220703</ele>
        <time>2012-12-29T10:17:02.000Z</time>
      </trkpt>
      <trkpt lat="43.23666" lon="-0.2283">
        <ele>332.60000610352</ele>
        <time>2012-12-29T10:17:03.000Z</time>
      </trkpt>
      <trkpt lat="43.23666" lon="-0.22832">
        <ele>333</ele>
        <time>2012-12-29T10:17:04.000Z</time>
      </trkpt>
      <trkpt lat="43.23666" lon="-0.22834">
        <ele>333.60000610352</ele>
        <time>2012-12-29T10:17:05.000Z</time>
      </trkpt>
      <trkpt lat="43.23668" lon="-0.22837">
        <ele>334</ele>
        <time>2012-12-29T10:17:06.000Z</time>
      </trkpt>
      <trkpt lat="43.23669" lon="-0.2284">
        <ele>334.20001220703</ele>
        <time>2012-12-29T10:17:07.000Z</time>
      </trkpt>
      <trkpt lat="43.23671" lon="-0.22843">
        <ele>334.60000610352</ele>
        <time>2012-12-29T10:17:08.000Z</time>
      </trkpt>
      <trkpt lat="43.23672" lon="-0.22846">
        <ele>334.60000610352</ele>
        <time>2012-12-29T10:17:09.000Z</time>
      </trkpt>
      <trkpt lat="43.23678" lon="-0.22862">
        <ele>334.60000610352</ele>
        <time>2012-12-29T10:17:15.000Z</time>
      </trkpt>
      <trkpt lat="43.23682" lon="-0.22877">
        <ele>335.20001220703</ele>
        <time>2012-12-29T10:17:20.000Z</time>
      </trkpt>
      <trkpt lat="43.23683" lon="-0.2288">
        <ele>335.60000610352</ele>
        <time>2012-12-29T10:17:21.000Z</time>
      </trkpt>
      <trkpt lat="43.23684" lon="-0.22883">
        <ele>336.20001220703</ele>
        <time>2012-12-29T10:17:22.000Z</time>
      </trkpt>
      <trkpt lat="43.23684" lon="-0.22886">
        <ele>336.60000610352</ele>
        <time>2012-12-29T10:17:23.000Z</time>
      </trkpt>
      <trkpt lat="43.23685" lon="-0.22889">
        <ele>337.20001220703</ele>
        <time>2012-12-29T10:17:24.000Z</time>
      </trkpt>
      <trkpt lat="43.23686" lon="-0.22894">
        <ele>337.20001220703</ele>
        <time>2012-12-29T10:17:26.000Z</time>
      </trkpt>
      <trkpt lat="43.23694" lon="-0.22913">
        <ele>337.20001220703</ele>
        <time>2012-12-29T10:17:32.000Z</time>
      </trkpt>
      <trkpt lat="43.23696" lon="-0.22921">
        <ele>337.20001220703</ele>
        <time>2012-12-29T10:17:37.000Z</time>
      </trkpt>
      <trkpt lat="43.23697" lon="-0.22932">
        <ele>337.20001220703</ele>
        <time>2012-12-29T10:17:42.000Z</time>
      </trkpt>
      <trkpt lat="43.23699" lon="-0.22944">
        <ele>336.60000610352</ele>
        <time>2012-12-29T10:17:47.000Z</time>
      </trkpt>
      <trkpt lat="43.23699" lon="-0.22946">
        <ele>336.20001220703</ele>
        <time>2012-12-29T10:17:48.000Z</time>
      </trkpt>
      <trkpt lat="43.237" lon="-0.22947">
        <ele>336</ele>
        <time>2012-12-29T10:17:49.000Z</time>
      </trkpt>
      <trkpt lat="43.23701" lon="-0.22949">
        <ele>335.60000610352</ele>
        <time>2012-12-29T10:17:50.000Z</time>
      </trkpt>
      <trkpt lat="43.23702" lon="-0.22951">
        <ele>335.20001220703</ele>
        <time>2012-12-29T10:17:51.000Z</time>
      </trkpt>
      <trkpt lat="43.23708" lon="-0.22962">
        <ele>335.20001220703</ele>
        <time>2012-12-29T10:17:58.000Z</time>
      </trkpt>
      <trkpt lat="43.23715" lon="-0.22973">
        <ele>335.20001220703</ele>
        <time>2012-12-29T10:18:09.000Z</time>
      </trkpt>
      <trkpt lat="43.23719" lon="-0.22979">
        <ele>335.20001220703</ele>
        <time>2012-12-29T10:18:14.000Z</time>
      </trkpt>
      <trkpt lat="43.23738" lon="-0.22989">
        <ele>333.20001220703</ele>
        <time>2012-12-29T10:20:22.000Z</time>
      </trkpt>
      <trkpt lat="43.23738" lon="-0.22991">
        <ele>333.20001220703</ele>
        <time>2012-12-29T10:20:23.000Z</time>
      </trkpt>
      <trkpt lat="43.2374" lon="-0.23008">
        <ele>333.20001220703</ele>
        <time>2012-12-29T10:20:34.000Z</time>
      </trkpt>
      <trkpt lat="43.23739" lon="-0.23012">
        <ele>333.60000610352</ele>
        <time>2012-12-29T10:20:38.000Z</time>
      </trkpt>
      <trkpt lat="43.23739" lon="-0.23013">
        <ele>334</ele>
        <time>2012-12-29T10:20:39.000Z</time>
      </trkpt>
      <trkpt lat="43.23738" lon="-0.23013">
        <ele>334.60000610352</ele>
        <time>2012-12-29T10:20:40.000Z</time>
      </trkpt>
      <trkpt lat="43.23738" lon="-0.23014">
        <ele>335</ele>
        <time>2012-12-29T10:20:41.000Z</time>
      </trkpt>
      <trkpt lat="43.23737" lon="-0.23016">
        <ele>335.60000610352</ele>
        <time>2012-12-29T10:20:42.000Z</time>
      </trkpt>
      <trkpt lat="43.23737" lon="-0.23017">
        <ele>335.60000610352</ele>
        <time>2012-12-29T10:20:43.000Z</time>
      </trkpt>
      <trkpt lat="43.23738" lon="-0.23022">
        <ele>335.60000610352</ele>
        <time>2012-12-29T10:20:46.000Z</time>
      </trkpt>
      <trkpt lat="43.23744" lon="-0.23028">
        <ele>335.60000610352</ele>
        <time>2012-12-29T10:20:51.000Z</time>
      </trkpt>
      <trkpt lat="43.23752" lon="-0.23043">
        <ele>336</ele>
        <time>2012-12-29T10:21:01.000Z</time>
      </trkpt>
      <trkpt lat="43.23753" lon="-0.23045">
        <ele>336.20001220703</ele>
        <time>2012-12-29T10:21:02.000Z</time>
      </trkpt>
      <trkpt lat="43.23754" lon="-0.23046">
        <ele>336.60000610352</ele>
        <time>2012-12-29T10:21:03.000Z</time>
      </trkpt>
      <trkpt lat="43.23755" lon="-0.23047">
        <ele>337.20001220703</ele>
        <time>2012-12-29T10:21:04.000Z</time>
      </trkpt>
      <trkpt lat="43.23756" lon="-0.23048">
        <ele>337.60000610352</ele>
        <time>2012-12-29T10:21:05.000Z</time>
      </trkpt>
      <trkpt lat="43.23759" lon="-0.23051">
        <ele>337.60000610352</ele>
        <time>2012-12-29T10:21:08.000Z</time>
      </trkpt>
      <trkpt lat="43.2376" lon="-0.23054">
        <ele>337.60000610352</ele>
        <time>2012-12-29T10:21:10.000Z</time>
      </trkpt>
      <trkpt lat="43.23761" lon="-0.23055">
        <ele>337.60000610352</ele>
        <time>2012-12-29T10:21:11.000Z</time>
      </trkpt>
      <trkpt lat="43.23762" lon="-0.23056">
        <ele>337.60000610352</ele>
        <time>2012-12-29T10:21:12.000Z</time>
      </trkpt>
      <trkpt lat="43.23769" lon="-0.23063">
        <ele>338</ele>
        <time>2012-12-29T10:21:17.000Z</time>
      </trkpt>
      <trkpt lat="43.23771" lon="-0.23065">
        <ele>338.20001220703</ele>
        <time>2012-12-29T10:21:18.000Z</time>
      </trkpt>
      <trkpt lat="43.23774" lon="-0.23066">
        <ele>338.60000610352</ele>
        <time>2012-12-29T10:21:19.000Z</time>
      </trkpt>
      <trkpt lat="43.23777" lon="-0.23067">
        <ele>339.20001220703</ele>
        <time>2012-12-29T10:21:20.000Z</time>
      </trkpt>
      <trkpt lat="43.2378" lon="-0.23068">
        <ele>339.60000610352</ele>
        <time>2012-12-29T10:21:21.000Z</time>
      </trkpt>
      <trkpt lat="43.23784" lon="-0.23069">
        <ele>339.60000610352</ele>
        <time>2012-12-29T10:21:23.000Z</time>
      </trkpt>
      <trkpt lat="43.23793" lon="-0.23069">
        <ele>340</ele>
        <time>2012-12-29T10:21:28.000Z</time>
      </trkpt>
      <trkpt lat="43.23795" lon="-0.2307">
        <ele>340.20001220703</ele>
        <time>2012-12-29T10:21:29.000Z</time>
      </trkpt>
      <trkpt lat="43.23795" lon="-0.2307">
        <ele>341</ele>
        <time>2012-12-29T10:21:30.000Z</time>
      </trkpt>
      <trkpt lat="43.23796" lon="-0.23071">
        <ele>341.20001220703</ele>
        <time>2012-12-29T10:21:31.000Z</time>
      </trkpt>
      <trkpt lat="43.23797" lon="-0.23071">
        <ele>341.60000610352</ele>
        <time>2012-12-29T10:21:32.000Z</time>
      </trkpt>
      <trkpt lat="43.23799" lon="-0.23072">
        <ele>341.60000610352</ele>
        <time>2012-12-29T10:21:34.000Z</time>
      </trkpt>
      <trkpt lat="43.23802" lon="-0.23072">
        <ele>341.60000610352</ele>
        <time>2012-12-29T10:21:36.000Z</time>
      </trkpt>
      <trkpt lat="43.23804" lon="-0.23074">
        <ele>342.20001220703</ele>
        <time>2012-12-29T10:21:38.000Z</time>
      </trkpt>
      <trkpt lat="43.23805" lon="-0.23075">
        <ele>342.60000610352</ele>
        <time>2012-12-29T10:21:39.000Z</time>
      </trkpt>
      <trkpt lat="43.23806" lon="-0.23077">
        <ele>343</ele>
        <time>2012-12-29T10:21:40.000Z</time>
      </trkpt>
      <trkpt lat="43.23807" lon="-0.23077">
        <ele>343.20001220703</ele>
        <time>2012-12-29T10:21:41.000Z</time>
      </trkpt>
      <trkpt lat="43.23809" lon="-0.23079">
        <ele>343.60000610352</ele>
        <time>2012-12-29T10:21:42.000Z</time>
      </trkpt>
      <trkpt lat="43.23815" lon="-0.23082">
        <ele>343.60000610352</ele>
        <time>2012-12-29T10:21:45.000Z</time>
      </trkpt>
      <trkpt lat="43.23819" lon="-0.23086">
        <ele>343.20001220703</ele>
        <time>2012-12-29T10:21:47.000Z</time>
      </trkpt>
      <trkpt lat="43.23822" lon="-0.23087">
        <ele>343</ele>
        <time>2012-12-29T10:21:48.000Z</time>
      </trkpt>
      <trkpt lat="43.23823" lon="-0.23089">
        <ele>342.60000610352</ele>
        <time>2012-12-29T10:21:49.000Z</time>
      </trkpt>
      <trkpt lat="43.23825" lon="-0.2309">
        <ele>342</ele>
        <time>2012-12-29T10:21:50.000Z</time>
      </trkpt>
      <trkpt lat="43.23826" lon="-0.23091">
        <ele>341.60000610352</ele>
        <time>2012-12-29T10:21:51.000Z</time>
      </trkpt>
      <trkpt lat="43.2383" lon="-0.23093">
        <ele>341.20001220703</ele>
        <time>2012-12-29T10:21:54.000Z</time>
      </trkpt>
      <trkpt lat="43.23831" lon="-0.23094">
        <ele>340.60000610352</ele>
        <time>2012-12-29T10:21:55.000Z</time>
      </trkpt>
      <trkpt lat="43.23833" lon="-0.23094">
        <ele>340.20001220703</ele>
        <time>2012-12-29T10:21:56.000Z</time>
      </trkpt>
      <trkpt lat="43.23834" lon="-0.23094">
        <ele>339.60000610352</ele>
        <time>2012-12-29T10:21:57.000Z</time>
      </trkpt>
      <trkpt lat="43.23836" lon="-0.23093">
        <ele>339.20001220703</ele>
        <time>2012-12-29T10:21:58.000Z</time>
      </trkpt>
      <trkpt lat="43.23841" lon="-0.23092">
        <ele>339.20001220703</ele>
        <time>2012-12-29T10:22:01.000Z</time>
      </trkpt>
      <trkpt lat="43.23844" lon="-0.23091">
        <ele>339</ele>
        <time>2012-12-29T10:22:02.000Z</time>
      </trkpt>
      <trkpt lat="43.23847" lon="-0.23091">
        <ele>338.60000610352</ele>
        <time>2012-12-29T10:22:03.000Z</time>
      </trkpt>
      <trkpt lat="43.2385" lon="-0.2309">
        <ele>338.20001220703</ele>
        <time>2012-12-29T10:22:04.000Z</time>
      </trkpt>
      <trkpt lat="43.23853" lon="-0.23089">
        <ele>337.60000610352</ele>
        <time>2012-12-29T10:22:05.000Z</time>
      </trkpt>
      <trkpt lat="43.23855" lon="-0.23088">
        <ele>337.20001220703</ele>
        <time>2012-12-29T10:22:06.000Z</time>
      </trkpt>
      <trkpt lat="43.23859" lon="-0.23086">
        <ele>337.20001220703</ele>
        <time>2012-12-29T10:22:08.000Z</time>
      </trkpt>
      <trkpt lat="43.23864" lon="-0.23081">
        <ele>337.20001220703</ele>
        <time>2012-12-29T10:22:12.000Z</time>
      </trkpt>
      <trkpt lat="43.23866" lon="-0.23081">
        <ele>337.20001220703</ele>
        <time>2012-12-29T10:22:14.000Z</time>
      </trkpt>
      <trkpt lat="43.23868" lon="-0.23082">
        <ele>337.20001220703</ele>
        <time>2012-12-29T10:22:16.000Z</time>
      </trkpt>
      <trkpt lat="43.23882" lon="-0.23081">
        <ele>337.20001220703</ele>
        <time>2012-12-29T10:22:21.000Z</time>
      </trkpt>
      <trkpt lat="43.23896" lon="-0.23082">
        <ele>337.20001220703</ele>
        <time>2012-12-29T10:22:27.000Z</time>
      </trkpt>
      <trkpt lat="43.23907" lon="-0.23083">
        <ele>337.20001220703</ele>
        <time>2012-12-29T10:22:32.000Z</time>
      </trkpt>
      <trkpt lat="43.23926" lon="-0.23085">
        <ele>337.20001220703</ele>
        <time>2012-12-29T10:22:38.000Z</time>
      </trkpt>
      <trkpt lat="43.23935" lon="-0.2309">
        <ele>337.20001220703</ele>
        <time>2012-12-29T10:22:42.000Z</time>
      </trkpt>
      <trkpt lat="43.23937" lon="-0.23091">
        <ele>336.60000610352</ele>
        <time>2012-12-29T10:22:43.000Z</time>
      </trkpt>
      <trkpt lat="43.23938" lon="-0.23093">
        <ele>336.20001220703</ele>
        <time>2012-12-29T10:22:44.000Z</time>
      </trkpt>
      <trkpt lat="43.2394" lon="-0.23095">
        <ele>335.60000610352</ele>
        <time>2012-12-29T10:22:45.000Z</time>
      </trkpt>
      <trkpt lat="43.23942" lon="-0.23097">
        <ele>335</ele>
        <time>2012-12-29T10:22:46.000Z</time>
      </trkpt>
      <trkpt lat="43.23944" lon="-0.23099">
        <ele>334.20001220703</ele>
        <time>2012-12-29T10:22:47.000Z</time>
      </trkpt>
      <trkpt lat="43.23947" lon="-0.23101">
        <ele>334.20001220703</ele>
        <time>2012-12-29T10:22:49.000Z</time>
      </trkpt>
      <trkpt lat="43.23958" lon="-0.23106">
        <ele>334.20001220703</ele>
        <time>2012-12-29T10:22:54.000Z</time>
      </trkpt>
      <trkpt lat="43.23972" lon="-0.23106">
        <ele>334.20001220703</ele>
        <time>2012-12-29T10:22:59.000Z</time>
      </trkpt>
      <trkpt lat="43.23977" lon="-0.23106">
        <ele>334.20001220703</ele>
        <time>2012-12-29T10:23:01.000Z</time>
      </trkpt>
      <trkpt lat="43.23982" lon="-0.23106">
        <ele>334.20001220703</ele>
        <time>2012-12-29T10:23:03.000Z</time>
      </trkpt>
      <trkpt lat="43.23985" lon="-0.23108">
        <ele>334.20001220703</ele>
        <time>2012-12-29T10:23:05.000Z</time>
      </trkpt>
      <trkpt lat="43.23988" lon="-0.23111">
        <ele>334.20001220703</ele>
        <time>2012-12-29T10:23:07.000Z</time>
      </trkpt>
      <trkpt lat="43.23989" lon="-0.23113">
        <ele>334</ele>
        <time>2012-12-29T10:23:08.000Z</time>
      </trkpt>
      <trkpt lat="43.2399" lon="-0.23114">
        <ele>333.60000610352</ele>
        <time>2012-12-29T10:23:09.000Z</time>
      </trkpt>
      <trkpt lat="43.23991" lon="-0.23116">
        <ele>333.20001220703</ele>
        <time>2012-12-29T10:23:10.000Z</time>
      </trkpt>
      <trkpt lat="43.23993" lon="-0.23118">
        <ele>332.60000610352</ele>
        <time>2012-12-29T10:23:11.000Z</time>
      </trkpt>
      <trkpt lat="43.23995" lon="-0.23119">
        <ele>332.20001220703</ele>
        <time>2012-12-29T10:23:12.000Z</time>
      </trkpt>
      <trkpt lat="43.23996" lon="-0.23122">
        <ele>331.60000610352</ele>
        <time>2012-12-29T10:23:13.000Z</time>
      </trkpt>
      <trkpt lat="43.23999" lon="-0.23125">
        <ele>331.20001220703</ele>
        <time>2012-12-29T10:23:14.000Z</time>
      </trkpt>
      <trkpt lat="43.24" lon="-0.23129">
        <ele>331</ele>
        <time>2012-12-29T10:23:15.000Z</time>
      </trkpt>
      <trkpt lat="43.24002" lon="-0.23133">
        <ele>330.60000610352</ele>
        <time>2012-12-29T10:23:16.000Z</time>
      </trkpt>
      <trkpt lat="43.24004" lon="-0.23136">
        <ele>330</ele>
        <time>2012-12-29T10:23:17.000Z</time>
      </trkpt>
      <trkpt lat="43.24015" lon="-0.23149">
        <ele>330</ele>
        <time>2012-12-29T10:23:22.000Z</time>
      </trkpt>
      <trkpt lat="43.24026" lon="-0.23154">
        <ele>330</ele>
        <time>2012-12-29T10:23:28.000Z</time>
      </trkpt>
      <trkpt lat="43.24036" lon="-0.23164">
        <ele>330</ele>
        <time>2012-12-29T10:23:33.000Z</time>
      </trkpt>
      <trkpt lat="43.24044" lon="-0.23176">
        <ele>330</ele>
        <time>2012-12-29T10:23:38.000Z</time>
      </trkpt>
      <trkpt lat="43.24046" lon="-0.23191">
        <ele>330</ele>
        <time>2012-12-29T10:23:42.000Z</time>
      </trkpt>
      <trkpt lat="43.24046" lon="-0.23198">
        <ele>330</ele>
        <time>2012-12-29T10:23:44.000Z</time>
      </trkpt>
      <trkpt lat="43.24046" lon="-0.23205">
        <ele>330</ele>
        <time>2012-12-29T10:23:46.000Z</time>
      </trkpt>
      <trkpt lat="43.24048" lon="-0.23214">
        <ele>329.60000610352</ele>
        <time>2012-12-29T10:23:49.000Z</time>
      </trkpt>
      <trkpt lat="43.24049" lon="-0.23218">
        <ele>329.20001220703</ele>
        <time>2012-12-29T10:23:50.000Z</time>
      </trkpt>
      <trkpt lat="43.2405" lon="-0.2322">
        <ele>328.60000610352</ele>
        <time>2012-12-29T10:23:51.000Z</time>
      </trkpt>
      <trkpt lat="43.24051" lon="-0.23224">
        <ele>328.20001220703</ele>
        <time>2012-12-29T10:23:52.000Z</time>
      </trkpt>
      <trkpt lat="43.24052" lon="-0.23227">
        <ele>327.60000610352</ele>
        <time>2012-12-29T10:23:53.000Z</time>
      </trkpt>
      <trkpt lat="43.24055" lon="-0.23238">
        <ele>327.60000610352</ele>
        <time>2012-12-29T10:23:56.000Z</time>
      </trkpt>
      <trkpt lat="43.24061" lon="-0.2325">
        <ele>327.20001220703</ele>
        <time>2012-12-29T10:24:00.000Z</time>
      </trkpt>
      <trkpt lat="43.24062" lon="-0.23252">
        <ele>326.60000610352</ele>
        <time>2012-12-29T10:24:01.000Z</time>
      </trkpt>
      <trkpt lat="43.24064" lon="-0.23255">
        <ele>326.20001220703</ele>
        <time>2012-12-29T10:24:02.000Z</time>
      </trkpt>
      <trkpt lat="43.24066" lon="-0.23259">
        <ele>326</ele>
        <time>2012-12-29T10:24:03.000Z</time>
      </trkpt>
      <trkpt lat="43.24067" lon="-0.23262">
        <ele>325.60000610352</ele>
        <time>2012-12-29T10:24:04.000Z</time>
      </trkpt>
      <trkpt lat="43.2407" lon="-0.23269">
        <ele>325.60000610352</ele>
        <time>2012-12-29T10:24:06.000Z</time>
      </trkpt>
      <trkpt lat="43.24074" lon="-0.23282">
        <ele>325.60000610352</ele>
        <time>2012-12-29T10:24:10.000Z</time>
      </trkpt>
      <trkpt lat="43.24076" lon="-0.23286">
        <ele>325.60000610352</ele>
        <time>2012-12-29T10:24:12.000Z</time>
      </trkpt>
      <trkpt lat="43.24079" lon="-0.23294">
        <ele>325.60000610352</ele>
        <time>2012-12-29T10:24:15.000Z</time>
      </trkpt>
      <trkpt lat="43.24086" lon="-0.23315">
        <ele>325.60000610352</ele>
        <time>2012-12-29T10:24:21.000Z</time>
      </trkpt>
      <trkpt lat="43.24088" lon="-0.23319">
        <ele>325</ele>
        <time>2012-12-29T10:24:22.000Z</time>
      </trkpt>
      <trkpt lat="43.24089" lon="-0.23322">
        <ele>324.60000610352</ele>
        <time>2012-12-29T10:24:23.000Z</time>
      </trkpt>
      <trkpt lat="43.24091" lon="-0.23325">
        <ele>324</ele>
        <time>2012-12-29T10:24:24.000Z</time>
      </trkpt>
      <trkpt lat="43.24092" lon="-0.23329">
        <ele>323.60000610352</ele>
        <time>2012-12-29T10:24:25.000Z</time>
      </trkpt>
      <trkpt lat="43.24094" lon="-0.23332">
        <ele>323.20001220703</ele>
        <time>2012-12-29T10:24:26.000Z</time>
      </trkpt>
      <trkpt lat="43.24096" lon="-0.23335">
        <ele>323.20001220703</ele>
        <time>2012-12-29T10:24:27.000Z</time>
      </trkpt>
      <trkpt lat="43.24101" lon="-0.23344">
        <ele>322.60000610352</ele>
        <time>2012-12-29T10:24:30.000Z</time>
      </trkpt>
      <trkpt lat="43.24102" lon="-0.23347">
        <ele>322.20001220703</ele>
        <time>2012-12-29T10:24:31.000Z</time>
      </trkpt>
      <trkpt lat="43.24103" lon="-0.23349">
        <ele>321.60000610352</ele>
        <time>2012-12-29T10:24:32.000Z</time>
      </trkpt>
      <trkpt lat="43.24104" lon="-0.23351">
        <ele>321.20001220703</ele>
        <time>2012-12-29T10:24:33.000Z</time>
      </trkpt>
      <trkpt lat="43.24106" lon="-0.23351">
        <ele>320.60000610352</ele>
        <time>2012-12-29T10:24:34.000Z</time>
      </trkpt>
      <trkpt lat="43.2411" lon="-0.23353">
        <ele>320.60000610352</ele>
        <time>2012-12-29T10:24:36.000Z</time>
      </trkpt>
      <trkpt lat="43.24116" lon="-0.23357">
        <ele>320.60000610352</ele>
        <time>2012-12-29T10:24:39.000Z</time>
      </trkpt>
      <trkpt lat="43.24121" lon="-0.23361">
        <ele>320.60000610352</ele>
        <time>2012-12-29T10:24:42.000Z</time>
      </trkpt>
      <trkpt lat="43.24122" lon="-0.23364">
        <ele>320.60000610352</ele>
        <time>2012-12-29T10:24:45.000Z</time>
      </trkpt>
      <trkpt lat="43.24123" lon="-0.23369">
        <ele>320.60000610352</ele>
        <time>2012-12-29T10:24:50.000Z</time>
      </trkpt>
      <trkpt lat="43.24114" lon="-0.23398">
        <ele>318.60000610352</ele>
        <time>2012-12-29T10:27:38.000Z</time>
      </trkpt>
      <trkpt lat="43.24111" lon="-0.23401">
        <ele>318.60000610352</ele>
        <time>2012-12-29T10:27:41.000Z</time>
      </trkpt>
      <trkpt lat="43.24109" lon="-0.23401">
        <ele>318.20001220703</ele>
        <time>2012-12-29T10:27:42.000Z</time>
      </trkpt>
      <trkpt lat="43.24108" lon="-0.23402">
        <ele>317.60000610352</ele>
        <time>2012-12-29T10:27:43.000Z</time>
      </trkpt>
      <trkpt lat="43.24106" lon="-0.23402">
        <ele>317.20001220703</ele>
        <time>2012-12-29T10:27:44.000Z</time>
      </trkpt>
      <trkpt lat="43.24105" lon="-0.23401">
        <ele>316.60000610352</ele>
        <time>2012-12-29T10:27:45.000Z</time>
      </trkpt>
      <trkpt lat="43.24103" lon="-0.23401">
        <ele>316.20001220703</ele>
        <time>2012-12-29T10:27:46.000Z</time>
      </trkpt>
      <trkpt lat="43.241" lon="-0.234">
        <ele>316.20001220703</ele>
        <time>2012-12-29T10:27:48.000Z</time>
      </trkpt>
      <trkpt lat="43.24097" lon="-0.23399">
        <ele>316</ele>
        <time>2012-12-29T10:27:49.000Z</time>
      </trkpt>
      <trkpt lat="43.24095" lon="-0.23398">
        <ele>315.60000610352</ele>
        <time>2012-12-29T10:27:50.000Z</time>
      </trkpt>
      <trkpt lat="43.24093" lon="-0.23398">
        <ele>315</ele>
        <time>2012-12-29T10:27:51.000Z</time>
      </trkpt>
      <trkpt lat="43.2409" lon="-0.23397">
        <ele>314.60000610352</ele>
        <time>2012-12-29T10:27:52.000Z</time>
      </trkpt>
      <trkpt lat="43.24088" lon="-0.23397">
        <ele>314</ele>
        <time>2012-12-29T10:27:53.000Z</time>
      </trkpt>
      <trkpt lat="43.24085" lon="-0.23397">
        <ele>313.60000610352</ele>
        <time>2012-12-29T10:27:54.000Z</time>
      </trkpt>
      <trkpt lat="43.24083" lon="-0.23397">
        <ele>313</ele>
        <time>2012-12-29T10:27:55.000Z</time>
      </trkpt>
      <trkpt lat="43.24081" lon="-0.23396">
        <ele>312.20001220703</ele>
        <time>2012-12-29T10:27:56.000Z</time>
      </trkpt>
      <trkpt lat="43.24078" lon="-0.23396">
        <ele>312</ele>
        <time>2012-12-29T10:27:57.000Z</time>
      </trkpt>
      <trkpt lat="43.24076" lon="-0.23395">
        <ele>311.20001220703</ele>
        <time>2012-12-29T10:27:58.000Z</time>
      </trkpt>
      <trkpt lat="43.24074" lon="-0.23395">
        <ele>310.60000610352</ele>
        <time>2012-12-29T10:27:59.000Z</time>
      </trkpt>
      <trkpt lat="43.24072" lon="-0.23394">
        <ele>310.20001220703</ele>
        <time>2012-12-29T10:28:00.000Z</time>
      </trkpt>
      <trkpt lat="43.2407" lon="-0.23394">
        <ele>309.60000610352</ele>
        <time>2012-12-29T10:28:01.000Z</time>
      </trkpt>
      <trkpt lat="43.24069" lon="-0.23392">
        <ele>309.60000610352</ele>
        <time>2012-12-29T10:28:02.000Z</time>
      </trkpt>
      <trkpt lat="43.24069" lon="-0.23389">
        <ele>309.60000610352</ele>
        <time>2012-12-29T10:28:05.000Z</time>
      </trkpt>
      <trkpt lat="43.24069" lon="-0.23383">
        <ele>309.60000610352</ele>
        <time>2012-12-29T10:28:09.000Z</time>
      </trkpt>
      <trkpt lat="43.24069" lon="-0.23382">
        <ele>309.60000610352</ele>
        <time>2012-12-29T10:28:10.000Z</time>
      </trkpt>
      <trkpt lat="43.24067" lon="-0.23376">
        <ele>309.60000610352</ele>
        <time>2012-12-29T10:28:15.000Z</time>
      </trkpt>
      <trkpt lat="43.24066" lon="-0.23374">
        <ele>310.20001220703</ele>
        <time>2012-12-29T10:28:19.000Z</time>
      </trkpt>
      <trkpt lat="43.24066" lon="-0.23375">
        <ele>310.60000610352</ele>
        <time>2012-12-29T10:28:20.000Z</time>
      </trkpt>
      <trkpt lat="43.24066" lon="-0.23375">
        <ele>311.20001220703</ele>
        <time>2012-12-29T10:28:21.000Z</time>
      </trkpt>
      <trkpt lat="43.24052" lon="-0.23358">
        <ele>312</ele>
        <time>2012-12-29T10:28:38.000Z</time>
      </trkpt>
      <trkpt lat="43.24047" lon="-0.23357">
        <ele>312</ele>
        <time>2012-12-29T10:28:40.000Z</time>
      </trkpt>
      <trkpt lat="43.24044" lon="-0.23357">
        <ele>311.20001220703</ele>
        <time>2012-12-29T10:28:41.000Z</time>
      </trkpt>
      <trkpt lat="43.2404" lon="-0.23358">
        <ele>311</ele>
        <time>2012-12-29T10:28:42.000Z</time>
      </trkpt>
      <trkpt lat="43.24038" lon="-0.23359">
        <ele>310.20001220703</ele>
        <time>2012-12-29T10:28:43.000Z</time>
      </trkpt>
      <trkpt lat="43.24035" lon="-0.23361">
        <ele>309.60000610352</ele>
        <time>2012-12-29T10:28:44.000Z</time>
      </trkpt>
      <trkpt lat="43.24033" lon="-0.23363">
        <ele>309.20001220703</ele>
        <time>2012-12-29T10:28:45.000Z</time>
      </trkpt>
      <trkpt lat="43.24024" lon="-0.23373">
        <ele>309.20001220703</ele>
        <time>2012-12-29T10:28:50.000Z</time>
      </trkpt>
      <trkpt lat="43.2402" lon="-0.23377">
        <ele>309</ele>
        <time>2012-12-29T10:28:52.000Z</time>
      </trkpt>
      <trkpt lat="43.24019" lon="-0.23379">
        <ele>308.20001220703</ele>
        <time>2012-12-29T10:28:53.000Z</time>
      </trkpt>
      <trkpt lat="43.24016" lon="-0.23381">
        <ele>308</ele>
        <time>2012-12-29T10:28:54.000Z</time>
      </trkpt>
      <trkpt lat="43.24014" lon="-0.23383">
        <ele>307.60000610352</ele>
        <time>2012-12-29T10:28:55.000Z</time>
      </trkpt>
      <trkpt lat="43.24012" lon="-0.23384">
        <ele>307.20001220703</ele>
        <time>2012-12-29T10:28:56.000Z</time>
      </trkpt>
      <trkpt lat="43.24007" lon="-0.23387">
        <ele>306.60000610352</ele>
        <time>2012-12-29T10:28:58.000Z</time>
      </trkpt>
      <trkpt lat="43.24004" lon="-0.23388">
        <ele>306.20001220703</ele>
        <time>2012-12-29T10:28:59.000Z</time>
      </trkpt>
      <trkpt lat="43.24002" lon="-0.23389">
        <ele>305.60000610352</ele>
        <time>2012-12-29T10:29:00.000Z</time>
      </trkpt>
      <trkpt lat="43.23999" lon="-0.2339">
        <ele>305.20001220703</ele>
        <time>2012-12-29T10:29:01.000Z</time>
      </trkpt>
      <trkpt lat="43.23996" lon="-0.23392">
        <ele>304.60000610352</ele>
        <time>2012-12-29T10:29:02.000Z</time>
      </trkpt>
      <trkpt lat="43.23992" lon="-0.23394">
        <ele>304.20001220703</ele>
        <time>2012-12-29T10:29:04.000Z</time>
      </trkpt>
      <trkpt lat="43.23989" lon="-0.23395">
        <ele>303.60000610352</ele>
        <time>2012-12-29T10:29:05.000Z</time>
      </trkpt>
      <trkpt lat="43.23987" lon="-0.23396">
        <ele>303.20001220703</ele>
        <time>2012-12-29T10:29:06.000Z</time>
      </trkpt>
      <trkpt lat="43.23985" lon="-0.23398">
        <ele>303</ele>
        <time>2012-12-29T10:29:07.000Z</time>
      </trkpt>
      <trkpt lat="43.23983" lon="-0.23399">
        <ele>302.60000610352</ele>
        <time>2012-12-29T10:29:08.000Z</time>
      </trkpt>
      <trkpt lat="43.23977" lon="-0.23401">
        <ele>302.60000610352</ele>
        <time>2012-12-29T10:29:11.000Z</time>
      </trkpt>
      <trkpt lat="43.23966" lon="-0.23404">
        <ele>302.60000610352</ele>
        <time>2012-12-29T10:29:17.000Z</time>
      </trkpt>
      <trkpt lat="43.23963" lon="-0.23403">
        <ele>302.60000610352</ele>
        <time>2012-12-29T10:29:19.000Z</time>
      </trkpt>
      <trkpt lat="43.23956" lon="-0.23421">
        <ele>301.60000610352</ele>
        <time>2012-12-29T10:30:22.000Z</time>
      </trkpt>
      <trkpt lat="43.23954" lon="-0.23422">
        <ele>301.20001220703</ele>
        <time>2012-12-29T10:30:23.000Z</time>
      </trkpt>
      <trkpt lat="43.23951" lon="-0.23422">
        <ele>300.60000610352</ele>
        <time>2012-12-29T10:30:24.000Z</time>
      </trkpt>
      <trkpt lat="43.23949" lon="-0.23422">
        <ele>300.20001220703</ele>
        <time>2012-12-29T10:30:25.000Z</time>
      </trkpt>
      <trkpt lat="43.23943" lon="-0.23424">
        <ele>300</ele>
        <time>2012-12-29T10:30:27.000Z</time>
      </trkpt>
      <trkpt lat="43.23941" lon="-0.23425">
        <ele>299.20001220703</ele>
        <time>2012-12-29T10:30:28.000Z</time>
      </trkpt>
      <trkpt lat="43.23939" lon="-0.23427">
        <ele>299</ele>
        <time>2012-12-29T10:30:29.000Z</time>
      </trkpt>
      <trkpt lat="43.23937" lon="-0.2343">
        <ele>298.20001220703</ele>
        <time>2012-12-29T10:30:30.000Z</time>
      </trkpt>
      <trkpt lat="43.23936" lon="-0.23433">
        <ele>298</ele>
        <time>2012-12-29T10:30:31.000Z</time>
      </trkpt>
      <trkpt lat="43.23933" lon="-0.23441">
        <ele>298</ele>
        <time>2012-12-29T10:30:33.000Z</time>
      </trkpt>
      <trkpt lat="43.23928" lon="-0.23457">
        <ele>297.60000610352</ele>
        <time>2012-12-29T10:30:36.000Z</time>
      </trkpt>
      <trkpt lat="43.23927" lon="-0.23463">
        <ele>297.20001220703</ele>
        <time>2012-12-29T10:30:37.000Z</time>
      </trkpt>
      <trkpt lat="43.23926" lon="-0.23468">
        <ele>296.60000610352</ele>
        <time>2012-12-29T10:30:38.000Z</time>
      </trkpt>
      <trkpt lat="43.23925" lon="-0.23473">
        <ele>296.20001220703</ele>
        <time>2012-12-29T10:30:39.000Z</time>
      </trkpt>
      <trkpt lat="43.23924" lon="-0.23477">
        <ele>296</ele>
        <time>2012-12-29T10:30:40.000Z</time>
      </trkpt>
      <trkpt lat="43.23924" lon="-0.2348">
        <ele>296</ele>
        <time>2012-12-29T10:30:41.000Z</time>
      </trkpt>
      <trkpt lat="43.23924" lon="-0.23484">
        <ele>295.60000610352</ele>
        <time>2012-12-29T10:30:42.000Z</time>
      </trkpt>
      <trkpt lat="43.23925" lon="-0.23487">
        <ele>295.20001220703</ele>
        <time>2012-12-29T10:30:43.000Z</time>
      </trkpt>
      <trkpt lat="43.23926" lon="-0.23491">
        <ele>294.60000610352</ele>
        <time>2012-12-29T10:30:44.000Z</time>
      </trkpt>
      <trkpt lat="43.23927" lon="-0.23494">
        <ele>294.20001220703</ele>
        <time>2012-12-29T10:30:45.000Z</time>
      </trkpt>
      <trkpt lat="43.23927" lon="-0.23497">
        <ele>293.60000610352</ele>
        <time>2012-12-29T10:30:46.000Z</time>
      </trkpt>
      <trkpt lat="43.23929" lon="-0.23502">
        <ele>293.20001220703</ele>
        <time>2012-12-29T10:30:49.000Z</time>
      </trkpt>
      <trkpt lat="43.23929" lon="-0.23504">
        <ele>293</ele>
        <time>2012-12-29T10:30:50.000Z</time>
      </trkpt>
      <trkpt lat="43.2393" lon="-0.23504">
        <ele>292.60000610352</ele>
        <time>2012-12-29T10:30:51.000Z</time>
      </trkpt>
      <trkpt lat="43.23925" lon="-0.23523">
        <ele>289</ele>
        <time>2012-12-29T10:31:13.000Z</time>
      </trkpt>
      <trkpt lat="43.23922" lon="-0.23526">
        <ele>288.20001220703</ele>
        <time>2012-12-29T10:31:15.000Z</time>
      </trkpt>
      <trkpt lat="43.23921" lon="-0.23527">
        <ele>287.60000610352</ele>
        <time>2012-12-29T10:31:16.000Z</time>
      </trkpt>
      <trkpt lat="43.23919" lon="-0.23528">
        <ele>287.20001220703</ele>
        <time>2012-12-29T10:31:17.000Z</time>
      </trkpt>
      <trkpt lat="43.23911" lon="-0.23534">
        <ele>287.20001220703</ele>
        <time>2012-12-29T10:31:21.000Z</time>
      </trkpt>
      <trkpt lat="43.23906" lon="-0.23539">
        <ele>286.60000610352</ele>
        <time>2012-12-29T10:31:23.000Z</time>
      </trkpt>
      <trkpt lat="43.23903" lon="-0.23541">
        <ele>286.20001220703</ele>
        <time>2012-12-29T10:31:24.000Z</time>
      </trkpt>
      <trkpt lat="43.239" lon="-0.23545">
        <ele>285.60000610352</ele>
        <time>2012-12-29T10:31:25.000Z</time>
      </trkpt>
      <trkpt lat="43.23897" lon="-0.23549">
        <ele>285.20001220703</ele>
        <time>2012-12-29T10:31:26.000Z</time>
      </trkpt>
      <trkpt lat="43.23895" lon="-0.23553">
        <ele>284.20001220703</ele>
        <time>2012-12-29T10:31:27.000Z</time>
      </trkpt>
      <trkpt lat="43.23893" lon="-0.23557">
        <ele>283.60000610352</ele>
        <time>2012-12-29T10:31:28.000Z</time>
      </trkpt>
      <trkpt lat="43.23891" lon="-0.2356">
        <ele>283.20001220703</ele>
        <time>2012-12-29T10:31:29.000Z</time>
      </trkpt>
      <trkpt lat="43.23889" lon="-0.23562">
        <ele>282.60000610352</ele>
        <time>2012-12-29T10:31:30.000Z</time>
      </trkpt>
      <trkpt lat="43.23885" lon="-0.23568">
        <ele>282</ele>
        <time>2012-12-29T10:31:32.000Z</time>
      </trkpt>
      <trkpt lat="43.23883" lon="-0.2357">
        <ele>281.20001220703</ele>
        <time>2012-12-29T10:31:33.000Z</time>
      </trkpt>
      <trkpt lat="43.23881" lon="-0.23573">
        <ele>281</ele>
        <time>2012-12-29T10:31:34.000Z</time>
      </trkpt>
      <trkpt lat="43.23879" lon="-0.23576">
        <ele>280.20001220703</ele>
        <time>2012-12-29T10:31:35.000Z</time>
      </trkpt>
      <trkpt lat="43.23877" lon="-0.2358">
        <ele>279.60000610352</ele>
        <time>2012-12-29T10:31:36.000Z</time>
      </trkpt>
      <trkpt lat="43.23875" lon="-0.23583">
        <ele>279</ele>
        <time>2012-12-29T10:31:37.000Z</time>
      </trkpt>
      <trkpt lat="43.23872" lon="-0.23586">
        <ele>278.20001220703</ele>
        <time>2012-12-29T10:31:38.000Z</time>
      </trkpt>
      <trkpt lat="43.2387" lon="-0.23589">
        <ele>277.60000610352</ele>
        <time>2012-12-29T10:31:39.000Z</time>
      </trkpt>
      <trkpt lat="43.23868" lon="-0.23592">
        <ele>277.20001220703</ele>
        <time>2012-12-29T10:31:40.000Z</time>
      </trkpt>
      <trkpt lat="43.23865" lon="-0.23595">
        <ele>276.60000610352</ele>
        <time>2012-12-29T10:31:41.000Z</time>
      </trkpt>
      <trkpt lat="43.23863" lon="-0.23597">
        <ele>276</ele>
        <time>2012-12-29T10:31:42.000Z</time>
      </trkpt>
      <trkpt lat="43.2386" lon="-0.236">
        <ele>275.20001220703</ele>
        <time>2012-12-29T10:31:43.000Z</time>
      </trkpt>
      <trkpt lat="43.23857" lon="-0.23601">
        <ele>275</ele>
        <time>2012-12-29T10:31:44.000Z</time>
      </trkpt>
      <trkpt lat="43.23854" lon="-0.23604">
        <ele>274.20001220703</ele>
        <time>2012-12-29T10:31:45.000Z</time>
      </trkpt>
      <trkpt lat="43.23851" lon="-0.23606">
        <ele>274</ele>
        <time>2012-12-29T10:31:46.000Z</time>
      </trkpt>
      <trkpt lat="43.23848" lon="-0.23608">
        <ele>273.60000610352</ele>
        <time>2012-12-29T10:31:47.000Z</time>
      </trkpt>
      <trkpt lat="43.23845" lon="-0.2361">
        <ele>273</ele>
        <time>2012-12-29T10:31:48.000Z</time>
      </trkpt>
      <trkpt lat="43.23839" lon="-0.23615">
        <ele>272.60000610352</ele>
        <time>2012-12-29T10:31:50.000Z</time>
      </trkpt>
      <trkpt lat="43.23836" lon="-0.23618">
        <ele>272.20001220703</ele>
        <time>2012-12-29T10:31:51.000Z</time>
      </trkpt>
      <trkpt lat="43.23833" lon="-0.23621">
        <ele>271.60000610352</ele>
        <time>2012-12-29T10:31:52.000Z</time>
      </trkpt>
      <trkpt lat="43.2383" lon="-0.23624">
        <ele>271.20001220703</ele>
        <time>2012-12-29T10:31:53.000Z</time>
      </trkpt>
      <trkpt lat="43.23827" lon="-0.23627">
        <ele>271</ele>
        <time>2012-12-29T10:31:54.000Z</time>
      </trkpt>
      <trkpt lat="43.23824" lon="-0.23629">
        <ele>270.60000610352</ele>
        <time>2012-12-29T10:31:55.000Z</time>
      </trkpt>
      <trkpt lat="43.23821" lon="-0.23632">
        <ele>270</ele>
        <time>2012-12-29T10:31:56.000Z</time>
      </trkpt>
      <trkpt lat="43.23818" lon="-0.23635">
        <ele>269.60000610352</ele>
        <time>2012-12-29T10:31:57.000Z</time>
      </trkpt>
      <trkpt lat="43.23815" lon="-0.23638">
        <ele>269</ele>
        <time>2012-12-29T10:31:58.000Z</time>
      </trkpt>
      <trkpt lat="43.23813" lon="-0.23641">
        <ele>268.60000610352</ele>
        <time>2012-12-29T10:31:59.000Z</time>
      </trkpt>
      <trkpt lat="43.23811" lon="-0.23643">
        <ele>268.20001220703</ele>
        <time>2012-12-29T10:32:00.000Z</time>
      </trkpt>
      <trkpt lat="43.2381" lon="-0.23646">
        <ele>267.60000610352</ele>
        <time>2012-12-29T10:32:01.000Z</time>
      </trkpt>
      <trkpt lat="43.2381" lon="-0.23647">
        <ele>267.20001220703</ele>
        <time>2012-12-29T10:32:02.000Z</time>
      </trkpt>
      <trkpt lat="43.2381" lon="-0.23649">
        <ele>266.20001220703</ele>
        <time>2012-12-29T10:32:10.000Z</time>
      </trkpt>
      <trkpt lat="43.2381" lon="-0.2365">
        <ele>266.20001220703</ele>
        <time>2012-12-29T10:32:11.000Z</time>
      </trkpt>
      <trkpt lat="43.23807" lon="-0.23655">
        <ele>266.20001220703</ele>
        <time>2012-12-29T10:32:14.000Z</time>
      </trkpt>
      <trkpt lat="43.23808" lon="-0.23666">
        <ele>266.20001220703</ele>
        <time>2012-12-29T10:32:18.000Z</time>
      </trkpt>
      <trkpt lat="43.23814" lon="-0.23678">
        <ele>265.60000610352</ele>
        <time>2012-12-29T10:32:23.000Z</time>
      </trkpt>
      <trkpt lat="43.23816" lon="-0.2368">
        <ele>265.20001220703</ele>
        <time>2012-12-29T10:32:24.000Z</time>
      </trkpt>
      <trkpt lat="43.23817" lon="-0.23683">
        <ele>264.60000610352</ele>
        <time>2012-12-29T10:32:25.000Z</time>
      </trkpt>
      <trkpt lat="43.23819" lon="-0.23686">
        <ele>264.20001220703</ele>
        <time>2012-12-29T10:32:26.000Z</time>
      </trkpt>
      <trkpt lat="43.2382" lon="-0.23689">
        <ele>263.60000610352</ele>
        <time>2012-12-29T10:32:27.000Z</time>
      </trkpt>
      <trkpt lat="43.23821" lon="-0.23692">
        <ele>263.60000610352</ele>
        <time>2012-12-29T10:32:28.000Z</time>
      </trkpt>
      <trkpt lat="43.23824" lon="-0.23702">
        <ele>263.20001220703</ele>
        <time>2012-12-29T10:32:31.000Z</time>
      </trkpt>
      <trkpt lat="43.23825" lon="-0.23704">
        <ele>263</ele>
        <time>2012-12-29T10:32:32.000Z</time>
      </trkpt>
      <trkpt lat="43.23826" lon="-0.23707">
        <ele>262.60000610352</ele>
        <time>2012-12-29T10:32:33.000Z</time>
      </trkpt>
      <trkpt lat="43.23827" lon="-0.2371">
        <ele>262</ele>
        <time>2012-12-29T10:32:34.000Z</time>
      </trkpt>
      <trkpt lat="43.23828" lon="-0.23713">
        <ele>261.60000610352</ele>
        <time>2012-12-29T10:32:35.000Z</time>
      </trkpt>
      <trkpt lat="43.23832" lon="-0.23723">
        <ele>261.60000610352</ele>
        <time>2012-12-29T10:32:38.000Z</time>
      </trkpt>
      <trkpt lat="43.23836" lon="-0.23735">
        <ele>261.20001220703</ele>
        <time>2012-12-29T10:32:42.000Z</time>
      </trkpt>
      <trkpt lat="43.23837" lon="-0.23738">
        <ele>260.60000610352</ele>
        <time>2012-12-29T10:32:43.000Z</time>
      </trkpt>
      <trkpt lat="43.23839" lon="-0.23741">
        <ele>260.20001220703</ele>
        <time>2012-12-29T10:32:44.000Z</time>
      </trkpt>
      <trkpt lat="43.2384" lon="-0.23745">
        <ele>260</ele>
        <time>2012-12-29T10:32:45.000Z</time>
      </trkpt>
      <trkpt lat="43.2384" lon="-0.23748">
        <ele>259.60000610352</ele>
        <time>2012-12-29T10:32:46.000Z</time>
      </trkpt>
      <trkpt lat="43.2384" lon="-0.23752">
        <ele>259</ele>
        <time>2012-12-29T10:32:47.000Z</time>
      </trkpt>
      <trkpt lat="43.23839" lon="-0.23756">
        <ele>258.60000610352</ele>
        <time>2012-12-29T10:32:48.000Z</time>
      </trkpt>
      <trkpt lat="43.23838" lon="-0.23761">
        <ele>258</ele>
        <time>2012-12-29T10:32:49.000Z</time>
      </trkpt>
      <trkpt lat="43.23836" lon="-0.23766">
        <ele>257.20001220703</ele>
        <time>2012-12-29T10:32:50.000Z</time>
      </trkpt>
      <trkpt lat="43.23835" lon="-0.23772">
        <ele>257</ele>
        <time>2012-12-29T10:32:51.000Z</time>
      </trkpt>
      <trkpt lat="43.23834" lon="-0.23777">
        <ele>256.20001220703</ele>
        <time>2012-12-29T10:32:52.000Z</time>
      </trkpt>
      <trkpt lat="43.23832" lon="-0.23783">
        <ele>256</ele>
        <time>2012-12-29T10:32:53.000Z</time>
      </trkpt>
      <trkpt lat="43.23831" lon="-0.23788">
        <ele>255.19999694824</ele>
        <time>2012-12-29T10:32:54.000Z</time>
      </trkpt>
      <trkpt lat="43.2383" lon="-0.23793">
        <ele>254.80000305176</ele>
        <time>2012-12-29T10:32:55.000Z</time>
      </trkpt>
      <trkpt lat="43.23829" lon="-0.23798">
        <ele>254</ele>
        <time>2012-12-29T10:32:56.000Z</time>
      </trkpt>
      <trkpt lat="43.23828" lon="-0.23803">
        <ele>253.80000305176</ele>
        <time>2012-12-29T10:32:57.000Z</time>
      </trkpt>
      <trkpt lat="43.23827" lon="-0.23807">
        <ele>253</ele>
        <time>2012-12-29T10:32:58.000Z</time>
      </trkpt>
      <trkpt lat="43.23825" lon="-0.23816">
        <ele>252.80000305176</ele>
        <time>2012-12-29T10:33:00.000Z</time>
      </trkpt>
      <trkpt lat="43.23824" lon="-0.23821">
        <ele>252</ele>
        <time>2012-12-29T10:33:01.000Z</time>
      </trkpt>
      <trkpt lat="43.23824" lon="-0.23825">
        <ele>251.60000610352</ele>
        <time>2012-12-29T10:33:02.000Z</time>
      </trkpt>
      <trkpt lat="43.23823" lon="-0.2383">
        <ele>251</ele>
        <time>2012-12-29T10:33:03.000Z</time>
      </trkpt>
      <trkpt lat="43.23823" lon="-0.23834">
        <ele>250.60000610352</ele>
        <time>2012-12-29T10:33:04.000Z</time>
      </trkpt>
      <trkpt lat="43.23823" lon="-0.23844">
        <ele>250.60000610352</ele>
        <time>2012-12-29T10:33:06.000Z</time>
      </trkpt>
      <trkpt lat="43.23823" lon="-0.23851">
        <ele>250</ele>
        <time>2012-12-29T10:33:08.000Z</time>
      </trkpt>
      <trkpt lat="43.23822" lon="-0.23855">
        <ele>249.80000305176</ele>
        <time>2012-12-29T10:33:09.000Z</time>
      </trkpt>
      <trkpt lat="43.23822" lon="-0.23859">
        <ele>249.19999694824</ele>
        <time>2012-12-29T10:33:10.000Z</time>
      </trkpt>
      <trkpt lat="43.23822" lon="-0.23861">
        <ele>248.80000305176</ele>
        <time>2012-12-29T10:33:11.000Z</time>
      </trkpt>
      <trkpt lat="43.23821" lon="-0.23863">
        <ele>248.19999694824</ele>
        <time>2012-12-29T10:33:12.000Z</time>
      </trkpt>
      <trkpt lat="43.2382" lon="-0.23866">
        <ele>248.19999694824</ele>
        <time>2012-12-29T10:33:15.000Z</time>
      </trkpt>
      <trkpt lat="43.23821" lon="-0.23867">
        <ele>248</ele>
        <time>2012-12-29T10:33:18.000Z</time>
      </trkpt>
      <trkpt lat="43.2382" lon="-0.23867">
        <ele>247</ele>
        <time>2012-12-29T10:33:20.000Z</time>
      </trkpt>
      <trkpt lat="43.23823" lon="-0.23882">
        <ele>246.19999694824</ele>
        <time>2012-12-29T10:34:41.000Z</time>
      </trkpt>
      <trkpt lat="43.23822" lon="-0.23886">
        <ele>246.19999694824</ele>
        <time>2012-12-29T10:34:42.000Z</time>
      </trkpt>
      <trkpt lat="43.23818" lon="-0.23904">
        <ele>246.19999694824</ele>
        <time>2012-12-29T10:34:48.000Z</time>
      </trkpt>
      <trkpt lat="43.23817" lon="-0.23906">
        <ele>246</ele>
        <time>2012-12-29T10:34:49.000Z</time>
      </trkpt>
      <trkpt lat="43.23817" lon="-0.23909">
        <ele>245.60000610352</ele>
        <time>2012-12-29T10:34:50.000Z</time>
      </trkpt>
      <trkpt lat="43.23816" lon="-0.23911">
        <ele>245</ele>
        <time>2012-12-29T10:34:51.000Z</time>
      </trkpt>
      <trkpt lat="43.23816" lon="-0.23913">
        <ele>244.80000305176</ele>
        <time>2012-12-29T10:34:52.000Z</time>
      </trkpt>
      <trkpt lat="43.23816" lon="-0.23916">
        <ele>244.19999694824</ele>
        <time>2012-12-29T10:34:53.000Z</time>
      </trkpt>
      <trkpt lat="43.23814" lon="-0.23931">
        <ele>244.19999694824</ele>
        <time>2012-12-29T10:34:59.000Z</time>
      </trkpt>
      <trkpt lat="43.23813" lon="-0.23935">
        <ele>244.19999694824</ele>
        <time>2012-12-29T10:35:01.000Z</time>
      </trkpt>
      <trkpt lat="43.23811" lon="-0.2394">
        <ele>244.19999694824</ele>
        <time>2012-12-29T10:35:03.000Z</time>
      </trkpt>
      <trkpt lat="43.23809" lon="-0.2395">
        <ele>244.19999694824</ele>
        <time>2012-12-29T10:35:07.000Z</time>
      </trkpt>
      <trkpt lat="43.23806" lon="-0.2396">
        <ele>244.19999694824</ele>
        <time>2012-12-29T10:35:12.000Z</time>
      </trkpt>
      <trkpt lat="43.23805" lon="-0.23962">
        <ele>244.19999694824</ele>
        <time>2012-12-29T10:35:13.000Z</time>
      </trkpt>
      <trkpt lat="43.238" lon="-0.23976">
        <ele>244</ele>
        <time>2012-12-29T10:35:18.000Z</time>
      </trkpt>
      <trkpt lat="43.23799" lon="-0.23979">
        <ele>243.19999694824</ele>
        <time>2012-12-29T10:35:19.000Z</time>
      </trkpt>
      <trkpt lat="43.23798" lon="-0.23981">
        <ele>243</ele>
        <time>2012-12-29T10:35:20.000Z</time>
      </trkpt>
      <trkpt lat="43.23797" lon="-0.23984">
        <ele>242.60000610352</ele>
        <time>2012-12-29T10:35:21.000Z</time>
      </trkpt>
      <trkpt lat="43.23796" lon="-0.23987">
        <ele>242</ele>
        <time>2012-12-29T10:35:22.000Z</time>
      </trkpt>
      <trkpt lat="43.23794" lon="-0.23997">
        <ele>242</ele>
        <time>2012-12-29T10:35:25.000Z</time>
      </trkpt>
      <trkpt lat="43.23791" lon="-0.24018">
        <ele>242</ele>
        <time>2012-12-29T10:35:30.000Z</time>
      </trkpt>
      <trkpt lat="43.23788" lon="-0.24032">
        <ele>242</ele>
        <time>2012-12-29T10:35:34.000Z</time>
      </trkpt>
      <trkpt lat="43.23786" lon="-0.24044">
        <ele>242</ele>
        <time>2012-12-29T10:35:39.000Z</time>
      </trkpt>
      <trkpt lat="43.2378" lon="-0.2406">
        <ele>242</ele>
        <time>2012-12-29T10:35:46.000Z</time>
      </trkpt>
      <trkpt lat="43.23772" lon="-0.24073">
        <ele>242</ele>
        <time>2012-12-29T10:35:52.000Z</time>
      </trkpt>
      <trkpt lat="43.23765" lon="-0.24085">
        <ele>242</ele>
        <time>2012-12-29T10:35:57.000Z</time>
      </trkpt>
      <trkpt lat="43.23759" lon="-0.24094">
        <ele>242</ele>
        <time>2012-12-29T10:36:01.000Z</time>
      </trkpt>
      <trkpt lat="43.23751" lon="-0.24104">
        <ele>242</ele>
        <time>2012-12-29T10:36:06.000Z</time>
      </trkpt>
      <trkpt lat="43.23745" lon="-0.24114">
        <ele>242</ele>
        <time>2012-12-29T10:36:11.000Z</time>
      </trkpt>
      <trkpt lat="43.23739" lon="-0.24124">
        <ele>241.80000305176</ele>
        <time>2012-12-29T10:36:16.000Z</time>
      </trkpt>
      <trkpt lat="43.23738" lon="-0.24127">
        <ele>241</ele>
        <time>2012-12-29T10:36:17.000Z</time>
      </trkpt>
      <trkpt lat="43.23737" lon="-0.24128">
        <ele>240.80000305176</ele>
        <time>2012-12-29T10:36:18.000Z</time>
      </trkpt>
      <trkpt lat="43.23736" lon="-0.2413">
        <ele>240.19999694824</ele>
        <time>2012-12-29T10:36:19.000Z</time>
      </trkpt>
      <trkpt lat="43.23735" lon="-0.24133">
        <ele>240</ele>
        <time>2012-12-29T10:36:20.000Z</time>
      </trkpt>
      <trkpt lat="43.23732" lon="-0.24137">
        <ele>240</ele>
        <time>2012-12-29T10:36:22.000Z</time>
      </trkpt>
      <trkpt lat="43.23727" lon="-0.24147">
        <ele>240</ele>
        <time>2012-12-29T10:36:26.000Z</time>
      </trkpt>
      <trkpt lat="43.23722" lon="-0.24162">
        <ele>240</ele>
        <time>2012-12-29T10:36:31.000Z</time>
      </trkpt>
      <trkpt lat="43.23718" lon="-0.24179">
        <ele>240</ele>
        <time>2012-12-29T10:36:38.000Z</time>
      </trkpt>
      <trkpt lat="43.23715" lon="-0.24194">
        <ele>240</ele>
        <time>2012-12-29T10:36:43.000Z</time>
      </trkpt>
      <trkpt lat="43.23711" lon="-0.24213">
        <ele>240</ele>
        <time>2012-12-29T10:36:49.000Z</time>
      </trkpt>
      <trkpt lat="43.23709" lon="-0.2423">
        <ele>240</ele>
        <time>2012-12-29T10:36:54.000Z</time>
      </trkpt>
      <trkpt lat="43.23706" lon="-0.24246">
        <ele>240</ele>
        <time>2012-12-29T10:37:00.000Z</time>
      </trkpt>
      <trkpt lat="43.23705" lon="-0.24252">
        <ele>240</ele>
        <time>2012-12-29T10:37:02.000Z</time>
      </trkpt>
      <trkpt lat="43.23703" lon="-0.24256">
        <ele>240</ele>
        <time>2012-12-29T10:37:04.000Z</time>
      </trkpt>
      <trkpt lat="43.23702" lon="-0.24267">
        <ele>240</ele>
        <time>2012-12-29T10:37:09.000Z</time>
      </trkpt>
      <trkpt lat="43.23702" lon="-0.24269">
        <ele>240</ele>
        <time>2012-12-29T10:37:10.000Z</time>
      </trkpt>
      <trkpt lat="43.23702" lon="-0.24277">
        <ele>240</ele>
        <time>2012-12-29T10:37:14.000Z</time>
      </trkpt>
      <trkpt lat="43.23701" lon="-0.24279">
        <ele>240</ele>
        <time>2012-12-29T10:37:15.000Z</time>
      </trkpt>
      <trkpt lat="43.23697" lon="-0.24292">
        <ele>240</ele>
        <time>2012-12-29T10:37:20.000Z</time>
      </trkpt>
      <trkpt lat="43.23693" lon="-0.243">
        <ele>240</ele>
        <time>2012-12-29T10:37:24.000Z</time>
      </trkpt>
      <trkpt lat="43.2369" lon="-0.24303">
        <ele>240</ele>
        <time>2012-12-29T10:37:26.000Z</time>
      </trkpt>
      <trkpt lat="43.23685" lon="-0.24306">
        <ele>240</ele>
        <time>2012-12-29T10:37:29.000Z</time>
      </trkpt>
      <trkpt lat="43.2368" lon="-0.24309">
        <ele>240</ele>
        <time>2012-12-29T10:37:32.000Z</time>
      </trkpt>
      <trkpt lat="43.23675" lon="-0.2431">
        <ele>240</ele>
        <time>2012-12-29T10:37:34.000Z</time>
      </trkpt>
      <trkpt lat="43.23665" lon="-0.24309">
        <ele>240</ele>
        <time>2012-12-29T10:37:39.000Z</time>
      </trkpt>
      <trkpt lat="43.2366" lon="-0.2431">
        <ele>240</ele>
        <time>2012-12-29T10:37:42.000Z</time>
      </trkpt>
      <trkpt lat="43.23657" lon="-0.24311">
        <ele>240</ele>
        <time>2012-12-29T10:37:44.000Z</time>
      </trkpt>
      <trkpt lat="43.23653" lon="-0.24313">
        <ele>240</ele>
        <time>2012-12-29T10:37:46.000Z</time>
      </trkpt>
      <trkpt lat="43.23649" lon="-0.24314">
        <ele>240</ele>
        <time>2012-12-29T10:37:48.000Z</time>
      </trkpt>
      <trkpt lat="43.23639" lon="-0.24319">
        <ele>240</ele>
        <time>2012-12-29T10:37:53.000Z</time>
      </trkpt>
      <trkpt lat="43.2363" lon="-0.24328">
        <ele>240</ele>
        <time>2012-12-29T10:37:57.000Z</time>
      </trkpt>
      <trkpt lat="43.23627" lon="-0.24334">
        <ele>240</ele>
        <time>2012-12-29T10:37:59.000Z</time>
      </trkpt>
      <trkpt lat="43.23625" lon="-0.24342">
        <ele>240</ele>
        <time>2012-12-29T10:38:01.000Z</time>
      </trkpt>
      <trkpt lat="43.23622" lon="-0.24365">
        <ele>240</ele>
        <time>2012-12-29T10:38:07.000Z</time>
      </trkpt>
      <trkpt lat="43.23621" lon="-0.2438">
        <ele>240</ele>
        <time>2012-12-29T10:38:12.000Z</time>
      </trkpt>
      <trkpt lat="43.23624" lon="-0.24395">
        <ele>240</ele>
        <time>2012-12-29T10:38:17.000Z</time>
      </trkpt>
      <trkpt lat="43.23624" lon="-0.24409">
        <ele>240</ele>
        <time>2012-12-29T10:38:22.000Z</time>
      </trkpt>
      <trkpt lat="43.23624" lon="-0.24427">
        <ele>240</ele>
        <time>2012-12-29T10:38:28.000Z</time>
      </trkpt>
      <trkpt lat="43.23625" lon="-0.24439">
        <ele>240</ele>
        <time>2012-12-29T10:38:32.000Z</time>
      </trkpt>
      <trkpt lat="43.23626" lon="-0.2445">
        <ele>240</ele>
        <time>2012-12-29T10:38:36.000Z</time>
      </trkpt>
      <trkpt lat="43.23626" lon="-0.24465">
        <ele>240</ele>
        <time>2012-12-29T10:38:41.000Z</time>
      </trkpt>
      <trkpt lat="43.23626" lon="-0.24481">
        <ele>240</ele>
        <time>2012-12-29T10:38:47.000Z</time>
      </trkpt>
      <trkpt lat="43.23626" lon="-0.24489">
        <ele>240</ele>
        <time>2012-12-29T10:38:50.000Z</time>
      </trkpt>
      <trkpt lat="43.23626" lon="-0.24498">
        <ele>240</ele>
        <time>2012-12-29T10:38:53.000Z</time>
      </trkpt>
      <trkpt lat="43.23626" lon="-0.24501">
        <ele>240</ele>
        <time>2012-12-29T10:38:54.000Z</time>
      </trkpt>
      <trkpt lat="43.2363" lon="-0.24517">
        <ele>240</ele>
        <time>2012-12-29T10:38:59.000Z</time>
      </trkpt>
      <trkpt lat="43.2363" lon="-0.24527">
        <ele>240</ele>
        <time>2012-12-29T10:39:03.000Z</time>
      </trkpt>
      <trkpt lat="43.23631" lon="-0.2454">
        <ele>240</ele>
        <time>2012-12-29T10:39:08.000Z</time>
      </trkpt>
      <trkpt lat="43.23633" lon="-0.24558">
        <ele>240</ele>
        <time>2012-12-29T10:39:15.000Z</time>
      </trkpt>
      <trkpt lat="43.23636" lon="-0.24576">
        <ele>240</ele>
        <time>2012-12-29T10:39:21.000Z</time>
      </trkpt>
      <trkpt lat="43.23638" lon="-0.24579">
        <ele>240</ele>
        <time>2012-12-29T10:39:22.000Z</time>
      </trkpt>
      <trkpt lat="43.2364" lon="-0.24586">
        <ele>240</ele>
        <time>2012-12-29T10:39:25.000Z</time>
      </trkpt>
      <trkpt lat="43.23641" lon="-0.24591">
        <ele>240</ele>
        <time>2012-12-29T10:39:27.000Z</time>
      </trkpt>
      <trkpt lat="43.23643" lon="-0.24599">
        <ele>240</ele>
        <time>2012-12-29T10:39:30.000Z</time>
      </trkpt>
      <trkpt lat="43.23644" lon="-0.24602">
        <ele>239.60000610352</ele>
        <time>2012-12-29T10:39:31.000Z</time>
      </trkpt>
      <trkpt lat="43.23645" lon="-0.24605">
        <ele>239</ele>
        <time>2012-12-29T10:39:32.000Z</time>
      </trkpt>
      <trkpt lat="43.23646" lon="-0.24608">
        <ele>238.60000610352</ele>
        <time>2012-12-29T10:39:33.000Z</time>
      </trkpt>
      <trkpt lat="43.23647" lon="-0.24611">
        <ele>238</ele>
        <time>2012-12-29T10:39:34.000Z</time>
      </trkpt>
      <trkpt lat="43.23648" lon="-0.24614">
        <ele>237.80000305176</ele>
        <time>2012-12-29T10:39:35.000Z</time>
      </trkpt>
      <trkpt lat="43.23656" lon="-0.24636">
        <ele>237.80000305176</ele>
        <time>2012-12-29T10:39:44.000Z</time>
      </trkpt>
      <trkpt lat="43.23663" lon="-0.24648">
        <ele>237.80000305176</ele>
        <time>2012-12-29T10:39:49.000Z</time>
      </trkpt>
      <trkpt lat="43.23669" lon="-0.24661">
        <ele>237.80000305176</ele>
        <time>2012-12-29T10:39:54.000Z</time>
      </trkpt>
      <trkpt lat="43.23676" lon="-0.24673">
        <ele>237.80000305176</ele>
        <time>2012-12-29T10:39:59.000Z</time>
      </trkpt>
      <trkpt lat="43.23682" lon="-0.24686">
        <ele>237.80000305176</ele>
        <time>2012-12-29T10:40:04.000Z</time>
      </trkpt>
      <trkpt lat="43.23687" lon="-0.24699">
        <ele>237.80000305176</ele>
        <time>2012-12-29T10:40:09.000Z</time>
      </trkpt>
      <trkpt lat="43.2369" lon="-0.2471">
        <ele>237.80000305176</ele>
        <time>2012-12-29T10:40:13.000Z</time>
      </trkpt>
      <trkpt lat="43.23697" lon="-0.24726">
        <ele>237.80000305176</ele>
        <time>2012-12-29T10:40:19.000Z</time>
      </trkpt>
      <trkpt lat="43.23701" lon="-0.24735">
        <ele>237.80000305176</ele>
        <time>2012-12-29T10:40:22.000Z</time>
      </trkpt>
      <trkpt lat="43.23704" lon="-0.24741">
        <ele>237.80000305176</ele>
        <time>2012-12-29T10:40:24.000Z</time>
      </trkpt>
      <trkpt lat="43.23707" lon="-0.24755">
        <ele>237.80000305176</ele>
        <time>2012-12-29T10:40:29.000Z</time>
      </trkpt>
      <trkpt lat="43.23705" lon="-0.24773">
        <ele>237.80000305176</ele>
        <time>2012-12-29T10:40:35.000Z</time>
      </trkpt>
      <trkpt lat="43.23704" lon="-0.24782">
        <ele>237.80000305176</ele>
        <time>2012-12-29T10:40:38.000Z</time>
      </trkpt>
      <trkpt lat="43.23705" lon="-0.24788">
        <ele>237.80000305176</ele>
        <time>2012-12-29T10:40:40.000Z</time>
      </trkpt>
      <trkpt lat="43.23704" lon="-0.24805">
        <ele>237.80000305176</ele>
        <time>2012-12-29T10:40:46.000Z</time>
      </trkpt>
      <trkpt lat="43.23704" lon="-0.24817">
        <ele>237.80000305176</ele>
        <time>2012-12-29T10:40:52.000Z</time>
      </trkpt>
      <trkpt lat="43.23706" lon="-0.24825">
        <ele>237.80000305176</ele>
        <time>2012-12-29T10:40:57.000Z</time>
      </trkpt>
    </trkseg>
  </trk>
</gpx>